<?xml version="1.0" encoding="UTF-8" standalone="no" ?>
<gpx xmlns="http://www.topografix.com/GPX/1/1" xmlns:xsi="http://www.w3.org/2001/XMLSchema-instance" xsi:schemaLocation="http://www.topografix.com/GPX/1/1 http://www.topografix.com/GPX/1/1/gpx.xsd" version="1.1" creator="VisuGPX - https://www.visugpx.com">
  <metadata>
    <name>Course à pied en soirée</name>
  </metadata>
  <trk>
    <name><![CDATA[Course à pied en soirée_1]]></name>
    <trkseg>
      <trkpt lat="43.64986" lon="1.38069">
        <ele>151</ele>
        <time>2023-04-04T16:07:20Z</time>
      </trkpt>
      <trkpt lat="43.64986" lon="1.38069">
        <ele>151</ele>
        <time>2023-04-04T16:07:22Z</time>
      </trkpt>
      <trkpt lat="43.64986" lon="1.38069">
        <ele>151</ele>
        <time>2023-04-04T16:07:23Z</time>
      </trkpt>
      <trkpt lat="43.64986" lon="1.38069">
        <ele>151</ele>
        <time>2023-04-04T16:07:24Z</time>
      </trkpt>
      <trkpt lat="43.64986" lon="1.38069">
        <ele>151</ele>
        <time>2023-04-04T16:07:25Z</time>
      </trkpt>
      <trkpt lat="43.64986" lon="1.38069">
        <ele>151</ele>
        <time>2023-04-04T16:07:26Z</time>
      </trkpt>
      <trkpt lat="43.64986" lon="1.38069">
        <ele>151</ele>
        <time>2023-04-04T16:07:27Z</time>
      </trkpt>
      <trkpt lat="43.64986" lon="1.38069">
        <ele>151</ele>
        <time>2023-04-04T16:07:28Z</time>
      </trkpt>
      <trkpt lat="43.64986" lon="1.38069">
        <ele>151</ele>
        <time>2023-04-04T16:07:29Z</time>
      </trkpt>
      <trkpt lat="43.64986" lon="1.38069">
        <ele>151</ele>
        <time>2023-04-04T16:07:30Z</time>
      </trkpt>
      <trkpt lat="43.64986" lon="1.38069">
        <ele>151</ele>
        <time>2023-04-04T16:07:31Z</time>
      </trkpt>
      <trkpt lat="43.64986" lon="1.38069">
        <ele>151</ele>
        <time>2023-04-04T16:07:32Z</time>
      </trkpt>
      <trkpt lat="43.64986" lon="1.38069">
        <ele>151</ele>
        <time>2023-04-04T16:07:33Z</time>
      </trkpt>
      <trkpt lat="43.64986" lon="1.38069">
        <ele>151</ele>
        <time>2023-04-04T16:07:34Z</time>
      </trkpt>
      <trkpt lat="43.64986" lon="1.38069">
        <ele>151</ele>
        <time>2023-04-04T16:07:35Z</time>
      </trkpt>
      <trkpt lat="43.64986" lon="1.38069">
        <ele>151</ele>
        <time>2023-04-04T16:07:36Z</time>
      </trkpt>
      <trkpt lat="43.64986" lon="1.38069">
        <ele>151</ele>
        <time>2023-04-04T16:07:37Z</time>
      </trkpt>
      <trkpt lat="43.64986" lon="1.38069">
        <ele>151</ele>
        <time>2023-04-04T16:07:39Z</time>
      </trkpt>
      <trkpt lat="43.64986" lon="1.38069">
        <ele>151</ele>
        <time>2023-04-04T16:07:40Z</time>
      </trkpt>
      <trkpt lat="43.64986" lon="1.38069">
        <ele>151</ele>
        <time>2023-04-04T16:07:41Z</time>
      </trkpt>
      <trkpt lat="43.64986" lon="1.38069">
        <ele>151</ele>
        <time>2023-04-04T16:07:42Z</time>
      </trkpt>
      <trkpt lat="43.64986" lon="1.38069">
        <ele>151</ele>
        <time>2023-04-04T16:07:43Z</time>
      </trkpt>
      <trkpt lat="43.64986" lon="1.38069">
        <ele>151</ele>
        <time>2023-04-04T16:07:44Z</time>
      </trkpt>
      <trkpt lat="43.64986" lon="1.38069">
        <ele>151</ele>
        <time>2023-04-04T16:07:45Z</time>
      </trkpt>
      <trkpt lat="43.64986" lon="1.38069">
        <ele>151</ele>
        <time>2023-04-04T16:07:47Z</time>
      </trkpt>
      <trkpt lat="43.64986" lon="1.38069">
        <ele>151</ele>
        <time>2023-04-04T16:07:48Z</time>
      </trkpt>
      <trkpt lat="43.64986" lon="1.38069">
        <ele>151</ele>
        <time>2023-04-04T16:07:49Z</time>
      </trkpt>
      <trkpt lat="43.64986" lon="1.38069">
        <ele>151</ele>
        <time>2023-04-04T16:07:50Z</time>
      </trkpt>
      <trkpt lat="43.64986" lon="1.38069">
        <ele>151</ele>
        <time>2023-04-04T16:07:51Z</time>
      </trkpt>
      <trkpt lat="43.64986" lon="1.38069">
        <ele>151</ele>
        <time>2023-04-04T16:07:52Z</time>
      </trkpt>
      <trkpt lat="43.64986" lon="1.38069">
        <ele>151</ele>
        <time>2023-04-04T16:07:53Z</time>
      </trkpt>
      <trkpt lat="43.64986" lon="1.38069">
        <ele>151</ele>
        <time>2023-04-04T16:07:54Z</time>
      </trkpt>
      <trkpt lat="43.64986" lon="1.38069">
        <ele>151</ele>
        <time>2023-04-04T16:07:55Z</time>
      </trkpt>
      <trkpt lat="43.64986" lon="1.38069">
        <ele>151</ele>
        <time>2023-04-04T16:07:56Z</time>
      </trkpt>
      <trkpt lat="43.64986" lon="1.38069">
        <ele>151</ele>
        <time>2023-04-04T16:07:58Z</time>
      </trkpt>
      <trkpt lat="43.64986" lon="1.38069">
        <ele>151</ele>
        <time>2023-04-04T16:07:59Z</time>
      </trkpt>
      <trkpt lat="43.64986" lon="1.38069">
        <ele>150</ele>
        <time>2023-04-04T16:08:00Z</time>
      </trkpt>
      <trkpt lat="43.64986" lon="1.38069">
        <ele>150</ele>
        <time>2023-04-04T16:08:01Z</time>
      </trkpt>
      <trkpt lat="43.64986" lon="1.38069">
        <ele>150</ele>
        <time>2023-04-04T16:08:02Z</time>
      </trkpt>
      <trkpt lat="43.64986" lon="1.38069">
        <ele>150</ele>
        <time>2023-04-04T16:08:03Z</time>
      </trkpt>
      <trkpt lat="43.64986" lon="1.38069">
        <ele>150</ele>
        <time>2023-04-04T16:08:04Z</time>
      </trkpt>
      <trkpt lat="43.64986" lon="1.38069">
        <ele>150</ele>
        <time>2023-04-04T16:08:05Z</time>
      </trkpt>
      <trkpt lat="43.64986" lon="1.38069">
        <ele>150</ele>
        <time>2023-04-04T16:08:06Z</time>
      </trkpt>
      <trkpt lat="43.64986" lon="1.38069">
        <ele>150</ele>
        <time>2023-04-04T16:08:08Z</time>
      </trkpt>
      <trkpt lat="43.64986" lon="1.38069">
        <ele>150</ele>
        <time>2023-04-04T16:08:09Z</time>
      </trkpt>
      <trkpt lat="43.64986" lon="1.38069">
        <ele>150</ele>
        <time>2023-04-04T16:08:10Z</time>
      </trkpt>
      <trkpt lat="43.64986" lon="1.38069">
        <ele>150</ele>
        <time>2023-04-04T16:08:11Z</time>
      </trkpt>
      <trkpt lat="43.64986" lon="1.38069">
        <ele>151</ele>
        <time>2023-04-04T16:08:12Z</time>
      </trkpt>
      <trkpt lat="43.64986" lon="1.38069">
        <ele>151</ele>
        <time>2023-04-04T16:08:13Z</time>
      </trkpt>
      <trkpt lat="43.64986" lon="1.38069">
        <ele>151</ele>
        <time>2023-04-04T16:08:14Z</time>
      </trkpt>
      <trkpt lat="43.64986" lon="1.38069">
        <ele>151</ele>
        <time>2023-04-04T16:08:15Z</time>
      </trkpt>
      <trkpt lat="43.64986" lon="1.38069">
        <ele>151</ele>
        <time>2023-04-04T16:08:17Z</time>
      </trkpt>
      <trkpt lat="43.64986" lon="1.38069">
        <ele>151</ele>
        <time>2023-04-04T16:08:18Z</time>
      </trkpt>
      <trkpt lat="43.64986" lon="1.38069">
        <ele>150</ele>
        <time>2023-04-04T16:08:19Z</time>
      </trkpt>
      <trkpt lat="43.64986" lon="1.38069">
        <ele>150</ele>
        <time>2023-04-04T16:08:20Z</time>
      </trkpt>
      <trkpt lat="43.64986" lon="1.38069">
        <ele>150</ele>
        <time>2023-04-04T16:08:21Z</time>
      </trkpt>
      <trkpt lat="43.64986" lon="1.38069">
        <ele>150</ele>
        <time>2023-04-04T16:08:22Z</time>
      </trkpt>
      <trkpt lat="43.64986" lon="1.38069">
        <ele>150</ele>
        <time>2023-04-04T16:08:23Z</time>
      </trkpt>
      <trkpt lat="43.64986" lon="1.38069">
        <ele>150</ele>
        <time>2023-04-04T16:08:24Z</time>
      </trkpt>
      <trkpt lat="43.64986" lon="1.38069">
        <ele>150</ele>
        <time>2023-04-04T16:08:25Z</time>
      </trkpt>
      <trkpt lat="43.64986" lon="1.38069">
        <ele>150</ele>
        <time>2023-04-04T16:08:26Z</time>
      </trkpt>
      <trkpt lat="43.64986" lon="1.38069">
        <ele>150</ele>
        <time>2023-04-04T16:08:28Z</time>
      </trkpt>
      <trkpt lat="43.64986" lon="1.38069">
        <ele>150</ele>
        <time>2023-04-04T16:08:29Z</time>
      </trkpt>
      <trkpt lat="43.64986" lon="1.38069">
        <ele>150</ele>
        <time>2023-04-04T16:08:30Z</time>
      </trkpt>
      <trkpt lat="43.64986" lon="1.38069">
        <ele>150</ele>
        <time>2023-04-04T16:08:31Z</time>
      </trkpt>
      <trkpt lat="43.64986" lon="1.38069">
        <ele>150</ele>
        <time>2023-04-04T16:08:32Z</time>
      </trkpt>
      <trkpt lat="43.64986" lon="1.38069">
        <ele>150</ele>
        <time>2023-04-04T16:08:33Z</time>
      </trkpt>
      <trkpt lat="43.64986" lon="1.38069">
        <ele>150</ele>
        <time>2023-04-04T16:08:34Z</time>
      </trkpt>
      <trkpt lat="43.64986" lon="1.38069">
        <ele>150</ele>
        <time>2023-04-04T16:08:36Z</time>
      </trkpt>
      <trkpt lat="43.64986" lon="1.38069">
        <ele>150</ele>
        <time>2023-04-04T16:08:37Z</time>
      </trkpt>
      <trkpt lat="43.64986" lon="1.38069">
        <ele>150</ele>
        <time>2023-04-04T16:08:38Z</time>
      </trkpt>
      <trkpt lat="43.64986" lon="1.38069">
        <ele>150</ele>
        <time>2023-04-04T16:08:39Z</time>
      </trkpt>
      <trkpt lat="43.64986" lon="1.38069">
        <ele>150</ele>
        <time>2023-04-04T16:08:40Z</time>
      </trkpt>
      <trkpt lat="43.64986" lon="1.38069">
        <ele>150</ele>
        <time>2023-04-04T16:08:41Z</time>
      </trkpt>
      <trkpt lat="43.64986" lon="1.38069">
        <ele>149</ele>
        <time>2023-04-04T16:08:42Z</time>
      </trkpt>
      <trkpt lat="43.64986" lon="1.38069">
        <ele>149</ele>
        <time>2023-04-04T16:08:43Z</time>
      </trkpt>
      <trkpt lat="43.64986" lon="1.38069">
        <ele>149</ele>
        <time>2023-04-04T16:08:44Z</time>
      </trkpt>
      <trkpt lat="43.64986" lon="1.38069">
        <ele>149</ele>
        <time>2023-04-04T16:08:45Z</time>
      </trkpt>
      <trkpt lat="43.64986" lon="1.38069">
        <ele>149</ele>
        <time>2023-04-04T16:08:46Z</time>
      </trkpt>
      <trkpt lat="43.64986" lon="1.38069">
        <ele>149</ele>
        <time>2023-04-04T16:08:47Z</time>
      </trkpt>
      <trkpt lat="43.64986" lon="1.38069">
        <ele>149</ele>
        <time>2023-04-04T16:08:49Z</time>
      </trkpt>
      <trkpt lat="43.64986" lon="1.38069">
        <ele>149</ele>
        <time>2023-04-04T16:08:50Z</time>
      </trkpt>
      <trkpt lat="43.64986" lon="1.38069">
        <ele>148</ele>
        <time>2023-04-04T16:08:51Z</time>
      </trkpt>
      <trkpt lat="43.64986" lon="1.38069">
        <ele>148</ele>
        <time>2023-04-04T16:08:52Z</time>
      </trkpt>
      <trkpt lat="43.64986" lon="1.38069">
        <ele>148</ele>
        <time>2023-04-04T16:08:53Z</time>
      </trkpt>
      <trkpt lat="43.64986" lon="1.38069">
        <ele>148</ele>
        <time>2023-04-04T16:08:55Z</time>
      </trkpt>
      <trkpt lat="43.64986" lon="1.38069">
        <ele>148</ele>
        <time>2023-04-04T16:08:56Z</time>
      </trkpt>
      <trkpt lat="43.64986" lon="1.38069">
        <ele>148</ele>
        <time>2023-04-04T16:08:57Z</time>
      </trkpt>
      <trkpt lat="43.64986" lon="1.38069">
        <ele>149</ele>
        <time>2023-04-04T16:08:58Z</time>
      </trkpt>
      <trkpt lat="43.64986" lon="1.38069">
        <ele>149</ele>
        <time>2023-04-04T16:08:59Z</time>
      </trkpt>
      <trkpt lat="43.64986" lon="1.38069">
        <ele>148</ele>
        <time>2023-04-04T16:09:00Z</time>
      </trkpt>
      <trkpt lat="43.64986" lon="1.38069">
        <ele>148</ele>
        <time>2023-04-04T16:09:01Z</time>
      </trkpt>
      <trkpt lat="43.64986" lon="1.38069">
        <ele>148</ele>
        <time>2023-04-04T16:09:02Z</time>
      </trkpt>
      <trkpt lat="43.64986" lon="1.38069">
        <ele>148</ele>
        <time>2023-04-04T16:09:03Z</time>
      </trkpt>
      <trkpt lat="43.64986" lon="1.38069">
        <ele>148</ele>
        <time>2023-04-04T16:09:04Z</time>
      </trkpt>
      <trkpt lat="43.64986" lon="1.38069">
        <ele>148</ele>
        <time>2023-04-04T16:09:05Z</time>
      </trkpt>
      <trkpt lat="43.64986" lon="1.38069">
        <ele>148</ele>
        <time>2023-04-04T16:09:06Z</time>
      </trkpt>
      <trkpt lat="43.64986" lon="1.38069">
        <ele>148</ele>
        <time>2023-04-04T16:09:07Z</time>
      </trkpt>
      <trkpt lat="43.64986" lon="1.38069">
        <ele>148</ele>
        <time>2023-04-04T16:09:09Z</time>
      </trkpt>
      <trkpt lat="43.64986" lon="1.38069">
        <ele>148</ele>
        <time>2023-04-04T16:09:10Z</time>
      </trkpt>
      <trkpt lat="43.64986" lon="1.38069">
        <ele>148</ele>
        <time>2023-04-04T16:09:11Z</time>
      </trkpt>
      <trkpt lat="43.64986" lon="1.38069">
        <ele>148</ele>
        <time>2023-04-04T16:09:12Z</time>
      </trkpt>
      <trkpt lat="43.64986" lon="1.38069">
        <ele>148</ele>
        <time>2023-04-04T16:09:14Z</time>
      </trkpt>
      <trkpt lat="43.64986" lon="1.38069">
        <ele>148</ele>
        <time>2023-04-04T16:09:15Z</time>
      </trkpt>
      <trkpt lat="43.64986" lon="1.38069">
        <ele>148</ele>
        <time>2023-04-04T16:09:16Z</time>
      </trkpt>
      <trkpt lat="43.64986" lon="1.38069">
        <ele>148</ele>
        <time>2023-04-04T16:09:17Z</time>
      </trkpt>
      <trkpt lat="43.64986" lon="1.38069">
        <ele>148</ele>
        <time>2023-04-04T16:09:18Z</time>
      </trkpt>
      <trkpt lat="43.64986" lon="1.38069">
        <ele>148</ele>
        <time>2023-04-04T16:09:19Z</time>
      </trkpt>
      <trkpt lat="43.64986" lon="1.38069">
        <ele>148</ele>
        <time>2023-04-04T16:09:20Z</time>
      </trkpt>
      <trkpt lat="43.64986" lon="1.38069">
        <ele>148</ele>
        <time>2023-04-04T16:09:21Z</time>
      </trkpt>
      <trkpt lat="43.64986" lon="1.38069">
        <ele>148</ele>
        <time>2023-04-04T16:09:22Z</time>
      </trkpt>
      <trkpt lat="43.64986" lon="1.38069">
        <ele>148</ele>
        <time>2023-04-04T16:09:23Z</time>
      </trkpt>
      <trkpt lat="43.64986" lon="1.38069">
        <ele>148</ele>
        <time>2023-04-04T16:09:24Z</time>
      </trkpt>
      <trkpt lat="43.64986" lon="1.38069">
        <ele>148</ele>
        <time>2023-04-04T16:09:25Z</time>
      </trkpt>
      <trkpt lat="43.64986" lon="1.38069">
        <ele>148</ele>
        <time>2023-04-04T16:09:26Z</time>
      </trkpt>
      <trkpt lat="43.64986" lon="1.38069">
        <ele>148</ele>
        <time>2023-04-04T16:09:27Z</time>
      </trkpt>
      <trkpt lat="43.64986" lon="1.38069">
        <ele>148</ele>
        <time>2023-04-04T16:09:29Z</time>
      </trkpt>
      <trkpt lat="43.64986" lon="1.38069">
        <ele>148</ele>
        <time>2023-04-04T16:09:30Z</time>
      </trkpt>
      <trkpt lat="43.64986" lon="1.38069">
        <ele>148</ele>
        <time>2023-04-04T16:09:31Z</time>
      </trkpt>
      <trkpt lat="43.64986" lon="1.38069">
        <ele>148</ele>
        <time>2023-04-04T16:09:33Z</time>
      </trkpt>
      <trkpt lat="43.64986" lon="1.38069">
        <ele>148</ele>
        <time>2023-04-04T16:09:34Z</time>
      </trkpt>
      <trkpt lat="43.64986" lon="1.38069">
        <ele>148</ele>
        <time>2023-04-04T16:09:35Z</time>
      </trkpt>
      <trkpt lat="43.64986" lon="1.38069">
        <ele>148</ele>
        <time>2023-04-04T16:09:36Z</time>
      </trkpt>
      <trkpt lat="43.64986" lon="1.38069">
        <ele>148</ele>
        <time>2023-04-04T16:09:37Z</time>
      </trkpt>
      <trkpt lat="43.64986" lon="1.38069">
        <ele>148</ele>
        <time>2023-04-04T16:09:38Z</time>
      </trkpt>
      <trkpt lat="43.64986" lon="1.38069">
        <ele>148</ele>
        <time>2023-04-04T16:09:39Z</time>
      </trkpt>
      <trkpt lat="43.64986" lon="1.38069">
        <ele>148</ele>
        <time>2023-04-04T16:09:40Z</time>
      </trkpt>
      <trkpt lat="43.64986" lon="1.38069">
        <ele>148</ele>
        <time>2023-04-04T16:09:41Z</time>
      </trkpt>
      <trkpt lat="43.64986" lon="1.38069">
        <ele>148</ele>
        <time>2023-04-04T16:09:42Z</time>
      </trkpt>
      <trkpt lat="43.64986" lon="1.38069">
        <ele>148</ele>
        <time>2023-04-04T16:09:43Z</time>
      </trkpt>
      <trkpt lat="43.64986" lon="1.38069">
        <ele>147</ele>
        <time>2023-04-04T16:09:44Z</time>
      </trkpt>
      <trkpt lat="43.64986" lon="1.38069">
        <ele>147</ele>
        <time>2023-04-04T16:09:45Z</time>
      </trkpt>
      <trkpt lat="43.64986" lon="1.38069">
        <ele>147</ele>
        <time>2023-04-04T16:09:46Z</time>
      </trkpt>
      <trkpt lat="43.64986" lon="1.38069">
        <ele>147</ele>
        <time>2023-04-04T16:09:47Z</time>
      </trkpt>
      <trkpt lat="43.64986" lon="1.38069">
        <ele>147</ele>
        <time>2023-04-04T16:09:49Z</time>
      </trkpt>
      <trkpt lat="43.64986" lon="1.38069">
        <ele>147</ele>
        <time>2023-04-04T16:09:50Z</time>
      </trkpt>
      <trkpt lat="43.64986" lon="1.38069">
        <ele>147</ele>
        <time>2023-04-04T16:09:52Z</time>
      </trkpt>
      <trkpt lat="43.64986" lon="1.38069">
        <ele>147</ele>
        <time>2023-04-04T16:09:53Z</time>
      </trkpt>
      <trkpt lat="43.64986" lon="1.38069">
        <ele>147</ele>
        <time>2023-04-04T16:09:54Z</time>
      </trkpt>
      <trkpt lat="43.64986" lon="1.38069">
        <ele>147</ele>
        <time>2023-04-04T16:09:55Z</time>
      </trkpt>
      <trkpt lat="43.64986" lon="1.38069">
        <ele>147</ele>
        <time>2023-04-04T16:09:56Z</time>
      </trkpt>
      <trkpt lat="43.64986" lon="1.38069">
        <ele>147</ele>
        <time>2023-04-04T16:09:57Z</time>
      </trkpt>
      <trkpt lat="43.64986" lon="1.38069">
        <ele>148</ele>
        <time>2023-04-04T16:09:58Z</time>
      </trkpt>
      <trkpt lat="43.64986" lon="1.38069">
        <ele>148</ele>
        <time>2023-04-04T16:09:59Z</time>
      </trkpt>
      <trkpt lat="43.64986" lon="1.38069">
        <ele>148</ele>
        <time>2023-04-04T16:10:00Z</time>
      </trkpt>
      <trkpt lat="43.64986" lon="1.38069">
        <ele>148</ele>
        <time>2023-04-04T16:10:01Z</time>
      </trkpt>
      <trkpt lat="43.64986" lon="1.38069">
        <ele>148</ele>
        <time>2023-04-04T16:10:02Z</time>
      </trkpt>
      <trkpt lat="43.64986" lon="1.38069">
        <ele>148</ele>
        <time>2023-04-04T16:10:03Z</time>
      </trkpt>
      <trkpt lat="43.64986" lon="1.38069">
        <ele>148</ele>
        <time>2023-04-04T16:10:04Z</time>
      </trkpt>
      <trkpt lat="43.64986" lon="1.38069">
        <ele>148</ele>
        <time>2023-04-04T16:10:05Z</time>
      </trkpt>
      <trkpt lat="43.64986" lon="1.38069">
        <ele>148</ele>
        <time>2023-04-04T16:10:06Z</time>
      </trkpt>
      <trkpt lat="43.64986" lon="1.38069">
        <ele>148</ele>
        <time>2023-04-04T16:10:07Z</time>
      </trkpt>
      <trkpt lat="43.64986" lon="1.38069">
        <ele>148</ele>
        <time>2023-04-04T16:10:09Z</time>
      </trkpt>
      <trkpt lat="43.64986" lon="1.38069">
        <ele>148</ele>
        <time>2023-04-04T16:10:11Z</time>
      </trkpt>
      <trkpt lat="43.64986" lon="1.38069">
        <ele>148</ele>
        <time>2023-04-04T16:10:12Z</time>
      </trkpt>
      <trkpt lat="43.64987" lon="1.38071">
        <ele>148</ele>
        <time>2023-04-04T16:10:13Z</time>
      </trkpt>
      <trkpt lat="43.64987" lon="1.38072">
        <ele>148</ele>
        <time>2023-04-04T16:10:14Z</time>
      </trkpt>
      <trkpt lat="43.64988" lon="1.38073">
        <ele>148</ele>
        <time>2023-04-04T16:10:15Z</time>
      </trkpt>
      <trkpt lat="43.64988" lon="1.38075">
        <ele>148</ele>
        <time>2023-04-04T16:10:16Z</time>
      </trkpt>
      <trkpt lat="43.64989" lon="1.38076">
        <ele>148</ele>
        <time>2023-04-04T16:10:17Z</time>
      </trkpt>
      <trkpt lat="43.64992" lon="1.38085">
        <ele>148</ele>
        <time>2023-04-04T16:10:18Z</time>
      </trkpt>
      <trkpt lat="43.64993" lon="1.38086">
        <ele>148</ele>
        <time>2023-04-04T16:10:19Z</time>
      </trkpt>
      <trkpt lat="43.64994" lon="1.38088">
        <ele>148</ele>
        <time>2023-04-04T16:10:20Z</time>
      </trkpt>
      <trkpt lat="43.64995" lon="1.3809">
        <ele>148</ele>
        <time>2023-04-04T16:10:21Z</time>
      </trkpt>
      <trkpt lat="43.64998" lon="1.38098">
        <ele>148</ele>
        <time>2023-04-04T16:10:22Z</time>
      </trkpt>
      <trkpt lat="43.64999" lon="1.38099">
        <ele>149</ele>
        <time>2023-04-04T16:10:23Z</time>
      </trkpt>
      <trkpt lat="43.64999" lon="1.38101">
        <ele>149</ele>
        <time>2023-04-04T16:10:24Z</time>
      </trkpt>
      <trkpt lat="43.65" lon="1.38102">
        <ele>149</ele>
        <time>2023-04-04T16:10:25Z</time>
      </trkpt>
      <trkpt lat="43.65" lon="1.38103">
        <ele>149</ele>
        <time>2023-04-04T16:10:26Z</time>
      </trkpt>
      <trkpt lat="43.65003" lon="1.38113">
        <ele>149</ele>
        <time>2023-04-04T16:10:27Z</time>
      </trkpt>
      <trkpt lat="43.65005" lon="1.38116">
        <ele>149</ele>
        <time>2023-04-04T16:10:28Z</time>
      </trkpt>
      <trkpt lat="43.65006" lon="1.38119">
        <ele>149</ele>
        <time>2023-04-04T16:10:30Z</time>
      </trkpt>
      <trkpt lat="43.65007" lon="1.38122">
        <ele>149</ele>
        <time>2023-04-04T16:10:31Z</time>
      </trkpt>
      <trkpt lat="43.65008" lon="1.38124">
        <ele>149</ele>
        <time>2023-04-04T16:10:32Z</time>
      </trkpt>
      <trkpt lat="43.65008" lon="1.38127">
        <ele>149</ele>
        <time>2023-04-04T16:10:33Z</time>
      </trkpt>
      <trkpt lat="43.65008" lon="1.3813">
        <ele>149</ele>
        <time>2023-04-04T16:10:34Z</time>
      </trkpt>
      <trkpt lat="43.65008" lon="1.38132">
        <ele>149</ele>
        <time>2023-04-04T16:10:35Z</time>
      </trkpt>
      <trkpt lat="43.65009" lon="1.38143">
        <ele>149</ele>
        <time>2023-04-04T16:10:36Z</time>
      </trkpt>
      <trkpt lat="43.65009" lon="1.38147">
        <ele>149</ele>
        <time>2023-04-04T16:10:37Z</time>
      </trkpt>
      <trkpt lat="43.65008" lon="1.3815">
        <ele>149</ele>
        <time>2023-04-04T16:10:38Z</time>
      </trkpt>
      <trkpt lat="43.65008" lon="1.38153">
        <ele>149</ele>
        <time>2023-04-04T16:10:39Z</time>
      </trkpt>
      <trkpt lat="43.65007" lon="1.38156">
        <ele>149</ele>
        <time>2023-04-04T16:10:40Z</time>
      </trkpt>
      <trkpt lat="43.65006" lon="1.38159">
        <ele>149</ele>
        <time>2023-04-04T16:10:41Z</time>
      </trkpt>
      <trkpt lat="43.65005" lon="1.38163">
        <ele>149</ele>
        <time>2023-04-04T16:10:42Z</time>
      </trkpt>
      <trkpt lat="43.65004" lon="1.38166">
        <ele>149</ele>
        <time>2023-04-04T16:10:43Z</time>
      </trkpt>
      <trkpt lat="43.65004" lon="1.38167">
        <ele>149</ele>
        <time>2023-04-04T16:10:44Z</time>
      </trkpt>
      <trkpt lat="43.65004" lon="1.38168">
        <ele>149</ele>
        <time>2023-04-04T16:10:45Z</time>
      </trkpt>
      <trkpt lat="43.65003" lon="1.38169">
        <ele>149</ele>
        <time>2023-04-04T16:10:46Z</time>
      </trkpt>
      <trkpt lat="43.65003" lon="1.3817">
        <ele>149</ele>
        <time>2023-04-04T16:10:47Z</time>
      </trkpt>
      <trkpt lat="43.65" lon="1.38183">
        <ele>149</ele>
        <time>2023-04-04T16:10:49Z</time>
      </trkpt>
      <trkpt lat="43.65001" lon="1.38186">
        <ele>149</ele>
        <time>2023-04-04T16:10:50Z</time>
      </trkpt>
      <trkpt lat="43.65002" lon="1.38189">
        <ele>149</ele>
        <time>2023-04-04T16:10:51Z</time>
      </trkpt>
      <trkpt lat="43.65002" lon="1.38192">
        <ele>149</ele>
        <time>2023-04-04T16:10:52Z</time>
      </trkpt>
      <trkpt lat="43.65004" lon="1.38196">
        <ele>149</ele>
        <time>2023-04-04T16:10:53Z</time>
      </trkpt>
      <trkpt lat="43.65006" lon="1.38199">
        <ele>150</ele>
        <time>2023-04-04T16:10:54Z</time>
      </trkpt>
      <trkpt lat="43.65008" lon="1.38203">
        <ele>150</ele>
        <time>2023-04-04T16:10:55Z</time>
      </trkpt>
      <trkpt lat="43.65009" lon="1.38204">
        <ele>150</ele>
        <time>2023-04-04T16:10:56Z</time>
      </trkpt>
      <trkpt lat="43.65009" lon="1.38206">
        <ele>150</ele>
        <time>2023-04-04T16:10:57Z</time>
      </trkpt>
      <trkpt lat="43.6501" lon="1.38207">
        <ele>150</ele>
        <time>2023-04-04T16:10:58Z</time>
      </trkpt>
      <trkpt lat="43.65011" lon="1.38209">
        <ele>149</ele>
        <time>2023-04-04T16:10:59Z</time>
      </trkpt>
      <trkpt lat="43.65014" lon="1.38217">
        <ele>149</ele>
        <time>2023-04-04T16:11:00Z</time>
      </trkpt>
      <trkpt lat="43.65015" lon="1.38219">
        <ele>149</ele>
        <time>2023-04-04T16:11:01Z</time>
      </trkpt>
      <trkpt lat="43.65016" lon="1.38221">
        <ele>149</ele>
        <time>2023-04-04T16:11:02Z</time>
      </trkpt>
      <trkpt lat="43.65017" lon="1.38222">
        <ele>149</ele>
        <time>2023-04-04T16:11:03Z</time>
      </trkpt>
      <trkpt lat="43.65021" lon="1.38232">
        <ele>149</ele>
        <time>2023-04-04T16:11:04Z</time>
      </trkpt>
      <trkpt lat="43.65022" lon="1.38234">
        <ele>149</ele>
        <time>2023-04-04T16:11:05Z</time>
      </trkpt>
      <trkpt lat="43.65023" lon="1.38237">
        <ele>149</ele>
        <time>2023-04-04T16:11:06Z</time>
      </trkpt>
      <trkpt lat="43.65024" lon="1.3824">
        <ele>149</ele>
        <time>2023-04-04T16:11:07Z</time>
      </trkpt>
      <trkpt lat="43.65025" lon="1.38243">
        <ele>149</ele>
        <time>2023-04-04T16:11:08Z</time>
      </trkpt>
      <trkpt lat="43.65026" lon="1.38246">
        <ele>149</ele>
        <time>2023-04-04T16:11:09Z</time>
      </trkpt>
      <trkpt lat="43.65027" lon="1.3825">
        <ele>149</ele>
        <time>2023-04-04T16:11:10Z</time>
      </trkpt>
      <trkpt lat="43.65029" lon="1.38253">
        <ele>149</ele>
        <time>2023-04-04T16:11:11Z</time>
      </trkpt>
      <trkpt lat="43.6503" lon="1.38257">
        <ele>149</ele>
        <time>2023-04-04T16:11:12Z</time>
      </trkpt>
      <trkpt lat="43.65031" lon="1.38261">
        <ele>149</ele>
        <time>2023-04-04T16:11:13Z</time>
      </trkpt>
      <trkpt lat="43.65033" lon="1.38265">
        <ele>150</ele>
        <time>2023-04-04T16:11:14Z</time>
      </trkpt>
      <trkpt lat="43.65034" lon="1.38268">
        <ele>150</ele>
        <time>2023-04-04T16:11:15Z</time>
      </trkpt>
      <trkpt lat="43.65035" lon="1.3827">
        <ele>150</ele>
        <time>2023-04-04T16:11:16Z</time>
      </trkpt>
      <trkpt lat="43.65035" lon="1.38272">
        <ele>150</ele>
        <time>2023-04-04T16:11:17Z</time>
      </trkpt>
      <trkpt lat="43.65036" lon="1.38273">
        <ele>150</ele>
        <time>2023-04-04T16:11:18Z</time>
      </trkpt>
      <trkpt lat="43.65037" lon="1.38275">
        <ele>150</ele>
        <time>2023-04-04T16:11:19Z</time>
      </trkpt>
      <trkpt lat="43.6504" lon="1.38285">
        <ele>150</ele>
        <time>2023-04-04T16:11:20Z</time>
      </trkpt>
      <trkpt lat="43.65041" lon="1.38288">
        <ele>150</ele>
        <time>2023-04-04T16:11:21Z</time>
      </trkpt>
      <trkpt lat="43.65042" lon="1.38291">
        <ele>150</ele>
        <time>2023-04-04T16:11:22Z</time>
      </trkpt>
      <trkpt lat="43.65042" lon="1.38294">
        <ele>150</ele>
        <time>2023-04-04T16:11:23Z</time>
      </trkpt>
      <trkpt lat="43.65043" lon="1.38298">
        <ele>150</ele>
        <time>2023-04-04T16:11:24Z</time>
      </trkpt>
      <trkpt lat="43.65044" lon="1.38302">
        <ele>150</ele>
        <time>2023-04-04T16:11:25Z</time>
      </trkpt>
      <trkpt lat="43.65045" lon="1.38306">
        <ele>150</ele>
        <time>2023-04-04T16:11:27Z</time>
      </trkpt>
      <trkpt lat="43.65046" lon="1.38309">
        <ele>150</ele>
        <time>2023-04-04T16:11:28Z</time>
      </trkpt>
      <trkpt lat="43.65047" lon="1.38311">
        <ele>149</ele>
        <time>2023-04-04T16:11:29Z</time>
      </trkpt>
      <trkpt lat="43.65047" lon="1.38313">
        <ele>149</ele>
        <time>2023-04-04T16:11:30Z</time>
      </trkpt>
      <trkpt lat="43.65048" lon="1.38315">
        <ele>149</ele>
        <time>2023-04-04T16:11:31Z</time>
      </trkpt>
      <trkpt lat="43.65052" lon="1.38325">
        <ele>149</ele>
        <time>2023-04-04T16:11:32Z</time>
      </trkpt>
      <trkpt lat="43.65053" lon="1.38329">
        <ele>149</ele>
        <time>2023-04-04T16:11:33Z</time>
      </trkpt>
      <trkpt lat="43.65055" lon="1.38333">
        <ele>149</ele>
        <time>2023-04-04T16:11:34Z</time>
      </trkpt>
      <trkpt lat="43.65055" lon="1.38336">
        <ele>150</ele>
        <time>2023-04-04T16:11:35Z</time>
      </trkpt>
      <trkpt lat="43.65056" lon="1.3834">
        <ele>150</ele>
        <time>2023-04-04T16:11:36Z</time>
      </trkpt>
      <trkpt lat="43.65056" lon="1.38343">
        <ele>150</ele>
        <time>2023-04-04T16:11:37Z</time>
      </trkpt>
      <trkpt lat="43.65057" lon="1.38347">
        <ele>150</ele>
        <time>2023-04-04T16:11:38Z</time>
      </trkpt>
      <trkpt lat="43.65057" lon="1.3835">
        <ele>150</ele>
        <time>2023-04-04T16:11:39Z</time>
      </trkpt>
      <trkpt lat="43.65058" lon="1.38353">
        <ele>150</ele>
        <time>2023-04-04T16:11:40Z</time>
      </trkpt>
      <trkpt lat="43.65059" lon="1.38356">
        <ele>150</ele>
        <time>2023-04-04T16:11:41Z</time>
      </trkpt>
      <trkpt lat="43.6506" lon="1.38359">
        <ele>149</ele>
        <time>2023-04-04T16:11:42Z</time>
      </trkpt>
      <trkpt lat="43.6506" lon="1.38362">
        <ele>149</ele>
        <time>2023-04-04T16:11:43Z</time>
      </trkpt>
      <trkpt lat="43.65061" lon="1.38366">
        <ele>149</ele>
        <time>2023-04-04T16:11:44Z</time>
      </trkpt>
      <trkpt lat="43.65062" lon="1.38369">
        <ele>149</ele>
        <time>2023-04-04T16:11:46Z</time>
      </trkpt>
      <trkpt lat="43.65062" lon="1.38372">
        <ele>148</ele>
        <time>2023-04-04T16:11:47Z</time>
      </trkpt>
      <trkpt lat="43.65063" lon="1.38374">
        <ele>148</ele>
        <time>2023-04-04T16:11:48Z</time>
      </trkpt>
      <trkpt lat="43.65064" lon="1.38376">
        <ele>149</ele>
        <time>2023-04-04T16:11:49Z</time>
      </trkpt>
      <trkpt lat="43.65065" lon="1.38379">
        <ele>149</ele>
        <time>2023-04-04T16:11:50Z</time>
      </trkpt>
      <trkpt lat="43.65069" lon="1.38388">
        <ele>149</ele>
        <time>2023-04-04T16:11:51Z</time>
      </trkpt>
      <trkpt lat="43.65071" lon="1.38391">
        <ele>149</ele>
        <time>2023-04-04T16:11:52Z</time>
      </trkpt>
      <trkpt lat="43.65072" lon="1.38394">
        <ele>149</ele>
        <time>2023-04-04T16:11:53Z</time>
      </trkpt>
      <trkpt lat="43.65073" lon="1.38398">
        <ele>149</ele>
        <time>2023-04-04T16:11:54Z</time>
      </trkpt>
      <trkpt lat="43.65074" lon="1.38399">
        <ele>149</ele>
        <time>2023-04-04T16:11:55Z</time>
      </trkpt>
      <trkpt lat="43.65074" lon="1.38401">
        <ele>149</ele>
        <time>2023-04-04T16:11:56Z</time>
      </trkpt>
      <trkpt lat="43.65075" lon="1.38402">
        <ele>149</ele>
        <time>2023-04-04T16:11:57Z</time>
      </trkpt>
      <trkpt lat="43.65075" lon="1.38404">
        <ele>149</ele>
        <time>2023-04-04T16:11:58Z</time>
      </trkpt>
      <trkpt lat="43.65078" lon="1.38414">
        <ele>149</ele>
        <time>2023-04-04T16:11:59Z</time>
      </trkpt>
      <trkpt lat="43.6508" lon="1.38417">
        <ele>149</ele>
        <time>2023-04-04T16:12:00Z</time>
      </trkpt>
      <trkpt lat="43.65081" lon="1.3842">
        <ele>149</ele>
        <time>2023-04-04T16:12:01Z</time>
      </trkpt>
      <trkpt lat="43.65082" lon="1.38423">
        <ele>149</ele>
        <time>2023-04-04T16:12:02Z</time>
      </trkpt>
      <trkpt lat="43.65083" lon="1.38427">
        <ele>149</ele>
        <time>2023-04-04T16:12:03Z</time>
      </trkpt>
      <trkpt lat="43.65083" lon="1.3843">
        <ele>149</ele>
        <time>2023-04-04T16:12:05Z</time>
      </trkpt>
      <trkpt lat="43.65084" lon="1.38433">
        <ele>149</ele>
        <time>2023-04-04T16:12:06Z</time>
      </trkpt>
      <trkpt lat="43.65084" lon="1.38437">
        <ele>149</ele>
        <time>2023-04-04T16:12:07Z</time>
      </trkpt>
      <trkpt lat="43.65085" lon="1.38439">
        <ele>149</ele>
        <time>2023-04-04T16:12:08Z</time>
      </trkpt>
      <trkpt lat="43.65086" lon="1.38441">
        <ele>149</ele>
        <time>2023-04-04T16:12:09Z</time>
      </trkpt>
      <trkpt lat="43.65086" lon="1.38443">
        <ele>149</ele>
        <time>2023-04-04T16:12:10Z</time>
      </trkpt>
      <trkpt lat="43.65089" lon="1.38454">
        <ele>149</ele>
        <time>2023-04-04T16:12:11Z</time>
      </trkpt>
      <trkpt lat="43.65089" lon="1.38457">
        <ele>149</ele>
        <time>2023-04-04T16:12:12Z</time>
      </trkpt>
      <trkpt lat="43.6509" lon="1.3846">
        <ele>148</ele>
        <time>2023-04-04T16:12:13Z</time>
      </trkpt>
      <trkpt lat="43.65091" lon="1.38464">
        <ele>148</ele>
        <time>2023-04-04T16:12:14Z</time>
      </trkpt>
      <trkpt lat="43.65091" lon="1.38465">
        <ele>148</ele>
        <time>2023-04-04T16:12:15Z</time>
      </trkpt>
      <trkpt lat="43.65092" lon="1.38467">
        <ele>148</ele>
        <time>2023-04-04T16:12:16Z</time>
      </trkpt>
      <trkpt lat="43.65093" lon="1.38469">
        <ele>148</ele>
        <time>2023-04-04T16:12:17Z</time>
      </trkpt>
      <trkpt lat="43.65093" lon="1.3847">
        <ele>148</ele>
        <time>2023-04-04T16:12:18Z</time>
      </trkpt>
      <trkpt lat="43.65096" lon="1.38478">
        <ele>148</ele>
        <time>2023-04-04T16:12:19Z</time>
      </trkpt>
      <trkpt lat="43.65096" lon="1.38479">
        <ele>149</ele>
        <time>2023-04-04T16:12:20Z</time>
      </trkpt>
      <trkpt lat="43.65096" lon="1.3848">
        <ele>149</ele>
        <time>2023-04-04T16:12:21Z</time>
      </trkpt>
      <trkpt lat="43.65097" lon="1.38481">
        <ele>148</ele>
        <time>2023-04-04T16:12:22Z</time>
      </trkpt>
      <trkpt lat="43.651" lon="1.38493">
        <ele>148</ele>
        <time>2023-04-04T16:12:24Z</time>
      </trkpt>
      <trkpt lat="43.65101" lon="1.38497">
        <ele>148</ele>
        <time>2023-04-04T16:12:25Z</time>
      </trkpt>
      <trkpt lat="43.65102" lon="1.385">
        <ele>148</ele>
        <time>2023-04-04T16:12:26Z</time>
      </trkpt>
      <trkpt lat="43.65103" lon="1.38503">
        <ele>148</ele>
        <time>2023-04-04T16:12:27Z</time>
      </trkpt>
      <trkpt lat="43.65104" lon="1.38507">
        <ele>148</ele>
        <time>2023-04-04T16:12:28Z</time>
      </trkpt>
      <trkpt lat="43.65105" lon="1.38511">
        <ele>148</ele>
        <time>2023-04-04T16:12:29Z</time>
      </trkpt>
      <trkpt lat="43.65105" lon="1.38515">
        <ele>148</ele>
        <time>2023-04-04T16:12:30Z</time>
      </trkpt>
      <trkpt lat="43.65105" lon="1.38517">
        <ele>148</ele>
        <time>2023-04-04T16:12:31Z</time>
      </trkpt>
      <trkpt lat="43.65105" lon="1.38519">
        <ele>148</ele>
        <time>2023-04-04T16:12:32Z</time>
      </trkpt>
      <trkpt lat="43.65104" lon="1.38521">
        <ele>148</ele>
        <time>2023-04-04T16:12:33Z</time>
      </trkpt>
      <trkpt lat="43.65104" lon="1.38522">
        <ele>148</ele>
        <time>2023-04-04T16:12:34Z</time>
      </trkpt>
      <trkpt lat="43.65102" lon="1.38531">
        <ele>148</ele>
        <time>2023-04-04T16:12:35Z</time>
      </trkpt>
      <trkpt lat="43.65102" lon="1.38532">
        <ele>148</ele>
        <time>2023-04-04T16:12:36Z</time>
      </trkpt>
      <trkpt lat="43.65102" lon="1.38534">
        <ele>148</ele>
        <time>2023-04-04T16:12:37Z</time>
      </trkpt>
      <trkpt lat="43.65102" lon="1.38535">
        <ele>147</ele>
        <time>2023-04-04T16:12:38Z</time>
      </trkpt>
      <trkpt lat="43.65103" lon="1.38537">
        <ele>147</ele>
        <time>2023-04-04T16:12:39Z</time>
      </trkpt>
      <trkpt lat="43.65104" lon="1.38545">
        <ele>147</ele>
        <time>2023-04-04T16:12:40Z</time>
      </trkpt>
      <trkpt lat="43.65105" lon="1.38546">
        <ele>147</ele>
        <time>2023-04-04T16:12:41Z</time>
      </trkpt>
      <trkpt lat="43.65106" lon="1.38547">
        <ele>148</ele>
        <time>2023-04-04T16:12:43Z</time>
      </trkpt>
      <trkpt lat="43.65107" lon="1.38548">
        <ele>148</ele>
        <time>2023-04-04T16:12:44Z</time>
      </trkpt>
      <trkpt lat="43.65108" lon="1.38549">
        <ele>148</ele>
        <time>2023-04-04T16:12:45Z</time>
      </trkpt>
      <trkpt lat="43.65114" lon="1.38556">
        <ele>148</ele>
        <time>2023-04-04T16:12:46Z</time>
      </trkpt>
      <trkpt lat="43.65116" lon="1.38559">
        <ele>148</ele>
        <time>2023-04-04T16:12:47Z</time>
      </trkpt>
      <trkpt lat="43.65117" lon="1.38561">
        <ele>148</ele>
        <time>2023-04-04T16:12:48Z</time>
      </trkpt>
      <trkpt lat="43.65119" lon="1.38564">
        <ele>148</ele>
        <time>2023-04-04T16:12:49Z</time>
      </trkpt>
      <trkpt lat="43.65121" lon="1.38568">
        <ele>148</ele>
        <time>2023-04-04T16:12:50Z</time>
      </trkpt>
      <trkpt lat="43.65122" lon="1.38572">
        <ele>148</ele>
        <time>2023-04-04T16:12:51Z</time>
      </trkpt>
      <trkpt lat="43.65124" lon="1.38576">
        <ele>148</ele>
        <time>2023-04-04T16:12:52Z</time>
      </trkpt>
      <trkpt lat="43.65124" lon="1.38578">
        <ele>148</ele>
        <time>2023-04-04T16:12:53Z</time>
      </trkpt>
      <trkpt lat="43.65125" lon="1.38579">
        <ele>148</ele>
        <time>2023-04-04T16:12:54Z</time>
      </trkpt>
      <trkpt lat="43.65125" lon="1.38581">
        <ele>148</ele>
        <time>2023-04-04T16:12:55Z</time>
      </trkpt>
      <trkpt lat="43.65126" lon="1.38582">
        <ele>148</ele>
        <time>2023-04-04T16:12:56Z</time>
      </trkpt>
      <trkpt lat="43.65129" lon="1.38592">
        <ele>148</ele>
        <time>2023-04-04T16:12:57Z</time>
      </trkpt>
      <trkpt lat="43.6513" lon="1.38596">
        <ele>148</ele>
        <time>2023-04-04T16:12:58Z</time>
      </trkpt>
      <trkpt lat="43.65131" lon="1.38599">
        <ele>148</ele>
        <time>2023-04-04T16:12:59Z</time>
      </trkpt>
      <trkpt lat="43.65132" lon="1.38602">
        <ele>148</ele>
        <time>2023-04-04T16:13:00Z</time>
      </trkpt>
      <trkpt lat="43.65132" lon="1.38605">
        <ele>148</ele>
        <time>2023-04-04T16:13:02Z</time>
      </trkpt>
      <trkpt lat="43.65132" lon="1.38607">
        <ele>148</ele>
        <time>2023-04-04T16:13:03Z</time>
      </trkpt>
      <trkpt lat="43.65133" lon="1.3861">
        <ele>147</ele>
        <time>2023-04-04T16:13:04Z</time>
      </trkpt>
      <trkpt lat="43.65134" lon="1.3862">
        <ele>147</ele>
        <time>2023-04-04T16:13:05Z</time>
      </trkpt>
      <trkpt lat="43.65135" lon="1.38623">
        <ele>147</ele>
        <time>2023-04-04T16:13:06Z</time>
      </trkpt>
      <trkpt lat="43.65135" lon="1.38626">
        <ele>147</ele>
        <time>2023-04-04T16:13:07Z</time>
      </trkpt>
      <trkpt lat="43.65135" lon="1.38629">
        <ele>147</ele>
        <time>2023-04-04T16:13:08Z</time>
      </trkpt>
      <trkpt lat="43.65135" lon="1.38632">
        <ele>147</ele>
        <time>2023-04-04T16:13:09Z</time>
      </trkpt>
      <trkpt lat="43.65136" lon="1.38637">
        <ele>147</ele>
        <time>2023-04-04T16:13:10Z</time>
      </trkpt>
      <trkpt lat="43.65138" lon="1.38641">
        <ele>147</ele>
        <time>2023-04-04T16:13:11Z</time>
      </trkpt>
      <trkpt lat="43.65139" lon="1.38646">
        <ele>147</ele>
        <time>2023-04-04T16:13:12Z</time>
      </trkpt>
      <trkpt lat="43.6514" lon="1.38649">
        <ele>147</ele>
        <time>2023-04-04T16:13:13Z</time>
      </trkpt>
      <trkpt lat="43.65141" lon="1.38652">
        <ele>147</ele>
        <time>2023-04-04T16:13:14Z</time>
      </trkpt>
      <trkpt lat="43.65142" lon="1.38655">
        <ele>147</ele>
        <time>2023-04-04T16:13:15Z</time>
      </trkpt>
      <trkpt lat="43.65143" lon="1.38657">
        <ele>147</ele>
        <time>2023-04-04T16:13:16Z</time>
      </trkpt>
      <trkpt lat="43.65143" lon="1.3866">
        <ele>147</ele>
        <time>2023-04-04T16:13:17Z</time>
      </trkpt>
      <trkpt lat="43.65144" lon="1.38663">
        <ele>147</ele>
        <time>2023-04-04T16:13:18Z</time>
      </trkpt>
      <trkpt lat="43.65145" lon="1.38666">
        <ele>147</ele>
        <time>2023-04-04T16:13:19Z</time>
      </trkpt>
      <trkpt lat="43.65146" lon="1.38668">
        <ele>147</ele>
        <time>2023-04-04T16:13:20Z</time>
      </trkpt>
      <trkpt lat="43.65147" lon="1.38671">
        <ele>147</ele>
        <time>2023-04-04T16:13:21Z</time>
      </trkpt>
      <trkpt lat="43.65149" lon="1.38674">
        <ele>147</ele>
        <time>2023-04-04T16:13:22Z</time>
      </trkpt>
      <trkpt lat="43.6515" lon="1.38678">
        <ele>147</ele>
        <time>2023-04-04T16:13:23Z</time>
      </trkpt>
      <trkpt lat="43.65151" lon="1.38681">
        <ele>147</ele>
        <time>2023-04-04T16:13:24Z</time>
      </trkpt>
      <trkpt lat="43.65152" lon="1.38685">
        <ele>147</ele>
        <time>2023-04-04T16:13:25Z</time>
      </trkpt>
      <trkpt lat="43.65154" lon="1.38688">
        <ele>147</ele>
        <time>2023-04-04T16:13:26Z</time>
      </trkpt>
      <trkpt lat="43.65155" lon="1.38692">
        <ele>147</ele>
        <time>2023-04-04T16:13:27Z</time>
      </trkpt>
      <trkpt lat="43.65156" lon="1.38696">
        <ele>147</ele>
        <time>2023-04-04T16:13:28Z</time>
      </trkpt>
      <trkpt lat="43.65158" lon="1.38699">
        <ele>147</ele>
        <time>2023-04-04T16:13:29Z</time>
      </trkpt>
      <trkpt lat="43.65159" lon="1.38703">
        <ele>147</ele>
        <time>2023-04-04T16:13:30Z</time>
      </trkpt>
      <trkpt lat="43.65161" lon="1.38707">
        <ele>147</ele>
        <time>2023-04-04T16:13:31Z</time>
      </trkpt>
      <trkpt lat="43.65161" lon="1.38708">
        <ele>147</ele>
        <time>2023-04-04T16:13:32Z</time>
      </trkpt>
      <trkpt lat="43.65162" lon="1.3871">
        <ele>147</ele>
        <time>2023-04-04T16:13:33Z</time>
      </trkpt>
      <trkpt lat="43.65162" lon="1.38712">
        <ele>148</ele>
        <time>2023-04-04T16:13:34Z</time>
      </trkpt>
      <trkpt lat="43.65163" lon="1.38714">
        <ele>148</ele>
        <time>2023-04-04T16:13:35Z</time>
      </trkpt>
      <trkpt lat="43.65166" lon="1.38724">
        <ele>148</ele>
        <time>2023-04-04T16:13:36Z</time>
      </trkpt>
      <trkpt lat="43.65167" lon="1.38726">
        <ele>148</ele>
        <time>2023-04-04T16:13:37Z</time>
      </trkpt>
      <trkpt lat="43.65168" lon="1.38729">
        <ele>148</ele>
        <time>2023-04-04T16:13:38Z</time>
      </trkpt>
      <trkpt lat="43.65169" lon="1.38732">
        <ele>148</ele>
        <time>2023-04-04T16:13:39Z</time>
      </trkpt>
      <trkpt lat="43.6517" lon="1.38734">
        <ele>148</ele>
        <time>2023-04-04T16:13:40Z</time>
      </trkpt>
      <trkpt lat="43.65171" lon="1.38738">
        <ele>149</ele>
        <time>2023-04-04T16:13:41Z</time>
      </trkpt>
      <trkpt lat="43.65172" lon="1.38741">
        <ele>149</ele>
        <time>2023-04-04T16:13:42Z</time>
      </trkpt>
      <trkpt lat="43.65173" lon="1.38744">
        <ele>149</ele>
        <time>2023-04-04T16:13:43Z</time>
      </trkpt>
      <trkpt lat="43.65174" lon="1.38748">
        <ele>148</ele>
        <time>2023-04-04T16:13:44Z</time>
      </trkpt>
      <trkpt lat="43.65175" lon="1.3875">
        <ele>148</ele>
        <time>2023-04-04T16:13:45Z</time>
      </trkpt>
      <trkpt lat="43.65176" lon="1.38752">
        <ele>148</ele>
        <time>2023-04-04T16:13:46Z</time>
      </trkpt>
      <trkpt lat="43.65176" lon="1.38754">
        <ele>148</ele>
        <time>2023-04-04T16:13:47Z</time>
      </trkpt>
      <trkpt lat="43.6518" lon="1.38763">
        <ele>148</ele>
        <time>2023-04-04T16:13:48Z</time>
      </trkpt>
      <trkpt lat="43.65181" lon="1.38765">
        <ele>148</ele>
        <time>2023-04-04T16:13:49Z</time>
      </trkpt>
      <trkpt lat="43.65182" lon="1.38766">
        <ele>148</ele>
        <time>2023-04-04T16:13:50Z</time>
      </trkpt>
      <trkpt lat="43.65182" lon="1.38768">
        <ele>148</ele>
        <time>2023-04-04T16:13:51Z</time>
      </trkpt>
      <trkpt lat="43.65188" lon="1.38777">
        <ele>147</ele>
        <time>2023-04-04T16:13:52Z</time>
      </trkpt>
      <trkpt lat="43.65189" lon="1.38779">
        <ele>147</ele>
        <time>2023-04-04T16:13:53Z</time>
      </trkpt>
      <trkpt lat="43.65191" lon="1.38781">
        <ele>148</ele>
        <time>2023-04-04T16:13:54Z</time>
      </trkpt>
      <trkpt lat="43.65192" lon="1.38784">
        <ele>148</ele>
        <time>2023-04-04T16:13:55Z</time>
      </trkpt>
      <trkpt lat="43.65192" lon="1.38784">
        <ele>148</ele>
        <time>2023-04-04T16:13:56Z</time>
      </trkpt>
      <trkpt lat="43.65192" lon="1.38784">
        <ele>148</ele>
        <time>2023-04-04T16:13:57Z</time>
      </trkpt>
      <trkpt lat="43.65199" lon="1.38793">
        <ele>148</ele>
        <time>2023-04-04T16:13:59Z</time>
      </trkpt>
      <trkpt lat="43.65201" lon="1.38795">
        <ele>148</ele>
        <time>2023-04-04T16:14:00Z</time>
      </trkpt>
      <trkpt lat="43.65202" lon="1.38797">
        <ele>148</ele>
        <time>2023-04-04T16:14:01Z</time>
      </trkpt>
      <trkpt lat="43.65203" lon="1.38799">
        <ele>148</ele>
        <time>2023-04-04T16:14:02Z</time>
      </trkpt>
      <trkpt lat="43.65205" lon="1.38801">
        <ele>148</ele>
        <time>2023-04-04T16:14:03Z</time>
      </trkpt>
      <trkpt lat="43.65206" lon="1.38803">
        <ele>147</ele>
        <time>2023-04-04T16:14:04Z</time>
      </trkpt>
      <trkpt lat="43.65209" lon="1.38808">
        <ele>146</ele>
        <time>2023-04-04T16:14:05Z</time>
      </trkpt>
      <trkpt lat="43.65212" lon="1.38813">
        <ele>147</ele>
        <time>2023-04-04T16:14:06Z</time>
      </trkpt>
      <trkpt lat="43.65213" lon="1.38814">
        <ele>147</ele>
        <time>2023-04-04T16:14:07Z</time>
      </trkpt>
      <trkpt lat="43.65213" lon="1.38815">
        <ele>147</ele>
        <time>2023-04-04T16:14:08Z</time>
      </trkpt>
      <trkpt lat="43.65214" lon="1.38816">
        <ele>147</ele>
        <time>2023-04-04T16:14:09Z</time>
      </trkpt>
      <trkpt lat="43.65215" lon="1.38818">
        <ele>147</ele>
        <time>2023-04-04T16:14:10Z</time>
      </trkpt>
      <trkpt lat="43.65216" lon="1.38819">
        <ele>146</ele>
        <time>2023-04-04T16:14:11Z</time>
      </trkpt>
      <trkpt lat="43.6522" lon="1.38826">
        <ele>146</ele>
        <time>2023-04-04T16:14:12Z</time>
      </trkpt>
      <trkpt lat="43.65221" lon="1.38828">
        <ele>146</ele>
        <time>2023-04-04T16:14:13Z</time>
      </trkpt>
      <trkpt lat="43.65222" lon="1.38829">
        <ele>146</ele>
        <time>2023-04-04T16:14:14Z</time>
      </trkpt>
      <trkpt lat="43.65223" lon="1.3883">
        <ele>146</ele>
        <time>2023-04-04T16:14:15Z</time>
      </trkpt>
      <trkpt lat="43.65228" lon="1.38837">
        <ele>146</ele>
        <time>2023-04-04T16:14:16Z</time>
      </trkpt>
      <trkpt lat="43.6523" lon="1.38839">
        <ele>146</ele>
        <time>2023-04-04T16:14:18Z</time>
      </trkpt>
      <trkpt lat="43.65231" lon="1.3884">
        <ele>146</ele>
        <time>2023-04-04T16:14:19Z</time>
      </trkpt>
      <trkpt lat="43.65237" lon="1.38848">
        <ele>146</ele>
        <time>2023-04-04T16:14:20Z</time>
      </trkpt>
      <trkpt lat="43.65238" lon="1.3885">
        <ele>146</ele>
        <time>2023-04-04T16:14:21Z</time>
      </trkpt>
      <trkpt lat="43.65239" lon="1.38852">
        <ele>146</ele>
        <time>2023-04-04T16:14:22Z</time>
      </trkpt>
      <trkpt lat="43.65241" lon="1.38854">
        <ele>146</ele>
        <time>2023-04-04T16:14:23Z</time>
      </trkpt>
      <trkpt lat="43.65242" lon="1.38856">
        <ele>145</ele>
        <time>2023-04-04T16:14:24Z</time>
      </trkpt>
      <trkpt lat="43.65246" lon="1.3886">
        <ele>145</ele>
        <time>2023-04-04T16:14:25Z</time>
      </trkpt>
      <trkpt lat="43.6525" lon="1.38863">
        <ele>144</ele>
        <time>2023-04-04T16:14:26Z</time>
      </trkpt>
      <trkpt lat="43.65251" lon="1.38864">
        <ele>144</ele>
        <time>2023-04-04T16:14:27Z</time>
      </trkpt>
      <trkpt lat="43.65252" lon="1.38865">
        <ele>144</ele>
        <time>2023-04-04T16:14:28Z</time>
      </trkpt>
      <trkpt lat="43.65253" lon="1.38866">
        <ele>144</ele>
        <time>2023-04-04T16:14:29Z</time>
      </trkpt>
      <trkpt lat="43.65255" lon="1.38867">
        <ele>144</ele>
        <time>2023-04-04T16:14:30Z</time>
      </trkpt>
      <trkpt lat="43.65262" lon="1.38874">
        <ele>144</ele>
        <time>2023-04-04T16:14:31Z</time>
      </trkpt>
      <trkpt lat="43.65264" lon="1.38876">
        <ele>144</ele>
        <time>2023-04-04T16:14:32Z</time>
      </trkpt>
      <trkpt lat="43.65267" lon="1.38879">
        <ele>143</ele>
        <time>2023-04-04T16:14:33Z</time>
      </trkpt>
      <trkpt lat="43.65267" lon="1.38879">
        <ele>143</ele>
        <time>2023-04-04T16:14:34Z</time>
      </trkpt>
      <trkpt lat="43.65267" lon="1.38879">
        <ele>143</ele>
        <time>2023-04-04T16:14:35Z</time>
      </trkpt>
      <trkpt lat="43.65273" lon="1.38891">
        <ele>142</ele>
        <time>2023-04-04T16:14:37Z</time>
      </trkpt>
      <trkpt lat="43.65273" lon="1.38891">
        <ele>142</ele>
        <time>2023-04-04T16:14:38Z</time>
      </trkpt>
      <trkpt lat="43.65273" lon="1.38891">
        <ele>142</ele>
        <time>2023-04-04T16:14:39Z</time>
      </trkpt>
      <trkpt lat="43.65277" lon="1.38903">
        <ele>141</ele>
        <time>2023-04-04T16:14:40Z</time>
      </trkpt>
      <trkpt lat="43.65277" lon="1.38903">
        <ele>141</ele>
        <time>2023-04-04T16:14:42Z</time>
      </trkpt>
      <trkpt lat="43.65278" lon="1.38904">
        <ele>141</ele>
        <time>2023-04-04T16:14:43Z</time>
      </trkpt>
      <trkpt lat="43.65279" lon="1.38906">
        <ele>141</ele>
        <time>2023-04-04T16:14:44Z</time>
      </trkpt>
      <trkpt lat="43.65281" lon="1.38907">
        <ele>141</ele>
        <time>2023-04-04T16:14:45Z</time>
      </trkpt>
      <trkpt lat="43.65287" lon="1.38914">
        <ele>140</ele>
        <time>2023-04-04T16:14:46Z</time>
      </trkpt>
      <trkpt lat="43.65289" lon="1.38916">
        <ele>140</ele>
        <time>2023-04-04T16:14:47Z</time>
      </trkpt>
      <trkpt lat="43.65291" lon="1.38918">
        <ele>140</ele>
        <time>2023-04-04T16:14:48Z</time>
      </trkpt>
      <trkpt lat="43.65293" lon="1.3892">
        <ele>140</ele>
        <time>2023-04-04T16:14:49Z</time>
      </trkpt>
      <trkpt lat="43.65294" lon="1.38921">
        <ele>140</ele>
        <time>2023-04-04T16:14:50Z</time>
      </trkpt>
      <trkpt lat="43.65295" lon="1.38922">
        <ele>140</ele>
        <time>2023-04-04T16:14:51Z</time>
      </trkpt>
      <trkpt lat="43.65296" lon="1.38923">
        <ele>140</ele>
        <time>2023-04-04T16:14:52Z</time>
      </trkpt>
      <trkpt lat="43.65298" lon="1.38924">
        <ele>139</ele>
        <time>2023-04-04T16:14:53Z</time>
      </trkpt>
      <trkpt lat="43.65305" lon="1.3893">
        <ele>139</ele>
        <time>2023-04-04T16:14:54Z</time>
      </trkpt>
      <trkpt lat="43.65307" lon="1.38933">
        <ele>138</ele>
        <time>2023-04-04T16:14:56Z</time>
      </trkpt>
      <trkpt lat="43.65309" lon="1.38935">
        <ele>138</ele>
        <time>2023-04-04T16:14:57Z</time>
      </trkpt>
      <trkpt lat="43.65311" lon="1.38938">
        <ele>137</ele>
        <time>2023-04-04T16:14:58Z</time>
      </trkpt>
      <trkpt lat="43.65312" lon="1.3894">
        <ele>137</ele>
        <time>2023-04-04T16:14:59Z</time>
      </trkpt>
      <trkpt lat="43.65313" lon="1.38943">
        <ele>136</ele>
        <time>2023-04-04T16:15:00Z</time>
      </trkpt>
      <trkpt lat="43.65314" lon="1.38945">
        <ele>136</ele>
        <time>2023-04-04T16:15:01Z</time>
      </trkpt>
      <trkpt lat="43.65317" lon="1.38953">
        <ele>135</ele>
        <time>2023-04-04T16:15:02Z</time>
      </trkpt>
      <trkpt lat="43.65318" lon="1.38955">
        <ele>135</ele>
        <time>2023-04-04T16:15:03Z</time>
      </trkpt>
      <trkpt lat="43.65318" lon="1.38957">
        <ele>134</ele>
        <time>2023-04-04T16:15:04Z</time>
      </trkpt>
      <trkpt lat="43.65319" lon="1.38959">
        <ele>134</ele>
        <time>2023-04-04T16:15:05Z</time>
      </trkpt>
      <trkpt lat="43.65321" lon="1.38968">
        <ele>134</ele>
        <time>2023-04-04T16:15:06Z</time>
      </trkpt>
      <trkpt lat="43.65321" lon="1.3897">
        <ele>134</ele>
        <time>2023-04-04T16:15:07Z</time>
      </trkpt>
      <trkpt lat="43.65322" lon="1.38971">
        <ele>133</ele>
        <time>2023-04-04T16:15:08Z</time>
      </trkpt>
      <trkpt lat="43.65323" lon="1.38973">
        <ele>133</ele>
        <time>2023-04-04T16:15:09Z</time>
      </trkpt>
      <trkpt lat="43.65327" lon="1.3898">
        <ele>133</ele>
        <time>2023-04-04T16:15:10Z</time>
      </trkpt>
      <trkpt lat="43.65328" lon="1.38981">
        <ele>133</ele>
        <time>2023-04-04T16:15:11Z</time>
      </trkpt>
      <trkpt lat="43.6533" lon="1.38982">
        <ele>133</ele>
        <time>2023-04-04T16:15:12Z</time>
      </trkpt>
      <trkpt lat="43.65332" lon="1.38983">
        <ele>132</ele>
        <time>2023-04-04T16:15:13Z</time>
      </trkpt>
      <trkpt lat="43.65333" lon="1.38984">
        <ele>132</ele>
        <time>2023-04-04T16:15:14Z</time>
      </trkpt>
      <trkpt lat="43.65335" lon="1.38985">
        <ele>132</ele>
        <time>2023-04-04T16:15:15Z</time>
      </trkpt>
      <trkpt lat="43.65338" lon="1.38984">
        <ele>132</ele>
        <time>2023-04-04T16:15:16Z</time>
      </trkpt>
      <trkpt lat="43.65341" lon="1.38984">
        <ele>128</ele>
        <time>2023-04-04T16:15:17Z</time>
      </trkpt>
      <trkpt lat="43.65345" lon="1.38984">
        <ele>128</ele>
        <time>2023-04-04T16:15:18Z</time>
      </trkpt>
      <trkpt lat="43.65348" lon="1.38984">
        <ele>128</ele>
        <time>2023-04-04T16:15:19Z</time>
      </trkpt>
      <trkpt lat="43.65349" lon="1.38984">
        <ele>128</ele>
        <time>2023-04-04T16:15:20Z</time>
      </trkpt>
      <trkpt lat="43.65351" lon="1.38985">
        <ele>128</ele>
        <time>2023-04-04T16:15:21Z</time>
      </trkpt>
      <trkpt lat="43.65353" lon="1.38986">
        <ele>128</ele>
        <time>2023-04-04T16:15:22Z</time>
      </trkpt>
      <trkpt lat="43.65359" lon="1.38988">
        <ele>128</ele>
        <time>2023-04-04T16:15:23Z</time>
      </trkpt>
      <trkpt lat="43.65361" lon="1.38989">
        <ele>128</ele>
        <time>2023-04-04T16:15:24Z</time>
      </trkpt>
      <trkpt lat="43.65362" lon="1.3899">
        <ele>127</ele>
        <time>2023-04-04T16:15:25Z</time>
      </trkpt>
      <trkpt lat="43.65363" lon="1.3899">
        <ele>127</ele>
        <time>2023-04-04T16:15:26Z</time>
      </trkpt>
      <trkpt lat="43.65371" lon="1.38995">
        <ele>127</ele>
        <time>2023-04-04T16:15:27Z</time>
      </trkpt>
      <trkpt lat="43.65374" lon="1.38997">
        <ele>127</ele>
        <time>2023-04-04T16:15:28Z</time>
      </trkpt>
      <trkpt lat="43.65376" lon="1.38999">
        <ele>127</ele>
        <time>2023-04-04T16:15:29Z</time>
      </trkpt>
      <trkpt lat="43.65379" lon="1.39001">
        <ele>127</ele>
        <time>2023-04-04T16:15:30Z</time>
      </trkpt>
      <trkpt lat="43.65381" lon="1.39004">
        <ele>127</ele>
        <time>2023-04-04T16:15:31Z</time>
      </trkpt>
      <trkpt lat="43.65384" lon="1.39007">
        <ele>127</ele>
        <time>2023-04-04T16:15:32Z</time>
      </trkpt>
      <trkpt lat="43.65386" lon="1.3901">
        <ele>127</ele>
        <time>2023-04-04T16:15:34Z</time>
      </trkpt>
      <trkpt lat="43.65388" lon="1.39013">
        <ele>127</ele>
        <time>2023-04-04T16:15:35Z</time>
      </trkpt>
      <trkpt lat="43.65391" lon="1.39016">
        <ele>128</ele>
        <time>2023-04-04T16:15:36Z</time>
      </trkpt>
      <trkpt lat="43.65391" lon="1.39018">
        <ele>128</ele>
        <time>2023-04-04T16:15:37Z</time>
      </trkpt>
      <trkpt lat="43.65392" lon="1.3902">
        <ele>128</ele>
        <time>2023-04-04T16:15:38Z</time>
      </trkpt>
      <trkpt lat="43.65393" lon="1.39023">
        <ele>128</ele>
        <time>2023-04-04T16:15:39Z</time>
      </trkpt>
      <trkpt lat="43.65396" lon="1.39032">
        <ele>127</ele>
        <time>2023-04-04T16:15:40Z</time>
      </trkpt>
      <trkpt lat="43.65396" lon="1.39033">
        <ele>127</ele>
        <time>2023-04-04T16:15:41Z</time>
      </trkpt>
      <trkpt lat="43.65397" lon="1.39035">
        <ele>127</ele>
        <time>2023-04-04T16:15:42Z</time>
      </trkpt>
      <trkpt lat="43.65398" lon="1.39037">
        <ele>127</ele>
        <time>2023-04-04T16:15:43Z</time>
      </trkpt>
      <trkpt lat="43.65401" lon="1.39047">
        <ele>127</ele>
        <time>2023-04-04T16:15:44Z</time>
      </trkpt>
      <trkpt lat="43.65403" lon="1.3905">
        <ele>127</ele>
        <time>2023-04-04T16:15:45Z</time>
      </trkpt>
      <trkpt lat="43.65404" lon="1.39053">
        <ele>126</ele>
        <time>2023-04-04T16:15:46Z</time>
      </trkpt>
      <trkpt lat="43.65405" lon="1.39056">
        <ele>127</ele>
        <time>2023-04-04T16:15:47Z</time>
      </trkpt>
      <trkpt lat="43.65406" lon="1.39057">
        <ele>127</ele>
        <time>2023-04-04T16:15:48Z</time>
      </trkpt>
      <trkpt lat="43.65406" lon="1.39058">
        <ele>127</ele>
        <time>2023-04-04T16:15:49Z</time>
      </trkpt>
      <trkpt lat="43.65407" lon="1.39059">
        <ele>127</ele>
        <time>2023-04-04T16:15:50Z</time>
      </trkpt>
      <trkpt lat="43.65407" lon="1.3906">
        <ele>127</ele>
        <time>2023-04-04T16:15:51Z</time>
      </trkpt>
      <trkpt lat="43.65412" lon="1.39071">
        <ele>126</ele>
        <time>2023-04-04T16:15:53Z</time>
      </trkpt>
      <trkpt lat="43.65414" lon="1.39075">
        <ele>126</ele>
        <time>2023-04-04T16:15:54Z</time>
      </trkpt>
      <trkpt lat="43.65415" lon="1.39078">
        <ele>126</ele>
        <time>2023-04-04T16:15:55Z</time>
      </trkpt>
      <trkpt lat="43.65417" lon="1.39081">
        <ele>126</ele>
        <time>2023-04-04T16:15:56Z</time>
      </trkpt>
      <trkpt lat="43.65417" lon="1.39084">
        <ele>126</ele>
        <time>2023-04-04T16:15:57Z</time>
      </trkpt>
      <trkpt lat="43.65418" lon="1.39086">
        <ele>127</ele>
        <time>2023-04-04T16:15:58Z</time>
      </trkpt>
      <trkpt lat="43.65419" lon="1.39088">
        <ele>127</ele>
        <time>2023-04-04T16:15:59Z</time>
      </trkpt>
      <trkpt lat="43.65423" lon="1.39098">
        <ele>127</ele>
        <time>2023-04-04T16:16:00Z</time>
      </trkpt>
      <trkpt lat="43.65424" lon="1.39102">
        <ele>127</ele>
        <time>2023-04-04T16:16:01Z</time>
      </trkpt>
      <trkpt lat="43.65425" lon="1.39106">
        <ele>127</ele>
        <time>2023-04-04T16:16:02Z</time>
      </trkpt>
      <trkpt lat="43.65425" lon="1.39107">
        <ele>126</ele>
        <time>2023-04-04T16:16:03Z</time>
      </trkpt>
      <trkpt lat="43.65426" lon="1.39109">
        <ele>126</ele>
        <time>2023-04-04T16:16:04Z</time>
      </trkpt>
      <trkpt lat="43.65426" lon="1.39111">
        <ele>126</ele>
        <time>2023-04-04T16:16:05Z</time>
      </trkpt>
      <trkpt lat="43.65427" lon="1.39113">
        <ele>126</ele>
        <time>2023-04-04T16:16:06Z</time>
      </trkpt>
      <trkpt lat="43.65429" lon="1.39123">
        <ele>126</ele>
        <time>2023-04-04T16:16:07Z</time>
      </trkpt>
      <trkpt lat="43.65429" lon="1.39126">
        <ele>126</ele>
        <time>2023-04-04T16:16:08Z</time>
      </trkpt>
      <trkpt lat="43.6543" lon="1.39129">
        <ele>126</ele>
        <time>2023-04-04T16:16:09Z</time>
      </trkpt>
      <trkpt lat="43.6543" lon="1.39132">
        <ele>126</ele>
        <time>2023-04-04T16:16:10Z</time>
      </trkpt>
      <trkpt lat="43.65431" lon="1.39136">
        <ele>126</ele>
        <time>2023-04-04T16:16:12Z</time>
      </trkpt>
      <trkpt lat="43.65431" lon="1.39139">
        <ele>126</ele>
        <time>2023-04-04T16:16:13Z</time>
      </trkpt>
      <trkpt lat="43.65433" lon="1.39148">
        <ele>126</ele>
        <time>2023-04-04T16:16:14Z</time>
      </trkpt>
      <trkpt lat="43.65434" lon="1.3915">
        <ele>126</ele>
        <time>2023-04-04T16:16:15Z</time>
      </trkpt>
      <trkpt lat="43.65434" lon="1.39152">
        <ele>126</ele>
        <time>2023-04-04T16:16:16Z</time>
      </trkpt>
      <trkpt lat="43.65435" lon="1.39153">
        <ele>126</ele>
        <time>2023-04-04T16:16:17Z</time>
      </trkpt>
      <trkpt lat="43.65438" lon="1.39162">
        <ele>126</ele>
        <time>2023-04-04T16:16:18Z</time>
      </trkpt>
      <trkpt lat="43.65439" lon="1.39164">
        <ele>126</ele>
        <time>2023-04-04T16:16:20Z</time>
      </trkpt>
      <trkpt lat="43.6544" lon="1.39166">
        <ele>126</ele>
        <time>2023-04-04T16:16:21Z</time>
      </trkpt>
      <trkpt lat="43.65444" lon="1.39173">
        <ele>126</ele>
        <time>2023-04-04T16:16:22Z</time>
      </trkpt>
      <trkpt lat="43.65445" lon="1.39175">
        <ele>126</ele>
        <time>2023-04-04T16:16:23Z</time>
      </trkpt>
      <trkpt lat="43.65446" lon="1.39176">
        <ele>126</ele>
        <time>2023-04-04T16:16:24Z</time>
      </trkpt>
      <trkpt lat="43.65447" lon="1.39178">
        <ele>126</ele>
        <time>2023-04-04T16:16:25Z</time>
      </trkpt>
      <trkpt lat="43.65452" lon="1.39186">
        <ele>126</ele>
        <time>2023-04-04T16:16:26Z</time>
      </trkpt>
      <trkpt lat="43.65453" lon="1.39188">
        <ele>126</ele>
        <time>2023-04-04T16:16:27Z</time>
      </trkpt>
      <trkpt lat="43.65454" lon="1.3919">
        <ele>126</ele>
        <time>2023-04-04T16:16:28Z</time>
      </trkpt>
      <trkpt lat="43.65455" lon="1.39193">
        <ele>126</ele>
        <time>2023-04-04T16:16:29Z</time>
      </trkpt>
      <trkpt lat="43.65456" lon="1.39195">
        <ele>126</ele>
        <time>2023-04-04T16:16:30Z</time>
      </trkpt>
      <trkpt lat="43.65457" lon="1.39197">
        <ele>126</ele>
        <time>2023-04-04T16:16:31Z</time>
      </trkpt>
      <trkpt lat="43.65457" lon="1.39198">
        <ele>126</ele>
        <time>2023-04-04T16:16:32Z</time>
      </trkpt>
      <trkpt lat="43.65458" lon="1.392">
        <ele>127</ele>
        <time>2023-04-04T16:16:33Z</time>
      </trkpt>
      <trkpt lat="43.65459" lon="1.39201">
        <ele>127</ele>
        <time>2023-04-04T16:16:34Z</time>
      </trkpt>
      <trkpt lat="43.65463" lon="1.39209">
        <ele>126</ele>
        <time>2023-04-04T16:16:35Z</time>
      </trkpt>
      <trkpt lat="43.65464" lon="1.3921">
        <ele>126</ele>
        <time>2023-04-04T16:16:36Z</time>
      </trkpt>
      <trkpt lat="43.65465" lon="1.39212">
        <ele>126</ele>
        <time>2023-04-04T16:16:37Z</time>
      </trkpt>
      <trkpt lat="43.65465" lon="1.39213">
        <ele>126</ele>
        <time>2023-04-04T16:16:38Z</time>
      </trkpt>
      <trkpt lat="43.6547" lon="1.39221">
        <ele>126</ele>
        <time>2023-04-04T16:16:39Z</time>
      </trkpt>
      <trkpt lat="43.65471" lon="1.39222">
        <ele>126</ele>
        <time>2023-04-04T16:16:40Z</time>
      </trkpt>
      <trkpt lat="43.65471" lon="1.39223">
        <ele>126</ele>
        <time>2023-04-04T16:16:41Z</time>
      </trkpt>
      <trkpt lat="43.65472" lon="1.39225">
        <ele>126</ele>
        <time>2023-04-04T16:16:42Z</time>
      </trkpt>
      <trkpt lat="43.65476" lon="1.39232">
        <ele>126</ele>
        <time>2023-04-04T16:16:43Z</time>
      </trkpt>
      <trkpt lat="43.65477" lon="1.39234">
        <ele>126</ele>
        <time>2023-04-04T16:16:44Z</time>
      </trkpt>
      <trkpt lat="43.65478" lon="1.39235">
        <ele>126</ele>
        <time>2023-04-04T16:16:45Z</time>
      </trkpt>
      <trkpt lat="43.65479" lon="1.39237">
        <ele>126</ele>
        <time>2023-04-04T16:16:46Z</time>
      </trkpt>
      <trkpt lat="43.65483" lon="1.39246">
        <ele>126</ele>
        <time>2023-04-04T16:16:47Z</time>
      </trkpt>
      <trkpt lat="43.65485" lon="1.39249">
        <ele>126</ele>
        <time>2023-04-04T16:16:48Z</time>
      </trkpt>
      <trkpt lat="43.65486" lon="1.39252">
        <ele>126</ele>
        <time>2023-04-04T16:16:50Z</time>
      </trkpt>
      <trkpt lat="43.65488" lon="1.39255">
        <ele>126</ele>
        <time>2023-04-04T16:16:51Z</time>
      </trkpt>
      <trkpt lat="43.6549" lon="1.39258">
        <ele>125</ele>
        <time>2023-04-04T16:16:52Z</time>
      </trkpt>
      <trkpt lat="43.65492" lon="1.39262">
        <ele>126</ele>
        <time>2023-04-04T16:16:53Z</time>
      </trkpt>
      <trkpt lat="43.65494" lon="1.39266">
        <ele>126</ele>
        <time>2023-04-04T16:16:54Z</time>
      </trkpt>
      <trkpt lat="43.65495" lon="1.39267">
        <ele>126</ele>
        <time>2023-04-04T16:16:55Z</time>
      </trkpt>
      <trkpt lat="43.65496" lon="1.39268">
        <ele>126</ele>
        <time>2023-04-04T16:16:56Z</time>
      </trkpt>
      <trkpt lat="43.65496" lon="1.3927">
        <ele>126</ele>
        <time>2023-04-04T16:16:57Z</time>
      </trkpt>
      <trkpt lat="43.65497" lon="1.39271">
        <ele>126</ele>
        <time>2023-04-04T16:16:58Z</time>
      </trkpt>
      <trkpt lat="43.65502" lon="1.39279">
        <ele>126</ele>
        <time>2023-04-04T16:16:59Z</time>
      </trkpt>
      <trkpt lat="43.65504" lon="1.39282">
        <ele>126</ele>
        <time>2023-04-04T16:17:00Z</time>
      </trkpt>
      <trkpt lat="43.65505" lon="1.39285">
        <ele>126</ele>
        <time>2023-04-04T16:17:01Z</time>
      </trkpt>
      <trkpt lat="43.65507" lon="1.39288">
        <ele>126</ele>
        <time>2023-04-04T16:17:02Z</time>
      </trkpt>
      <trkpt lat="43.65508" lon="1.3929">
        <ele>126</ele>
        <time>2023-04-04T16:17:03Z</time>
      </trkpt>
      <trkpt lat="43.65509" lon="1.39291">
        <ele>126</ele>
        <time>2023-04-04T16:17:04Z</time>
      </trkpt>
      <trkpt lat="43.65509" lon="1.39293">
        <ele>126</ele>
        <time>2023-04-04T16:17:05Z</time>
      </trkpt>
      <trkpt lat="43.6551" lon="1.39295">
        <ele>126</ele>
        <time>2023-04-04T16:17:06Z</time>
      </trkpt>
      <trkpt lat="43.65515" lon="1.39304">
        <ele>126</ele>
        <time>2023-04-04T16:17:07Z</time>
      </trkpt>
      <trkpt lat="43.65517" lon="1.39307">
        <ele>126</ele>
        <time>2023-04-04T16:17:09Z</time>
      </trkpt>
      <trkpt lat="43.65518" lon="1.39311">
        <ele>126</ele>
        <time>2023-04-04T16:17:10Z</time>
      </trkpt>
      <trkpt lat="43.6552" lon="1.39314">
        <ele>126</ele>
        <time>2023-04-04T16:17:11Z</time>
      </trkpt>
      <trkpt lat="43.65521" lon="1.39316">
        <ele>126</ele>
        <time>2023-04-04T16:17:12Z</time>
      </trkpt>
      <trkpt lat="43.65522" lon="1.39317">
        <ele>126</ele>
        <time>2023-04-04T16:17:13Z</time>
      </trkpt>
      <trkpt lat="43.65523" lon="1.39319">
        <ele>126</ele>
        <time>2023-04-04T16:17:14Z</time>
      </trkpt>
      <trkpt lat="43.65528" lon="1.39326">
        <ele>126</ele>
        <time>2023-04-04T16:17:15Z</time>
      </trkpt>
      <trkpt lat="43.65529" lon="1.39328">
        <ele>126</ele>
        <time>2023-04-04T16:17:16Z</time>
      </trkpt>
      <trkpt lat="43.65529" lon="1.39329">
        <ele>126</ele>
        <time>2023-04-04T16:17:17Z</time>
      </trkpt>
      <trkpt lat="43.6553" lon="1.39331">
        <ele>126</ele>
        <time>2023-04-04T16:17:18Z</time>
      </trkpt>
      <trkpt lat="43.65534" lon="1.39338">
        <ele>126</ele>
        <time>2023-04-04T16:17:19Z</time>
      </trkpt>
      <trkpt lat="43.65535" lon="1.39339">
        <ele>126</ele>
        <time>2023-04-04T16:17:20Z</time>
      </trkpt>
      <trkpt lat="43.65536" lon="1.39341">
        <ele>126</ele>
        <time>2023-04-04T16:17:21Z</time>
      </trkpt>
      <trkpt lat="43.65537" lon="1.39342">
        <ele>126</ele>
        <time>2023-04-04T16:17:22Z</time>
      </trkpt>
      <trkpt lat="43.65542" lon="1.3935">
        <ele>126</ele>
        <time>2023-04-04T16:17:23Z</time>
      </trkpt>
      <trkpt lat="43.65543" lon="1.39352">
        <ele>126</ele>
        <time>2023-04-04T16:17:24Z</time>
      </trkpt>
      <trkpt lat="43.65545" lon="1.39355">
        <ele>126</ele>
        <time>2023-04-04T16:17:25Z</time>
      </trkpt>
      <trkpt lat="43.65546" lon="1.39357">
        <ele>126</ele>
        <time>2023-04-04T16:17:26Z</time>
      </trkpt>
      <trkpt lat="43.65547" lon="1.39359">
        <ele>126</ele>
        <time>2023-04-04T16:17:27Z</time>
      </trkpt>
      <trkpt lat="43.65548" lon="1.39361">
        <ele>126</ele>
        <time>2023-04-04T16:17:28Z</time>
      </trkpt>
      <trkpt lat="43.65549" lon="1.39363">
        <ele>126</ele>
        <time>2023-04-04T16:17:29Z</time>
      </trkpt>
      <trkpt lat="43.65551" lon="1.39365">
        <ele>126</ele>
        <time>2023-04-04T16:17:30Z</time>
      </trkpt>
      <trkpt lat="43.65555" lon="1.39372">
        <ele>126</ele>
        <time>2023-04-04T16:17:31Z</time>
      </trkpt>
      <trkpt lat="43.65555" lon="1.39374">
        <ele>126</ele>
        <time>2023-04-04T16:17:32Z</time>
      </trkpt>
      <trkpt lat="43.65556" lon="1.39375">
        <ele>126</ele>
        <time>2023-04-04T16:17:33Z</time>
      </trkpt>
      <trkpt lat="43.65557" lon="1.39377">
        <ele>126</ele>
        <time>2023-04-04T16:17:34Z</time>
      </trkpt>
      <trkpt lat="43.65562" lon="1.39385">
        <ele>126</ele>
        <time>2023-04-04T16:17:35Z</time>
      </trkpt>
      <trkpt lat="43.65564" lon="1.39388">
        <ele>126</ele>
        <time>2023-04-04T16:17:36Z</time>
      </trkpt>
      <trkpt lat="43.65565" lon="1.39391">
        <ele>126</ele>
        <time>2023-04-04T16:17:37Z</time>
      </trkpt>
      <trkpt lat="43.65567" lon="1.39393">
        <ele>126</ele>
        <time>2023-04-04T16:17:38Z</time>
      </trkpt>
      <trkpt lat="43.65568" lon="1.39395">
        <ele>126</ele>
        <time>2023-04-04T16:17:39Z</time>
      </trkpt>
      <trkpt lat="43.65569" lon="1.39396">
        <ele>126</ele>
        <time>2023-04-04T16:17:40Z</time>
      </trkpt>
      <trkpt lat="43.65569" lon="1.39398">
        <ele>126</ele>
        <time>2023-04-04T16:17:41Z</time>
      </trkpt>
      <trkpt lat="43.6557" lon="1.39399">
        <ele>126</ele>
        <time>2023-04-04T16:17:42Z</time>
      </trkpt>
      <trkpt lat="43.65575" lon="1.39407">
        <ele>126</ele>
        <time>2023-04-04T16:17:43Z</time>
      </trkpt>
      <trkpt lat="43.65576" lon="1.39409">
        <ele>126</ele>
        <time>2023-04-04T16:17:44Z</time>
      </trkpt>
      <trkpt lat="43.65577" lon="1.39411">
        <ele>126</ele>
        <time>2023-04-04T16:17:45Z</time>
      </trkpt>
      <trkpt lat="43.65579" lon="1.39414">
        <ele>126</ele>
        <time>2023-04-04T16:17:46Z</time>
      </trkpt>
      <trkpt lat="43.6558" lon="1.39416">
        <ele>126</ele>
        <time>2023-04-04T16:17:47Z</time>
      </trkpt>
      <trkpt lat="43.65581" lon="1.39418">
        <ele>126</ele>
        <time>2023-04-04T16:17:48Z</time>
      </trkpt>
      <trkpt lat="43.65582" lon="1.3942">
        <ele>127</ele>
        <time>2023-04-04T16:17:49Z</time>
      </trkpt>
      <trkpt lat="43.65583" lon="1.39422">
        <ele>127</ele>
        <time>2023-04-04T16:17:50Z</time>
      </trkpt>
      <trkpt lat="43.65587" lon="1.3943">
        <ele>127</ele>
        <time>2023-04-04T16:17:51Z</time>
      </trkpt>
      <trkpt lat="43.65588" lon="1.39431">
        <ele>127</ele>
        <time>2023-04-04T16:17:52Z</time>
      </trkpt>
      <trkpt lat="43.65589" lon="1.39433">
        <ele>126</ele>
        <time>2023-04-04T16:17:53Z</time>
      </trkpt>
      <trkpt lat="43.65589" lon="1.39434">
        <ele>127</ele>
        <time>2023-04-04T16:17:54Z</time>
      </trkpt>
      <trkpt lat="43.65595" lon="1.39443">
        <ele>127</ele>
        <time>2023-04-04T16:17:55Z</time>
      </trkpt>
      <trkpt lat="43.65596" lon="1.39446">
        <ele>127</ele>
        <time>2023-04-04T16:17:56Z</time>
      </trkpt>
      <trkpt lat="43.65598" lon="1.39449">
        <ele>127</ele>
        <time>2023-04-04T16:17:57Z</time>
      </trkpt>
      <trkpt lat="43.65599" lon="1.39451">
        <ele>127</ele>
        <time>2023-04-04T16:17:58Z</time>
      </trkpt>
      <trkpt lat="43.656" lon="1.39453">
        <ele>127</ele>
        <time>2023-04-04T16:17:59Z</time>
      </trkpt>
      <trkpt lat="43.65601" lon="1.39454">
        <ele>127</ele>
        <time>2023-04-04T16:18:00Z</time>
      </trkpt>
      <trkpt lat="43.65602" lon="1.39456">
        <ele>127</ele>
        <time>2023-04-04T16:18:01Z</time>
      </trkpt>
      <trkpt lat="43.65603" lon="1.39457">
        <ele>127</ele>
        <time>2023-04-04T16:18:02Z</time>
      </trkpt>
      <trkpt lat="43.65608" lon="1.39465">
        <ele>127</ele>
        <time>2023-04-04T16:18:03Z</time>
      </trkpt>
      <trkpt lat="43.65609" lon="1.39468">
        <ele>127</ele>
        <time>2023-04-04T16:18:04Z</time>
      </trkpt>
      <trkpt lat="43.65611" lon="1.39471">
        <ele>127</ele>
        <time>2023-04-04T16:18:06Z</time>
      </trkpt>
      <trkpt lat="43.65612" lon="1.39474">
        <ele>126</ele>
        <time>2023-04-04T16:18:07Z</time>
      </trkpt>
      <trkpt lat="43.65614" lon="1.39478">
        <ele>126</ele>
        <time>2023-04-04T16:18:08Z</time>
      </trkpt>
      <trkpt lat="43.65616" lon="1.39482">
        <ele>126</ele>
        <time>2023-04-04T16:18:09Z</time>
      </trkpt>
      <trkpt lat="43.65618" lon="1.39486">
        <ele>127</ele>
        <time>2023-04-04T16:18:10Z</time>
      </trkpt>
      <trkpt lat="43.65619" lon="1.39488">
        <ele>127</ele>
        <time>2023-04-04T16:18:11Z</time>
      </trkpt>
      <trkpt lat="43.6562" lon="1.39489">
        <ele>126</ele>
        <time>2023-04-04T16:18:12Z</time>
      </trkpt>
      <trkpt lat="43.6562" lon="1.39491">
        <ele>126</ele>
        <time>2023-04-04T16:18:13Z</time>
      </trkpt>
      <trkpt lat="43.65621" lon="1.39492">
        <ele>127</ele>
        <time>2023-04-04T16:18:14Z</time>
      </trkpt>
      <trkpt lat="43.65625" lon="1.395">
        <ele>127</ele>
        <time>2023-04-04T16:18:15Z</time>
      </trkpt>
      <trkpt lat="43.65625" lon="1.39501">
        <ele>127</ele>
        <time>2023-04-04T16:18:16Z</time>
      </trkpt>
      <trkpt lat="43.65626" lon="1.39503">
        <ele>127</ele>
        <time>2023-04-04T16:18:17Z</time>
      </trkpt>
      <trkpt lat="43.65627" lon="1.39504">
        <ele>127</ele>
        <time>2023-04-04T16:18:18Z</time>
      </trkpt>
      <trkpt lat="43.65631" lon="1.39513">
        <ele>126</ele>
        <time>2023-04-04T16:18:19Z</time>
      </trkpt>
      <trkpt lat="43.65633" lon="1.39516">
        <ele>126</ele>
        <time>2023-04-04T16:18:20Z</time>
      </trkpt>
      <trkpt lat="43.65635" lon="1.39519">
        <ele>126</ele>
        <time>2023-04-04T16:18:21Z</time>
      </trkpt>
      <trkpt lat="43.65637" lon="1.39522">
        <ele>126</ele>
        <time>2023-04-04T16:18:22Z</time>
      </trkpt>
      <trkpt lat="43.65639" lon="1.39525">
        <ele>126</ele>
        <time>2023-04-04T16:18:23Z</time>
      </trkpt>
      <trkpt lat="43.65644" lon="1.39531">
        <ele>126</ele>
        <time>2023-04-04T16:18:25Z</time>
      </trkpt>
      <trkpt lat="43.65644" lon="1.39532">
        <ele>126</ele>
        <time>2023-04-04T16:18:26Z</time>
      </trkpt>
      <trkpt lat="43.65645" lon="1.39534">
        <ele>125</ele>
        <time>2023-04-04T16:18:27Z</time>
      </trkpt>
      <trkpt lat="43.65646" lon="1.39535">
        <ele>126</ele>
        <time>2023-04-04T16:18:28Z</time>
      </trkpt>
      <trkpt lat="43.65647" lon="1.39536">
        <ele>126</ele>
        <time>2023-04-04T16:18:29Z</time>
      </trkpt>
      <trkpt lat="43.65651" lon="1.39545">
        <ele>126</ele>
        <time>2023-04-04T16:18:30Z</time>
      </trkpt>
      <trkpt lat="43.65653" lon="1.39548">
        <ele>126</ele>
        <time>2023-04-04T16:18:31Z</time>
      </trkpt>
      <trkpt lat="43.65654" lon="1.39551">
        <ele>126</ele>
        <time>2023-04-04T16:18:32Z</time>
      </trkpt>
      <trkpt lat="43.65656" lon="1.39554">
        <ele>126</ele>
        <time>2023-04-04T16:18:33Z</time>
      </trkpt>
      <trkpt lat="43.65657" lon="1.39555">
        <ele>126</ele>
        <time>2023-04-04T16:18:34Z</time>
      </trkpt>
      <trkpt lat="43.65658" lon="1.39556">
        <ele>126</ele>
        <time>2023-04-04T16:18:35Z</time>
      </trkpt>
      <trkpt lat="43.65659" lon="1.39558">
        <ele>126</ele>
        <time>2023-04-04T16:18:36Z</time>
      </trkpt>
      <trkpt lat="43.6566" lon="1.39559">
        <ele>126</ele>
        <time>2023-04-04T16:18:37Z</time>
      </trkpt>
      <trkpt lat="43.65665" lon="1.39567">
        <ele>126</ele>
        <time>2023-04-04T16:18:38Z</time>
      </trkpt>
      <trkpt lat="43.65666" lon="1.39569">
        <ele>126</ele>
        <time>2023-04-04T16:18:39Z</time>
      </trkpt>
      <trkpt lat="43.65668" lon="1.39572">
        <ele>126</ele>
        <time>2023-04-04T16:18:40Z</time>
      </trkpt>
      <trkpt lat="43.65669" lon="1.39574">
        <ele>126</ele>
        <time>2023-04-04T16:18:41Z</time>
      </trkpt>
      <trkpt lat="43.6567" lon="1.39577">
        <ele>126</ele>
        <time>2023-04-04T16:18:42Z</time>
      </trkpt>
      <trkpt lat="43.65674" lon="1.39582">
        <ele>126</ele>
        <time>2023-04-04T16:18:44Z</time>
      </trkpt>
      <trkpt lat="43.65677" lon="1.39587">
        <ele>126</ele>
        <time>2023-04-04T16:18:45Z</time>
      </trkpt>
      <trkpt lat="43.65678" lon="1.39589">
        <ele>126</ele>
        <time>2023-04-04T16:18:46Z</time>
      </trkpt>
      <trkpt lat="43.65679" lon="1.3959">
        <ele>126</ele>
        <time>2023-04-04T16:18:47Z</time>
      </trkpt>
      <trkpt lat="43.6568" lon="1.39591">
        <ele>126</ele>
        <time>2023-04-04T16:18:48Z</time>
      </trkpt>
      <trkpt lat="43.65681" lon="1.39593">
        <ele>126</ele>
        <time>2023-04-04T16:18:49Z</time>
      </trkpt>
      <trkpt lat="43.65686" lon="1.39599">
        <ele>126</ele>
        <time>2023-04-04T16:18:50Z</time>
      </trkpt>
      <trkpt lat="43.65687" lon="1.39601">
        <ele>126</ele>
        <time>2023-04-04T16:18:51Z</time>
      </trkpt>
      <trkpt lat="43.65687" lon="1.39602">
        <ele>126</ele>
        <time>2023-04-04T16:18:52Z</time>
      </trkpt>
      <trkpt lat="43.65688" lon="1.39603">
        <ele>126</ele>
        <time>2023-04-04T16:18:53Z</time>
      </trkpt>
      <trkpt lat="43.65693" lon="1.3961">
        <ele>126</ele>
        <time>2023-04-04T16:18:54Z</time>
      </trkpt>
      <trkpt lat="43.65694" lon="1.39611">
        <ele>126</ele>
        <time>2023-04-04T16:18:55Z</time>
      </trkpt>
      <trkpt lat="43.65695" lon="1.39612">
        <ele>126</ele>
        <time>2023-04-04T16:18:56Z</time>
      </trkpt>
      <trkpt lat="43.65696" lon="1.39614">
        <ele>126</ele>
        <time>2023-04-04T16:18:57Z</time>
      </trkpt>
      <trkpt lat="43.65702" lon="1.39621">
        <ele>126</ele>
        <time>2023-04-04T16:18:58Z</time>
      </trkpt>
      <trkpt lat="43.65703" lon="1.39624">
        <ele>126</ele>
        <time>2023-04-04T16:18:59Z</time>
      </trkpt>
      <trkpt lat="43.65704" lon="1.39626">
        <ele>126</ele>
        <time>2023-04-04T16:19:00Z</time>
      </trkpt>
      <trkpt lat="43.65706" lon="1.39628">
        <ele>126</ele>
        <time>2023-04-04T16:19:01Z</time>
      </trkpt>
      <trkpt lat="43.65707" lon="1.39631">
        <ele>126</ele>
        <time>2023-04-04T16:19:02Z</time>
      </trkpt>
      <trkpt lat="43.65709" lon="1.39635">
        <ele>126</ele>
        <time>2023-04-04T16:19:03Z</time>
      </trkpt>
      <trkpt lat="43.6571" lon="1.39639">
        <ele>126</ele>
        <time>2023-04-04T16:19:04Z</time>
      </trkpt>
      <trkpt lat="43.65712" lon="1.39643">
        <ele>126</ele>
        <time>2023-04-04T16:19:05Z</time>
      </trkpt>
      <trkpt lat="43.65714" lon="1.39645">
        <ele>126</ele>
        <time>2023-04-04T16:19:06Z</time>
      </trkpt>
      <trkpt lat="43.65716" lon="1.39648">
        <ele>126</ele>
        <time>2023-04-04T16:19:07Z</time>
      </trkpt>
      <trkpt lat="43.65718" lon="1.3965">
        <ele>126</ele>
        <time>2023-04-04T16:19:08Z</time>
      </trkpt>
      <trkpt lat="43.65719" lon="1.39652">
        <ele>126</ele>
        <time>2023-04-04T16:19:09Z</time>
      </trkpt>
      <trkpt lat="43.6572" lon="1.39653">
        <ele>126</ele>
        <time>2023-04-04T16:19:10Z</time>
      </trkpt>
      <trkpt lat="43.65721" lon="1.39655">
        <ele>126</ele>
        <time>2023-04-04T16:19:11Z</time>
      </trkpt>
      <trkpt lat="43.65723" lon="1.39656">
        <ele>126</ele>
        <time>2023-04-04T16:19:12Z</time>
      </trkpt>
      <trkpt lat="43.65724" lon="1.39657">
        <ele>126</ele>
        <time>2023-04-04T16:19:13Z</time>
      </trkpt>
      <trkpt lat="43.65729" lon="1.39664">
        <ele>126</ele>
        <time>2023-04-04T16:19:14Z</time>
      </trkpt>
      <trkpt lat="43.65731" lon="1.39667">
        <ele>126</ele>
        <time>2023-04-04T16:19:15Z</time>
      </trkpt>
      <trkpt lat="43.65733" lon="1.39669">
        <ele>126</ele>
        <time>2023-04-04T16:19:16Z</time>
      </trkpt>
      <trkpt lat="43.65734" lon="1.39672">
        <ele>126</ele>
        <time>2023-04-04T16:19:17Z</time>
      </trkpt>
      <trkpt lat="43.65736" lon="1.39674">
        <ele>126</ele>
        <time>2023-04-04T16:19:18Z</time>
      </trkpt>
      <trkpt lat="43.65738" lon="1.39676">
        <ele>126</ele>
        <time>2023-04-04T16:19:19Z</time>
      </trkpt>
      <trkpt lat="43.6574" lon="1.39677">
        <ele>126</ele>
        <time>2023-04-04T16:19:20Z</time>
      </trkpt>
      <trkpt lat="43.65742" lon="1.39679">
        <ele>126</ele>
        <time>2023-04-04T16:19:21Z</time>
      </trkpt>
      <trkpt lat="43.65744" lon="1.39681">
        <ele>126</ele>
        <time>2023-04-04T16:19:22Z</time>
      </trkpt>
      <trkpt lat="43.65747" lon="1.39684">
        <ele>126</ele>
        <time>2023-04-04T16:19:23Z</time>
      </trkpt>
      <trkpt lat="43.6575" lon="1.39686">
        <ele>126</ele>
        <time>2023-04-04T16:19:24Z</time>
      </trkpt>
      <trkpt lat="43.6575" lon="1.39685">
        <ele>126</ele>
        <time>2023-04-04T16:19:25Z</time>
      </trkpt>
      <trkpt lat="43.65751" lon="1.39684">
        <ele>126</ele>
        <time>2023-04-04T16:19:26Z</time>
      </trkpt>
      <trkpt lat="43.65752" lon="1.39684">
        <ele>126</ele>
        <time>2023-04-04T16:19:27Z</time>
      </trkpt>
      <trkpt lat="43.65753" lon="1.39683">
        <ele>126</ele>
        <time>2023-04-04T16:19:28Z</time>
      </trkpt>
      <trkpt lat="43.65754" lon="1.39683">
        <ele>127</ele>
        <time>2023-04-04T16:19:29Z</time>
      </trkpt>
      <trkpt lat="43.65761" lon="1.39677">
        <ele>127</ele>
        <time>2023-04-04T16:19:30Z</time>
      </trkpt>
      <trkpt lat="43.65764" lon="1.39674">
        <ele>127</ele>
        <time>2023-04-04T16:19:31Z</time>
      </trkpt>
      <trkpt lat="43.65766" lon="1.39672">
        <ele>127</ele>
        <time>2023-04-04T16:19:32Z</time>
      </trkpt>
      <trkpt lat="43.65767" lon="1.3967">
        <ele>126</ele>
        <time>2023-04-04T16:19:33Z</time>
      </trkpt>
      <trkpt lat="43.65769" lon="1.39669">
        <ele>126</ele>
        <time>2023-04-04T16:19:34Z</time>
      </trkpt>
      <trkpt lat="43.6577" lon="1.39667">
        <ele>127</ele>
        <time>2023-04-04T16:19:35Z</time>
      </trkpt>
      <trkpt lat="43.65771" lon="1.39666">
        <ele>127</ele>
        <time>2023-04-04T16:19:36Z</time>
      </trkpt>
      <trkpt lat="43.65778" lon="1.39658">
        <ele>127</ele>
        <time>2023-04-04T16:19:37Z</time>
      </trkpt>
      <trkpt lat="43.6578" lon="1.39656">
        <ele>127</ele>
        <time>2023-04-04T16:19:38Z</time>
      </trkpt>
      <trkpt lat="43.65782" lon="1.39653">
        <ele>127</ele>
        <time>2023-04-04T16:19:39Z</time>
      </trkpt>
      <trkpt lat="43.65785" lon="1.39651">
        <ele>127</ele>
        <time>2023-04-04T16:19:40Z</time>
      </trkpt>
      <trkpt lat="43.65788" lon="1.39647">
        <ele>127</ele>
        <time>2023-04-04T16:19:41Z</time>
      </trkpt>
      <trkpt lat="43.65791" lon="1.39643">
        <ele>127</ele>
        <time>2023-04-04T16:19:42Z</time>
      </trkpt>
      <trkpt lat="43.65793" lon="1.3964">
        <ele>127</ele>
        <time>2023-04-04T16:19:43Z</time>
      </trkpt>
      <trkpt lat="43.65795" lon="1.39638">
        <ele>126</ele>
        <time>2023-04-04T16:19:44Z</time>
      </trkpt>
      <trkpt lat="43.65797" lon="1.39635">
        <ele>126</ele>
        <time>2023-04-04T16:19:45Z</time>
      </trkpt>
      <trkpt lat="43.65798" lon="1.39633">
        <ele>126</ele>
        <time>2023-04-04T16:19:46Z</time>
      </trkpt>
      <trkpt lat="43.658" lon="1.3963">
        <ele>127</ele>
        <time>2023-04-04T16:19:47Z</time>
      </trkpt>
      <trkpt lat="43.65802" lon="1.39628">
        <ele>127</ele>
        <time>2023-04-04T16:19:48Z</time>
      </trkpt>
      <trkpt lat="43.65803" lon="1.39625">
        <ele>126</ele>
        <time>2023-04-04T16:19:49Z</time>
      </trkpt>
      <trkpt lat="43.65805" lon="1.39623">
        <ele>126</ele>
        <time>2023-04-04T16:19:50Z</time>
      </trkpt>
      <trkpt lat="43.65807" lon="1.39621">
        <ele>126</ele>
        <time>2023-04-04T16:19:51Z</time>
      </trkpt>
      <trkpt lat="43.65809" lon="1.39619">
        <ele>126</ele>
        <time>2023-04-04T16:19:52Z</time>
      </trkpt>
      <trkpt lat="43.65811" lon="1.39617">
        <ele>126</ele>
        <time>2023-04-04T16:19:53Z</time>
      </trkpt>
      <trkpt lat="43.65812" lon="1.39615">
        <ele>126</ele>
        <time>2023-04-04T16:19:54Z</time>
      </trkpt>
      <trkpt lat="43.65814" lon="1.39613">
        <ele>126</ele>
        <time>2023-04-04T16:19:55Z</time>
      </trkpt>
      <trkpt lat="43.65818" lon="1.39609">
        <ele>126</ele>
        <time>2023-04-04T16:19:56Z</time>
      </trkpt>
      <trkpt lat="43.65821" lon="1.39605">
        <ele>126</ele>
        <time>2023-04-04T16:19:57Z</time>
      </trkpt>
      <trkpt lat="43.65821" lon="1.39605">
        <ele>127</ele>
        <time>2023-04-04T16:19:58Z</time>
      </trkpt>
      <trkpt lat="43.65829" lon="1.39597">
        <ele>127</ele>
        <time>2023-04-04T16:20:00Z</time>
      </trkpt>
      <trkpt lat="43.65831" lon="1.39594">
        <ele>126</ele>
        <time>2023-04-04T16:20:01Z</time>
      </trkpt>
      <trkpt lat="43.65834" lon="1.39592">
        <ele>126</ele>
        <time>2023-04-04T16:20:02Z</time>
      </trkpt>
      <trkpt lat="43.65836" lon="1.39589">
        <ele>126</ele>
        <time>2023-04-04T16:20:03Z</time>
      </trkpt>
      <trkpt lat="43.65838" lon="1.39587">
        <ele>126</ele>
        <time>2023-04-04T16:20:04Z</time>
      </trkpt>
      <trkpt lat="43.6584" lon="1.39584">
        <ele>126</ele>
        <time>2023-04-04T16:20:05Z</time>
      </trkpt>
      <trkpt lat="43.65842" lon="1.39582">
        <ele>126</ele>
        <time>2023-04-04T16:20:06Z</time>
      </trkpt>
      <trkpt lat="43.65844" lon="1.39579">
        <ele>126</ele>
        <time>2023-04-04T16:20:07Z</time>
      </trkpt>
      <trkpt lat="43.65846" lon="1.39577">
        <ele>126</ele>
        <time>2023-04-04T16:20:08Z</time>
      </trkpt>
      <trkpt lat="43.65847" lon="1.39575">
        <ele>127</ele>
        <time>2023-04-04T16:20:09Z</time>
      </trkpt>
      <trkpt lat="43.65849" lon="1.39573">
        <ele>127</ele>
        <time>2023-04-04T16:20:10Z</time>
      </trkpt>
      <trkpt lat="43.6585" lon="1.39571">
        <ele>127</ele>
        <time>2023-04-04T16:20:11Z</time>
      </trkpt>
      <trkpt lat="43.65852" lon="1.39569">
        <ele>126</ele>
        <time>2023-04-04T16:20:12Z</time>
      </trkpt>
      <trkpt lat="43.65854" lon="1.39567">
        <ele>126</ele>
        <time>2023-04-04T16:20:13Z</time>
      </trkpt>
      <trkpt lat="43.65855" lon="1.39566">
        <ele>126</ele>
        <time>2023-04-04T16:20:14Z</time>
      </trkpt>
      <trkpt lat="43.65857" lon="1.39564">
        <ele>126</ele>
        <time>2023-04-04T16:20:15Z</time>
      </trkpt>
      <trkpt lat="43.65861" lon="1.39559">
        <ele>126</ele>
        <time>2023-04-04T16:20:16Z</time>
      </trkpt>
      <trkpt lat="43.65861" lon="1.39559">
        <ele>126</ele>
        <time>2023-04-04T16:20:17Z</time>
      </trkpt>
      <trkpt lat="43.65869" lon="1.39548">
        <ele>126</ele>
        <time>2023-04-04T16:20:19Z</time>
      </trkpt>
      <trkpt lat="43.65871" lon="1.39546">
        <ele>126</ele>
        <time>2023-04-04T16:20:20Z</time>
      </trkpt>
      <trkpt lat="43.65873" lon="1.39543">
        <ele>126</ele>
        <time>2023-04-04T16:20:21Z</time>
      </trkpt>
      <trkpt lat="43.65874" lon="1.39542">
        <ele>126</ele>
        <time>2023-04-04T16:20:22Z</time>
      </trkpt>
      <trkpt lat="43.65875" lon="1.3954">
        <ele>126</ele>
        <time>2023-04-04T16:20:23Z</time>
      </trkpt>
      <trkpt lat="43.65876" lon="1.39539">
        <ele>126</ele>
        <time>2023-04-04T16:20:24Z</time>
      </trkpt>
      <trkpt lat="43.65877" lon="1.39537">
        <ele>126</ele>
        <time>2023-04-04T16:20:25Z</time>
      </trkpt>
      <trkpt lat="43.65883" lon="1.3953">
        <ele>126</ele>
        <time>2023-04-04T16:20:26Z</time>
      </trkpt>
      <trkpt lat="43.65885" lon="1.39528">
        <ele>126</ele>
        <time>2023-04-04T16:20:27Z</time>
      </trkpt>
      <trkpt lat="43.65886" lon="1.39526">
        <ele>126</ele>
        <time>2023-04-04T16:20:28Z</time>
      </trkpt>
      <trkpt lat="43.65888" lon="1.39524">
        <ele>126</ele>
        <time>2023-04-04T16:20:29Z</time>
      </trkpt>
      <trkpt lat="43.65889" lon="1.39522">
        <ele>126</ele>
        <time>2023-04-04T16:20:30Z</time>
      </trkpt>
      <trkpt lat="43.6589" lon="1.39521">
        <ele>126</ele>
        <time>2023-04-04T16:20:31Z</time>
      </trkpt>
      <trkpt lat="43.65892" lon="1.39519">
        <ele>126</ele>
        <time>2023-04-04T16:20:32Z</time>
      </trkpt>
      <trkpt lat="43.65893" lon="1.39517">
        <ele>126</ele>
        <time>2023-04-04T16:20:33Z</time>
      </trkpt>
      <trkpt lat="43.65899" lon="1.3951">
        <ele>126</ele>
        <time>2023-04-04T16:20:34Z</time>
      </trkpt>
      <trkpt lat="43.659" lon="1.39508">
        <ele>126</ele>
        <time>2023-04-04T16:20:35Z</time>
      </trkpt>
      <trkpt lat="43.65902" lon="1.39506">
        <ele>127</ele>
        <time>2023-04-04T16:20:36Z</time>
      </trkpt>
      <trkpt lat="43.65904" lon="1.39504">
        <ele>127</ele>
        <time>2023-04-04T16:20:37Z</time>
      </trkpt>
      <trkpt lat="43.65906" lon="1.39502">
        <ele>127</ele>
        <time>2023-04-04T16:20:38Z</time>
      </trkpt>
      <trkpt lat="43.65908" lon="1.39498">
        <ele>126</ele>
        <time>2023-04-04T16:20:39Z</time>
      </trkpt>
      <trkpt lat="43.65911" lon="1.39495">
        <ele>126</ele>
        <time>2023-04-04T16:20:40Z</time>
      </trkpt>
      <trkpt lat="43.65913" lon="1.39492">
        <ele>126</ele>
        <time>2023-04-04T16:20:41Z</time>
      </trkpt>
      <trkpt lat="43.65915" lon="1.3949">
        <ele>126</ele>
        <time>2023-04-04T16:20:42Z</time>
      </trkpt>
      <trkpt lat="43.65917" lon="1.39487">
        <ele>126</ele>
        <time>2023-04-04T16:20:43Z</time>
      </trkpt>
      <trkpt lat="43.65919" lon="1.39485">
        <ele>126</ele>
        <time>2023-04-04T16:20:44Z</time>
      </trkpt>
      <trkpt lat="43.65921" lon="1.39483">
        <ele>126</ele>
        <time>2023-04-04T16:20:45Z</time>
      </trkpt>
      <trkpt lat="43.65922" lon="1.39481">
        <ele>126</ele>
        <time>2023-04-04T16:20:46Z</time>
      </trkpt>
      <trkpt lat="43.65924" lon="1.39479">
        <ele>126</ele>
        <time>2023-04-04T16:20:47Z</time>
      </trkpt>
      <trkpt lat="43.65926" lon="1.39477">
        <ele>126</ele>
        <time>2023-04-04T16:20:48Z</time>
      </trkpt>
      <trkpt lat="43.65927" lon="1.39475">
        <ele>126</ele>
        <time>2023-04-04T16:20:49Z</time>
      </trkpt>
      <trkpt lat="43.65929" lon="1.39472">
        <ele>126</ele>
        <time>2023-04-04T16:20:50Z</time>
      </trkpt>
      <trkpt lat="43.65931" lon="1.3947">
        <ele>126</ele>
        <time>2023-04-04T16:20:51Z</time>
      </trkpt>
      <trkpt lat="43.65932" lon="1.39468">
        <ele>126</ele>
        <time>2023-04-04T16:20:52Z</time>
      </trkpt>
      <trkpt lat="43.65937" lon="1.39461">
        <ele>126</ele>
        <time>2023-04-04T16:20:53Z</time>
      </trkpt>
      <trkpt lat="43.65939" lon="1.39459">
        <ele>126</ele>
        <time>2023-04-04T16:20:54Z</time>
      </trkpt>
      <trkpt lat="43.65941" lon="1.39456">
        <ele>126</ele>
        <time>2023-04-04T16:20:55Z</time>
      </trkpt>
      <trkpt lat="43.65944" lon="1.39453">
        <ele>126</ele>
        <time>2023-04-04T16:20:56Z</time>
      </trkpt>
      <trkpt lat="43.65945" lon="1.39452">
        <ele>126</ele>
        <time>2023-04-04T16:20:57Z</time>
      </trkpt>
      <trkpt lat="43.65946" lon="1.3945">
        <ele>126</ele>
        <time>2023-04-04T16:20:58Z</time>
      </trkpt>
      <trkpt lat="43.65948" lon="1.39449">
        <ele>126</ele>
        <time>2023-04-04T16:20:59Z</time>
      </trkpt>
      <trkpt lat="43.65949" lon="1.39448">
        <ele>126</ele>
        <time>2023-04-04T16:21:00Z</time>
      </trkpt>
      <trkpt lat="43.6595" lon="1.39446">
        <ele>126</ele>
        <time>2023-04-04T16:21:01Z</time>
      </trkpt>
      <trkpt lat="43.65956" lon="1.39441">
        <ele>126</ele>
        <time>2023-04-04T16:21:02Z</time>
      </trkpt>
      <trkpt lat="43.65957" lon="1.39438">
        <ele>126</ele>
        <time>2023-04-04T16:21:03Z</time>
      </trkpt>
      <trkpt lat="43.65959" lon="1.39436">
        <ele>126</ele>
        <time>2023-04-04T16:21:04Z</time>
      </trkpt>
      <trkpt lat="43.65961" lon="1.39434">
        <ele>126</ele>
        <time>2023-04-04T16:21:05Z</time>
      </trkpt>
      <trkpt lat="43.65963" lon="1.39432">
        <ele>126</ele>
        <time>2023-04-04T16:21:06Z</time>
      </trkpt>
      <trkpt lat="43.65964" lon="1.3943">
        <ele>126</ele>
        <time>2023-04-04T16:21:07Z</time>
      </trkpt>
      <trkpt lat="43.65966" lon="1.39428">
        <ele>126</ele>
        <time>2023-04-04T16:21:08Z</time>
      </trkpt>
      <trkpt lat="43.65967" lon="1.39427">
        <ele>126</ele>
        <time>2023-04-04T16:21:09Z</time>
      </trkpt>
      <trkpt lat="43.65968" lon="1.39425">
        <ele>126</ele>
        <time>2023-04-04T16:21:10Z</time>
      </trkpt>
      <trkpt lat="43.65973" lon="1.39418">
        <ele>126</ele>
        <time>2023-04-04T16:21:11Z</time>
      </trkpt>
      <trkpt lat="43.65975" lon="1.39417">
        <ele>126</ele>
        <time>2023-04-04T16:21:12Z</time>
      </trkpt>
      <trkpt lat="43.65976" lon="1.39415">
        <ele>126</ele>
        <time>2023-04-04T16:21:13Z</time>
      </trkpt>
      <trkpt lat="43.65977" lon="1.39414">
        <ele>126</ele>
        <time>2023-04-04T16:21:14Z</time>
      </trkpt>
      <trkpt lat="43.65983" lon="1.39407">
        <ele>126</ele>
        <time>2023-04-04T16:21:15Z</time>
      </trkpt>
      <trkpt lat="43.65984" lon="1.39405">
        <ele>126</ele>
        <time>2023-04-04T16:21:16Z</time>
      </trkpt>
      <trkpt lat="43.65986" lon="1.39403">
        <ele>126</ele>
        <time>2023-04-04T16:21:17Z</time>
      </trkpt>
      <trkpt lat="43.65987" lon="1.394">
        <ele>126</ele>
        <time>2023-04-04T16:21:18Z</time>
      </trkpt>
      <trkpt lat="43.65989" lon="1.39397">
        <ele>126</ele>
        <time>2023-04-04T16:21:19Z</time>
      </trkpt>
      <trkpt lat="43.65991" lon="1.39394">
        <ele>126</ele>
        <time>2023-04-04T16:21:20Z</time>
      </trkpt>
      <trkpt lat="43.65992" lon="1.39392">
        <ele>126</ele>
        <time>2023-04-04T16:21:21Z</time>
      </trkpt>
      <trkpt lat="43.65994" lon="1.39389">
        <ele>126</ele>
        <time>2023-04-04T16:21:22Z</time>
      </trkpt>
      <trkpt lat="43.65996" lon="1.39386">
        <ele>126</ele>
        <time>2023-04-04T16:21:23Z</time>
      </trkpt>
      <trkpt lat="43.65997" lon="1.39384">
        <ele>126</ele>
        <time>2023-04-04T16:21:24Z</time>
      </trkpt>
      <trkpt lat="43.65999" lon="1.39381">
        <ele>126</ele>
        <time>2023-04-04T16:21:25Z</time>
      </trkpt>
      <trkpt lat="43.66001" lon="1.39379">
        <ele>126</ele>
        <time>2023-04-04T16:21:26Z</time>
      </trkpt>
      <trkpt lat="43.66002" lon="1.39377">
        <ele>126</ele>
        <time>2023-04-04T16:21:27Z</time>
      </trkpt>
      <trkpt lat="43.66004" lon="1.39375">
        <ele>126</ele>
        <time>2023-04-04T16:21:28Z</time>
      </trkpt>
      <trkpt lat="43.66006" lon="1.39373">
        <ele>126</ele>
        <time>2023-04-04T16:21:29Z</time>
      </trkpt>
      <trkpt lat="43.66007" lon="1.39371">
        <ele>126</ele>
        <time>2023-04-04T16:21:30Z</time>
      </trkpt>
      <trkpt lat="43.66009" lon="1.3937">
        <ele>126</ele>
        <time>2023-04-04T16:21:31Z</time>
      </trkpt>
      <trkpt lat="43.6601" lon="1.39368">
        <ele>126</ele>
        <time>2023-04-04T16:21:32Z</time>
      </trkpt>
      <trkpt lat="43.66016" lon="1.39361">
        <ele>126</ele>
        <time>2023-04-04T16:21:33Z</time>
      </trkpt>
      <trkpt lat="43.66017" lon="1.3936">
        <ele>126</ele>
        <time>2023-04-04T16:21:35Z</time>
      </trkpt>
      <trkpt lat="43.66019" lon="1.39358">
        <ele>126</ele>
        <time>2023-04-04T16:21:36Z</time>
      </trkpt>
      <trkpt lat="43.66024" lon="1.39351">
        <ele>126</ele>
        <time>2023-04-04T16:21:37Z</time>
      </trkpt>
      <trkpt lat="43.66025" lon="1.3935">
        <ele>126</ele>
        <time>2023-04-04T16:21:38Z</time>
      </trkpt>
      <trkpt lat="43.66026" lon="1.39349">
        <ele>126</ele>
        <time>2023-04-04T16:21:39Z</time>
      </trkpt>
      <trkpt lat="43.66027" lon="1.39347">
        <ele>126</ele>
        <time>2023-04-04T16:21:40Z</time>
      </trkpt>
      <trkpt lat="43.66032" lon="1.3934">
        <ele>126</ele>
        <time>2023-04-04T16:21:41Z</time>
      </trkpt>
      <trkpt lat="43.66034" lon="1.39337">
        <ele>126</ele>
        <time>2023-04-04T16:21:42Z</time>
      </trkpt>
      <trkpt lat="43.66035" lon="1.39335">
        <ele>126</ele>
        <time>2023-04-04T16:21:43Z</time>
      </trkpt>
      <trkpt lat="43.66037" lon="1.39333">
        <ele>126</ele>
        <time>2023-04-04T16:21:44Z</time>
      </trkpt>
      <trkpt lat="43.66038" lon="1.3933">
        <ele>126</ele>
        <time>2023-04-04T16:21:45Z</time>
      </trkpt>
      <trkpt lat="43.66039" lon="1.39329">
        <ele>126</ele>
        <time>2023-04-04T16:21:46Z</time>
      </trkpt>
      <trkpt lat="43.66041" lon="1.39328">
        <ele>126</ele>
        <time>2023-04-04T16:21:47Z</time>
      </trkpt>
      <trkpt lat="43.66042" lon="1.39326">
        <ele>126</ele>
        <time>2023-04-04T16:21:48Z</time>
      </trkpt>
      <trkpt lat="43.66048" lon="1.39319">
        <ele>126</ele>
        <time>2023-04-04T16:21:49Z</time>
      </trkpt>
      <trkpt lat="43.6605" lon="1.39317">
        <ele>126</ele>
        <time>2023-04-04T16:21:50Z</time>
      </trkpt>
      <trkpt lat="43.66052" lon="1.39314">
        <ele>126</ele>
        <time>2023-04-04T16:21:51Z</time>
      </trkpt>
      <trkpt lat="43.66054" lon="1.39312">
        <ele>126</ele>
        <time>2023-04-04T16:21:52Z</time>
      </trkpt>
      <trkpt lat="43.66055" lon="1.3931">
        <ele>126</ele>
        <time>2023-04-04T16:21:54Z</time>
      </trkpt>
      <trkpt lat="43.66056" lon="1.39308">
        <ele>126</ele>
        <time>2023-04-04T16:21:55Z</time>
      </trkpt>
      <trkpt lat="43.66057" lon="1.39306">
        <ele>126</ele>
        <time>2023-04-04T16:21:56Z</time>
      </trkpt>
      <trkpt lat="43.66062" lon="1.39298">
        <ele>126</ele>
        <time>2023-04-04T16:21:57Z</time>
      </trkpt>
      <trkpt lat="43.66063" lon="1.39297">
        <ele>126</ele>
        <time>2023-04-04T16:21:58Z</time>
      </trkpt>
      <trkpt lat="43.66064" lon="1.39296">
        <ele>126</ele>
        <time>2023-04-04T16:21:59Z</time>
      </trkpt>
      <trkpt lat="43.66065" lon="1.39294">
        <ele>126</ele>
        <time>2023-04-04T16:22:00Z</time>
      </trkpt>
      <trkpt lat="43.6607" lon="1.39287">
        <ele>126</ele>
        <time>2023-04-04T16:22:01Z</time>
      </trkpt>
      <trkpt lat="43.66071" lon="1.39285">
        <ele>126</ele>
        <time>2023-04-04T16:22:02Z</time>
      </trkpt>
      <trkpt lat="43.66073" lon="1.39283">
        <ele>126</ele>
        <time>2023-04-04T16:22:03Z</time>
      </trkpt>
      <trkpt lat="43.66075" lon="1.39281">
        <ele>126</ele>
        <time>2023-04-04T16:22:04Z</time>
      </trkpt>
      <trkpt lat="43.66076" lon="1.39279">
        <ele>127</ele>
        <time>2023-04-04T16:22:05Z</time>
      </trkpt>
      <trkpt lat="43.66077" lon="1.39277">
        <ele>127</ele>
        <time>2023-04-04T16:22:06Z</time>
      </trkpt>
      <trkpt lat="43.66079" lon="1.39276">
        <ele>127</ele>
        <time>2023-04-04T16:22:07Z</time>
      </trkpt>
      <trkpt lat="43.6608" lon="1.39274">
        <ele>127</ele>
        <time>2023-04-04T16:22:08Z</time>
      </trkpt>
      <trkpt lat="43.66086" lon="1.39266">
        <ele>127</ele>
        <time>2023-04-04T16:22:09Z</time>
      </trkpt>
      <trkpt lat="43.66089" lon="1.39263">
        <ele>126</ele>
        <time>2023-04-04T16:22:10Z</time>
      </trkpt>
      <trkpt lat="43.66091" lon="1.3926">
        <ele>126</ele>
        <time>2023-04-04T16:22:11Z</time>
      </trkpt>
      <trkpt lat="43.66092" lon="1.39259">
        <ele>126</ele>
        <time>2023-04-04T16:22:13Z</time>
      </trkpt>
      <trkpt lat="43.66094" lon="1.39257">
        <ele>126</ele>
        <time>2023-04-04T16:22:14Z</time>
      </trkpt>
      <trkpt lat="43.66095" lon="1.39256">
        <ele>126</ele>
        <time>2023-04-04T16:22:15Z</time>
      </trkpt>
      <trkpt lat="43.661" lon="1.3925">
        <ele>126</ele>
        <time>2023-04-04T16:22:16Z</time>
      </trkpt>
      <trkpt lat="43.66101" lon="1.39249">
        <ele>126</ele>
        <time>2023-04-04T16:22:17Z</time>
      </trkpt>
      <trkpt lat="43.66103" lon="1.39248">
        <ele>126</ele>
        <time>2023-04-04T16:22:18Z</time>
      </trkpt>
      <trkpt lat="43.66104" lon="1.39247">
        <ele>126</ele>
        <time>2023-04-04T16:22:19Z</time>
      </trkpt>
      <trkpt lat="43.66111" lon="1.39243">
        <ele>126</ele>
        <time>2023-04-04T16:22:20Z</time>
      </trkpt>
      <trkpt lat="43.66113" lon="1.39242">
        <ele>126</ele>
        <time>2023-04-04T16:22:21Z</time>
      </trkpt>
      <trkpt lat="43.66116" lon="1.39241">
        <ele>126</ele>
        <time>2023-04-04T16:22:22Z</time>
      </trkpt>
      <trkpt lat="43.66118" lon="1.39241">
        <ele>126</ele>
        <time>2023-04-04T16:22:23Z</time>
      </trkpt>
      <trkpt lat="43.66123" lon="1.3924">
        <ele>125</ele>
        <time>2023-04-04T16:22:24Z</time>
      </trkpt>
      <trkpt lat="43.66127" lon="1.39239">
        <ele>125</ele>
        <time>2023-04-04T16:22:25Z</time>
      </trkpt>
      <trkpt lat="43.66129" lon="1.39239">
        <ele>125</ele>
        <time>2023-04-04T16:22:26Z</time>
      </trkpt>
      <trkpt lat="43.6613" lon="1.39239">
        <ele>125</ele>
        <time>2023-04-04T16:22:27Z</time>
      </trkpt>
      <trkpt lat="43.66131" lon="1.39238">
        <ele>125</ele>
        <time>2023-04-04T16:22:28Z</time>
      </trkpt>
      <trkpt lat="43.66133" lon="1.39238">
        <ele>125</ele>
        <time>2023-04-04T16:22:29Z</time>
      </trkpt>
      <trkpt lat="43.66141" lon="1.39235">
        <ele>125</ele>
        <time>2023-04-04T16:22:30Z</time>
      </trkpt>
      <trkpt lat="43.66143" lon="1.39233">
        <ele>125</ele>
        <time>2023-04-04T16:22:32Z</time>
      </trkpt>
      <trkpt lat="43.66146" lon="1.39231">
        <ele>126</ele>
        <time>2023-04-04T16:22:33Z</time>
      </trkpt>
      <trkpt lat="43.66148" lon="1.3923">
        <ele>126</ele>
        <time>2023-04-04T16:22:34Z</time>
      </trkpt>
      <trkpt lat="43.6615" lon="1.39229">
        <ele>126</ele>
        <time>2023-04-04T16:22:35Z</time>
      </trkpt>
      <trkpt lat="43.66151" lon="1.39227">
        <ele>126</ele>
        <time>2023-04-04T16:22:36Z</time>
      </trkpt>
      <trkpt lat="43.66153" lon="1.39226">
        <ele>126</ele>
        <time>2023-04-04T16:22:37Z</time>
      </trkpt>
      <trkpt lat="43.66154" lon="1.39225">
        <ele>126</ele>
        <time>2023-04-04T16:22:38Z</time>
      </trkpt>
      <trkpt lat="43.66156" lon="1.39223">
        <ele>126</ele>
        <time>2023-04-04T16:22:39Z</time>
      </trkpt>
      <trkpt lat="43.66158" lon="1.39222">
        <ele>126</ele>
        <time>2023-04-04T16:22:40Z</time>
      </trkpt>
      <trkpt lat="43.66159" lon="1.39221">
        <ele>126</ele>
        <time>2023-04-04T16:22:41Z</time>
      </trkpt>
      <trkpt lat="43.66161" lon="1.3922">
        <ele>126</ele>
        <time>2023-04-04T16:22:42Z</time>
      </trkpt>
      <trkpt lat="43.66166" lon="1.39215">
        <ele>126</ele>
        <time>2023-04-04T16:22:43Z</time>
      </trkpt>
      <trkpt lat="43.66167" lon="1.39214">
        <ele>126</ele>
        <time>2023-04-04T16:22:44Z</time>
      </trkpt>
      <trkpt lat="43.66168" lon="1.39212">
        <ele>126</ele>
        <time>2023-04-04T16:22:45Z</time>
      </trkpt>
      <trkpt lat="43.6617" lon="1.39211">
        <ele>126</ele>
        <time>2023-04-04T16:22:46Z</time>
      </trkpt>
      <trkpt lat="43.66175" lon="1.39205">
        <ele>126</ele>
        <time>2023-04-04T16:22:47Z</time>
      </trkpt>
      <trkpt lat="43.66177" lon="1.39203">
        <ele>126</ele>
        <time>2023-04-04T16:22:48Z</time>
      </trkpt>
      <trkpt lat="43.66179" lon="1.39202">
        <ele>126</ele>
        <time>2023-04-04T16:22:49Z</time>
      </trkpt>
      <trkpt lat="43.6618" lon="1.392">
        <ele>126</ele>
        <time>2023-04-04T16:22:50Z</time>
      </trkpt>
      <trkpt lat="43.66182" lon="1.39199">
        <ele>126</ele>
        <time>2023-04-04T16:22:51Z</time>
      </trkpt>
      <trkpt lat="43.66184" lon="1.39198">
        <ele>126</ele>
        <time>2023-04-04T16:22:52Z</time>
      </trkpt>
      <trkpt lat="43.66185" lon="1.39197">
        <ele>126</ele>
        <time>2023-04-04T16:22:53Z</time>
      </trkpt>
      <trkpt lat="43.66187" lon="1.39196">
        <ele>126</ele>
        <time>2023-04-04T16:22:54Z</time>
      </trkpt>
      <trkpt lat="43.66194" lon="1.39191">
        <ele>126</ele>
        <time>2023-04-04T16:22:55Z</time>
      </trkpt>
      <trkpt lat="43.66197" lon="1.39191">
        <ele>126</ele>
        <time>2023-04-04T16:22:56Z</time>
      </trkpt>
      <trkpt lat="43.66199" lon="1.3919">
        <ele>126</ele>
        <time>2023-04-04T16:22:57Z</time>
      </trkpt>
      <trkpt lat="43.66201" lon="1.39189">
        <ele>126</ele>
        <time>2023-04-04T16:22:58Z</time>
      </trkpt>
      <trkpt lat="43.66203" lon="1.39188">
        <ele>126</ele>
        <time>2023-04-04T16:22:59Z</time>
      </trkpt>
      <trkpt lat="43.66206" lon="1.39185">
        <ele>126</ele>
        <time>2023-04-04T16:23:00Z</time>
      </trkpt>
      <trkpt lat="43.66209" lon="1.39183">
        <ele>126</ele>
        <time>2023-04-04T16:23:01Z</time>
      </trkpt>
      <trkpt lat="43.66211" lon="1.39181">
        <ele>126</ele>
        <time>2023-04-04T16:23:02Z</time>
      </trkpt>
      <trkpt lat="43.66214" lon="1.39179">
        <ele>126</ele>
        <time>2023-04-04T16:23:03Z</time>
      </trkpt>
      <trkpt lat="43.66218" lon="1.39178">
        <ele>126</ele>
        <time>2023-04-04T16:23:04Z</time>
      </trkpt>
      <trkpt lat="43.66221" lon="1.39177">
        <ele>126</ele>
        <time>2023-04-04T16:23:05Z</time>
      </trkpt>
      <trkpt lat="43.66221" lon="1.39177">
        <ele>126</ele>
        <time>2023-04-04T16:23:06Z</time>
      </trkpt>
      <trkpt lat="43.66221" lon="1.39177">
        <ele>126</ele>
        <time>2023-04-04T16:23:07Z</time>
      </trkpt>
      <trkpt lat="43.66221" lon="1.39177">
        <ele>126</ele>
        <time>2023-04-04T16:23:08Z</time>
      </trkpt>
      <trkpt lat="43.6623" lon="1.39169">
        <ele>125</ele>
        <time>2023-04-04T16:23:10Z</time>
      </trkpt>
      <trkpt lat="43.66231" lon="1.39169">
        <ele>125</ele>
        <time>2023-04-04T16:23:11Z</time>
      </trkpt>
      <trkpt lat="43.66233" lon="1.39169">
        <ele>125</ele>
        <time>2023-04-04T16:23:12Z</time>
      </trkpt>
      <trkpt lat="43.66234" lon="1.39168">
        <ele>125</ele>
        <time>2023-04-04T16:23:13Z</time>
      </trkpt>
      <trkpt lat="43.66235" lon="1.39168">
        <ele>126</ele>
        <time>2023-04-04T16:23:14Z</time>
      </trkpt>
      <trkpt lat="43.66242" lon="1.39165">
        <ele>126</ele>
        <time>2023-04-04T16:23:15Z</time>
      </trkpt>
      <trkpt lat="43.66244" lon="1.39163">
        <ele>125</ele>
        <time>2023-04-04T16:23:16Z</time>
      </trkpt>
      <trkpt lat="43.66245" lon="1.39161">
        <ele>126</ele>
        <time>2023-04-04T16:23:17Z</time>
      </trkpt>
      <trkpt lat="43.66247" lon="1.39159">
        <ele>126</ele>
        <time>2023-04-04T16:23:18Z</time>
      </trkpt>
      <trkpt lat="43.66248" lon="1.39158">
        <ele>125</ele>
        <time>2023-04-04T16:23:19Z</time>
      </trkpt>
      <trkpt lat="43.66252" lon="1.39157">
        <ele>124</ele>
        <time>2023-04-04T16:23:20Z</time>
      </trkpt>
      <trkpt lat="43.66255" lon="1.39157">
        <ele>125</ele>
        <time>2023-04-04T16:23:21Z</time>
      </trkpt>
      <trkpt lat="43.66258" lon="1.39156">
        <ele>125</ele>
        <time>2023-04-04T16:23:22Z</time>
      </trkpt>
      <trkpt lat="43.6626" lon="1.39157">
        <ele>125</ele>
        <time>2023-04-04T16:23:23Z</time>
      </trkpt>
      <trkpt lat="43.66262" lon="1.39158">
        <ele>125</ele>
        <time>2023-04-04T16:23:24Z</time>
      </trkpt>
      <trkpt lat="43.66263" lon="1.39159">
        <ele>125</ele>
        <time>2023-04-04T16:23:25Z</time>
      </trkpt>
      <trkpt lat="43.6627" lon="1.39164">
        <ele>124</ele>
        <time>2023-04-04T16:23:26Z</time>
      </trkpt>
      <trkpt lat="43.66272" lon="1.39166">
        <ele>125</ele>
        <time>2023-04-04T16:23:27Z</time>
      </trkpt>
      <trkpt lat="43.66274" lon="1.39167">
        <ele>125</ele>
        <time>2023-04-04T16:23:28Z</time>
      </trkpt>
      <trkpt lat="43.66276" lon="1.39169">
        <ele>125</ele>
        <time>2023-04-04T16:23:29Z</time>
      </trkpt>
      <trkpt lat="43.66277" lon="1.39172">
        <ele>125</ele>
        <time>2023-04-04T16:23:30Z</time>
      </trkpt>
      <trkpt lat="43.66278" lon="1.39174">
        <ele>125</ele>
        <time>2023-04-04T16:23:31Z</time>
      </trkpt>
      <trkpt lat="43.66279" lon="1.39176">
        <ele>125</ele>
        <time>2023-04-04T16:23:32Z</time>
      </trkpt>
      <trkpt lat="43.66282" lon="1.39187">
        <ele>124</ele>
        <time>2023-04-04T16:23:33Z</time>
      </trkpt>
      <trkpt lat="43.66282" lon="1.3919">
        <ele>124</ele>
        <time>2023-04-04T16:23:34Z</time>
      </trkpt>
      <trkpt lat="43.66282" lon="1.39194">
        <ele>124</ele>
        <time>2023-04-04T16:23:35Z</time>
      </trkpt>
      <trkpt lat="43.66282" lon="1.39197">
        <ele>124</ele>
        <time>2023-04-04T16:23:36Z</time>
      </trkpt>
      <trkpt lat="43.66284" lon="1.39204">
        <ele>124</ele>
        <time>2023-04-04T16:23:37Z</time>
      </trkpt>
      <trkpt lat="43.66285" lon="1.39211">
        <ele>125</ele>
        <time>2023-04-04T16:23:38Z</time>
      </trkpt>
      <trkpt lat="43.66285" lon="1.39213">
        <ele>125</ele>
        <time>2023-04-04T16:23:39Z</time>
      </trkpt>
      <trkpt lat="43.66286" lon="1.39215">
        <ele>124</ele>
        <time>2023-04-04T16:23:40Z</time>
      </trkpt>
      <trkpt lat="43.66286" lon="1.39218">
        <ele>124</ele>
        <time>2023-04-04T16:23:41Z</time>
      </trkpt>
      <trkpt lat="43.66287" lon="1.39228">
        <ele>124</ele>
        <time>2023-04-04T16:23:42Z</time>
      </trkpt>
      <trkpt lat="43.66288" lon="1.39231">
        <ele>125</ele>
        <time>2023-04-04T16:23:43Z</time>
      </trkpt>
      <trkpt lat="43.66289" lon="1.39235">
        <ele>125</ele>
        <time>2023-04-04T16:23:44Z</time>
      </trkpt>
      <trkpt lat="43.6629" lon="1.39238">
        <ele>125</ele>
        <time>2023-04-04T16:23:45Z</time>
      </trkpt>
      <trkpt lat="43.6629" lon="1.39238">
        <ele>125</ele>
        <time>2023-04-04T16:23:46Z</time>
      </trkpt>
      <trkpt lat="43.66295" lon="1.3925">
        <ele>125</ele>
        <time>2023-04-04T16:23:48Z</time>
      </trkpt>
      <trkpt lat="43.66297" lon="1.39253">
        <ele>125</ele>
        <time>2023-04-04T16:23:50Z</time>
      </trkpt>
      <trkpt lat="43.66299" lon="1.39257">
        <ele>125</ele>
        <time>2023-04-04T16:23:51Z</time>
      </trkpt>
      <trkpt lat="43.66301" lon="1.3926">
        <ele>125</ele>
        <time>2023-04-04T16:23:52Z</time>
      </trkpt>
      <trkpt lat="43.66302" lon="1.39265">
        <ele>125</ele>
        <time>2023-04-04T16:23:53Z</time>
      </trkpt>
      <trkpt lat="43.66303" lon="1.39269">
        <ele>125</ele>
        <time>2023-04-04T16:23:54Z</time>
      </trkpt>
      <trkpt lat="43.66304" lon="1.39274">
        <ele>126</ele>
        <time>2023-04-04T16:23:55Z</time>
      </trkpt>
      <trkpt lat="43.66305" lon="1.39276">
        <ele>126</ele>
        <time>2023-04-04T16:23:56Z</time>
      </trkpt>
      <trkpt lat="43.66306" lon="1.39278">
        <ele>126</ele>
        <time>2023-04-04T16:23:57Z</time>
      </trkpt>
      <trkpt lat="43.66308" lon="1.3928">
        <ele>126</ele>
        <time>2023-04-04T16:23:58Z</time>
      </trkpt>
      <trkpt lat="43.66309" lon="1.39282">
        <ele>125</ele>
        <time>2023-04-04T16:23:59Z</time>
      </trkpt>
      <trkpt lat="43.6631" lon="1.39285">
        <ele>126</ele>
        <time>2023-04-04T16:24:00Z</time>
      </trkpt>
      <trkpt lat="43.66311" lon="1.39285">
        <ele>126</ele>
        <time>2023-04-04T16:24:01Z</time>
      </trkpt>
      <trkpt lat="43.66312" lon="1.39285">
        <ele>126</ele>
        <time>2023-04-04T16:24:02Z</time>
      </trkpt>
      <trkpt lat="43.66312" lon="1.39285">
        <ele>126</ele>
        <time>2023-04-04T16:24:03Z</time>
      </trkpt>
      <trkpt lat="43.66313" lon="1.39285">
        <ele>126</ele>
        <time>2023-04-04T16:24:04Z</time>
      </trkpt>
      <trkpt lat="43.66314" lon="1.39286">
        <ele>125</ele>
        <time>2023-04-04T16:24:05Z</time>
      </trkpt>
      <trkpt lat="43.66322" lon="1.39288">
        <ele>125</ele>
        <time>2023-04-04T16:24:07Z</time>
      </trkpt>
      <trkpt lat="43.66323" lon="1.39288">
        <ele>124</ele>
        <time>2023-04-04T16:24:08Z</time>
      </trkpt>
      <trkpt lat="43.66324" lon="1.39287">
        <ele>124</ele>
        <time>2023-04-04T16:24:09Z</time>
      </trkpt>
      <trkpt lat="43.66325" lon="1.39287">
        <ele>125</ele>
        <time>2023-04-04T16:24:10Z</time>
      </trkpt>
      <trkpt lat="43.66325" lon="1.39287">
        <ele>125</ele>
        <time>2023-04-04T16:24:11Z</time>
      </trkpt>
      <trkpt lat="43.66326" lon="1.39287">
        <ele>125</ele>
        <time>2023-04-04T16:24:12Z</time>
      </trkpt>
      <trkpt lat="43.66334" lon="1.39284">
        <ele>125</ele>
        <time>2023-04-04T16:24:13Z</time>
      </trkpt>
      <trkpt lat="43.66336" lon="1.39283">
        <ele>125</ele>
        <time>2023-04-04T16:24:14Z</time>
      </trkpt>
      <trkpt lat="43.66338" lon="1.39282">
        <ele>125</ele>
        <time>2023-04-04T16:24:15Z</time>
      </trkpt>
      <trkpt lat="43.6634" lon="1.3928">
        <ele>124</ele>
        <time>2023-04-04T16:24:16Z</time>
      </trkpt>
      <trkpt lat="43.66342" lon="1.3928">
        <ele>125</ele>
        <time>2023-04-04T16:24:17Z</time>
      </trkpt>
      <trkpt lat="43.66344" lon="1.39279">
        <ele>125</ele>
        <time>2023-04-04T16:24:18Z</time>
      </trkpt>
      <trkpt lat="43.66346" lon="1.39278">
        <ele>125</ele>
        <time>2023-04-04T16:24:19Z</time>
      </trkpt>
      <trkpt lat="43.66353" lon="1.39276">
        <ele>125</ele>
        <time>2023-04-04T16:24:20Z</time>
      </trkpt>
      <trkpt lat="43.66354" lon="1.39276">
        <ele>125</ele>
        <time>2023-04-04T16:24:21Z</time>
      </trkpt>
      <trkpt lat="43.66355" lon="1.39277">
        <ele>124</ele>
        <time>2023-04-04T16:24:22Z</time>
      </trkpt>
      <trkpt lat="43.66357" lon="1.39277">
        <ele>124</ele>
        <time>2023-04-04T16:24:23Z</time>
      </trkpt>
      <trkpt lat="43.66362" lon="1.39277">
        <ele>124</ele>
        <time>2023-04-04T16:24:24Z</time>
      </trkpt>
      <trkpt lat="43.66371" lon="1.39282">
        <ele>124</ele>
        <time>2023-04-04T16:24:26Z</time>
      </trkpt>
      <trkpt lat="43.66373" lon="1.39284">
        <ele>124</ele>
        <time>2023-04-04T16:24:27Z</time>
      </trkpt>
      <trkpt lat="43.66375" lon="1.39286">
        <ele>124</ele>
        <time>2023-04-04T16:24:28Z</time>
      </trkpt>
      <trkpt lat="43.66376" lon="1.39287">
        <ele>124</ele>
        <time>2023-04-04T16:24:29Z</time>
      </trkpt>
      <trkpt lat="43.66378" lon="1.39289">
        <ele>124</ele>
        <time>2023-04-04T16:24:30Z</time>
      </trkpt>
      <trkpt lat="43.6638" lon="1.3929">
        <ele>124</ele>
        <time>2023-04-04T16:24:31Z</time>
      </trkpt>
      <trkpt lat="43.66382" lon="1.39291">
        <ele>124</ele>
        <time>2023-04-04T16:24:32Z</time>
      </trkpt>
      <trkpt lat="43.66383" lon="1.39292">
        <ele>124</ele>
        <time>2023-04-04T16:24:33Z</time>
      </trkpt>
      <trkpt lat="43.66389" lon="1.39297">
        <ele>124</ele>
        <time>2023-04-04T16:24:34Z</time>
      </trkpt>
      <trkpt lat="43.6639" lon="1.39298">
        <ele>124</ele>
        <time>2023-04-04T16:24:35Z</time>
      </trkpt>
      <trkpt lat="43.66391" lon="1.393">
        <ele>124</ele>
        <time>2023-04-04T16:24:36Z</time>
      </trkpt>
      <trkpt lat="43.66392" lon="1.39301">
        <ele>124</ele>
        <time>2023-04-04T16:24:37Z</time>
      </trkpt>
      <trkpt lat="43.66397" lon="1.39308">
        <ele>124</ele>
        <time>2023-04-04T16:24:38Z</time>
      </trkpt>
      <trkpt lat="43.66399" lon="1.39309">
        <ele>124</ele>
        <time>2023-04-04T16:24:39Z</time>
      </trkpt>
      <trkpt lat="43.66401" lon="1.39311">
        <ele>124</ele>
        <time>2023-04-04T16:24:40Z</time>
      </trkpt>
      <trkpt lat="43.66403" lon="1.39313">
        <ele>124</ele>
        <time>2023-04-04T16:24:41Z</time>
      </trkpt>
      <trkpt lat="43.66403" lon="1.39313">
        <ele>124</ele>
        <time>2023-04-04T16:24:42Z</time>
      </trkpt>
      <trkpt lat="43.66403" lon="1.39313">
        <ele>124</ele>
        <time>2023-04-04T16:24:43Z</time>
      </trkpt>
      <trkpt lat="43.66413" lon="1.39319">
        <ele>124</ele>
        <time>2023-04-04T16:24:45Z</time>
      </trkpt>
      <trkpt lat="43.66415" lon="1.39319">
        <ele>124</ele>
        <time>2023-04-04T16:24:46Z</time>
      </trkpt>
      <trkpt lat="43.66417" lon="1.3932">
        <ele>124</ele>
        <time>2023-04-04T16:24:47Z</time>
      </trkpt>
      <trkpt lat="43.66419" lon="1.3932">
        <ele>124</ele>
        <time>2023-04-04T16:24:48Z</time>
      </trkpt>
      <trkpt lat="43.66422" lon="1.39321">
        <ele>124</ele>
        <time>2023-04-04T16:24:49Z</time>
      </trkpt>
      <trkpt lat="43.66425" lon="1.39322">
        <ele>124</ele>
        <time>2023-04-04T16:24:50Z</time>
      </trkpt>
      <trkpt lat="43.66428" lon="1.39323">
        <ele>124</ele>
        <time>2023-04-04T16:24:51Z</time>
      </trkpt>
      <trkpt lat="43.66431" lon="1.39324">
        <ele>124</ele>
        <time>2023-04-04T16:24:52Z</time>
      </trkpt>
      <trkpt lat="43.66433" lon="1.39323">
        <ele>125</ele>
        <time>2023-04-04T16:24:53Z</time>
      </trkpt>
      <trkpt lat="43.66436" lon="1.39323">
        <ele>125</ele>
        <time>2023-04-04T16:24:54Z</time>
      </trkpt>
      <trkpt lat="43.66438" lon="1.39323">
        <ele>125</ele>
        <time>2023-04-04T16:24:55Z</time>
      </trkpt>
      <trkpt lat="43.66441" lon="1.39323">
        <ele>125</ele>
        <time>2023-04-04T16:24:56Z</time>
      </trkpt>
      <trkpt lat="43.66444" lon="1.39323">
        <ele>125</ele>
        <time>2023-04-04T16:24:57Z</time>
      </trkpt>
      <trkpt lat="43.66446" lon="1.39323">
        <ele>125</ele>
        <time>2023-04-04T16:24:58Z</time>
      </trkpt>
      <trkpt lat="43.66448" lon="1.39322">
        <ele>125</ele>
        <time>2023-04-04T16:24:59Z</time>
      </trkpt>
      <trkpt lat="43.66451" lon="1.39322">
        <ele>125</ele>
        <time>2023-04-04T16:25:00Z</time>
      </trkpt>
      <trkpt lat="43.66453" lon="1.39322">
        <ele>125</ele>
        <time>2023-04-04T16:25:01Z</time>
      </trkpt>
      <trkpt lat="43.66456" lon="1.39321">
        <ele>125</ele>
        <time>2023-04-04T16:25:02Z</time>
      </trkpt>
      <trkpt lat="43.66459" lon="1.39321">
        <ele>125</ele>
        <time>2023-04-04T16:25:04Z</time>
      </trkpt>
      <trkpt lat="43.66463" lon="1.39321">
        <ele>125</ele>
        <time>2023-04-04T16:25:05Z</time>
      </trkpt>
      <trkpt lat="43.66466" lon="1.39321">
        <ele>125</ele>
        <time>2023-04-04T16:25:06Z</time>
      </trkpt>
      <trkpt lat="43.66468" lon="1.3932">
        <ele>126</ele>
        <time>2023-04-04T16:25:07Z</time>
      </trkpt>
      <trkpt lat="43.6647" lon="1.39319">
        <ele>126</ele>
        <time>2023-04-04T16:25:08Z</time>
      </trkpt>
      <trkpt lat="43.66475" lon="1.39318">
        <ele>126</ele>
        <time>2023-04-04T16:25:09Z</time>
      </trkpt>
      <trkpt lat="43.66476" lon="1.39317">
        <ele>126</ele>
        <time>2023-04-04T16:25:10Z</time>
      </trkpt>
      <trkpt lat="43.66479" lon="1.39317">
        <ele>126</ele>
        <time>2023-04-04T16:25:11Z</time>
      </trkpt>
      <trkpt lat="43.66481" lon="1.39318">
        <ele>125</ele>
        <time>2023-04-04T16:25:12Z</time>
      </trkpt>
      <trkpt lat="43.66483" lon="1.3932">
        <ele>125</ele>
        <time>2023-04-04T16:25:13Z</time>
      </trkpt>
      <trkpt lat="43.66486" lon="1.39322">
        <ele>125</ele>
        <time>2023-04-04T16:25:14Z</time>
      </trkpt>
      <trkpt lat="43.66488" lon="1.39324">
        <ele>125</ele>
        <time>2023-04-04T16:25:15Z</time>
      </trkpt>
      <trkpt lat="43.66491" lon="1.39325">
        <ele>125</ele>
        <time>2023-04-04T16:25:16Z</time>
      </trkpt>
      <trkpt lat="43.66494" lon="1.39326">
        <ele>124</ele>
        <time>2023-04-04T16:25:17Z</time>
      </trkpt>
      <trkpt lat="43.66497" lon="1.39327">
        <ele>124</ele>
        <time>2023-04-04T16:25:18Z</time>
      </trkpt>
      <trkpt lat="43.665" lon="1.39327">
        <ele>124</ele>
        <time>2023-04-04T16:25:19Z</time>
      </trkpt>
      <trkpt lat="43.66502" lon="1.39328">
        <ele>124</ele>
        <time>2023-04-04T16:25:20Z</time>
      </trkpt>
      <trkpt lat="43.66504" lon="1.39329">
        <ele>124</ele>
        <time>2023-04-04T16:25:21Z</time>
      </trkpt>
      <trkpt lat="43.66506" lon="1.39334">
        <ele>124</ele>
        <time>2023-04-04T16:25:22Z</time>
      </trkpt>
      <trkpt lat="43.66507" lon="1.39335">
        <ele>124</ele>
        <time>2023-04-04T16:25:23Z</time>
      </trkpt>
      <trkpt lat="43.66507" lon="1.39339">
        <ele>124</ele>
        <time>2023-04-04T16:25:24Z</time>
      </trkpt>
      <trkpt lat="43.66508" lon="1.39342">
        <ele>123</ele>
        <time>2023-04-04T16:25:25Z</time>
      </trkpt>
      <trkpt lat="43.66508" lon="1.39345">
        <ele>123</ele>
        <time>2023-04-04T16:25:26Z</time>
      </trkpt>
      <trkpt lat="43.66508" lon="1.39349">
        <ele>123</ele>
        <time>2023-04-04T16:25:28Z</time>
      </trkpt>
      <trkpt lat="43.66509" lon="1.39352">
        <ele>123</ele>
        <time>2023-04-04T16:25:29Z</time>
      </trkpt>
      <trkpt lat="43.66509" lon="1.39358">
        <ele>123</ele>
        <time>2023-04-04T16:25:30Z</time>
      </trkpt>
      <trkpt lat="43.6651" lon="1.39365">
        <ele>124</ele>
        <time>2023-04-04T16:25:31Z</time>
      </trkpt>
      <trkpt lat="43.66511" lon="1.39369">
        <ele>124</ele>
        <time>2023-04-04T16:25:32Z</time>
      </trkpt>
      <trkpt lat="43.66511" lon="1.39373">
        <ele>124</ele>
        <time>2023-04-04T16:25:33Z</time>
      </trkpt>
      <trkpt lat="43.66511" lon="1.39378">
        <ele>124</ele>
        <time>2023-04-04T16:25:34Z</time>
      </trkpt>
      <trkpt lat="43.66513" lon="1.39381">
        <ele>124</ele>
        <time>2023-04-04T16:25:35Z</time>
      </trkpt>
      <trkpt lat="43.66515" lon="1.39384">
        <ele>124</ele>
        <time>2023-04-04T16:25:36Z</time>
      </trkpt>
      <trkpt lat="43.66517" lon="1.39387">
        <ele>124</ele>
        <time>2023-04-04T16:25:37Z</time>
      </trkpt>
      <trkpt lat="43.66517" lon="1.39387">
        <ele>124</ele>
        <time>2023-04-04T16:25:38Z</time>
      </trkpt>
      <trkpt lat="43.66517" lon="1.39387">
        <ele>124</ele>
        <time>2023-04-04T16:25:39Z</time>
      </trkpt>
      <trkpt lat="43.66517" lon="1.39387">
        <ele>124</ele>
        <time>2023-04-04T16:25:40Z</time>
      </trkpt>
      <trkpt lat="43.66525" lon="1.39398">
        <ele>124</ele>
        <time>2023-04-04T16:25:42Z</time>
      </trkpt>
      <trkpt lat="43.66526" lon="1.394">
        <ele>124</ele>
        <time>2023-04-04T16:25:43Z</time>
      </trkpt>
      <trkpt lat="43.66527" lon="1.39402">
        <ele>123</ele>
        <time>2023-04-04T16:25:44Z</time>
      </trkpt>
      <trkpt lat="43.66529" lon="1.39405">
        <ele>124</ele>
        <time>2023-04-04T16:25:45Z</time>
      </trkpt>
      <trkpt lat="43.6653" lon="1.39407">
        <ele>124</ele>
        <time>2023-04-04T16:25:46Z</time>
      </trkpt>
      <trkpt lat="43.66531" lon="1.39409">
        <ele>124</ele>
        <time>2023-04-04T16:25:47Z</time>
      </trkpt>
      <trkpt lat="43.66532" lon="1.39411">
        <ele>124</ele>
        <time>2023-04-04T16:25:48Z</time>
      </trkpt>
      <trkpt lat="43.66533" lon="1.39413">
        <ele>124</ele>
        <time>2023-04-04T16:25:49Z</time>
      </trkpt>
      <trkpt lat="43.66534" lon="1.39415">
        <ele>123</ele>
        <time>2023-04-04T16:25:50Z</time>
      </trkpt>
      <trkpt lat="43.66535" lon="1.39418">
        <ele>123</ele>
        <time>2023-04-04T16:25:51Z</time>
      </trkpt>
      <trkpt lat="43.6654" lon="1.39428">
        <ele>123</ele>
        <time>2023-04-04T16:25:52Z</time>
      </trkpt>
      <trkpt lat="43.66542" lon="1.39432">
        <ele>123</ele>
        <time>2023-04-04T16:25:53Z</time>
      </trkpt>
      <trkpt lat="43.66543" lon="1.39435">
        <ele>123</ele>
        <time>2023-04-04T16:25:54Z</time>
      </trkpt>
      <trkpt lat="43.66546" lon="1.39438">
        <ele>123</ele>
        <time>2023-04-04T16:25:55Z</time>
      </trkpt>
      <trkpt lat="43.66548" lon="1.39442">
        <ele>123</ele>
        <time>2023-04-04T16:25:56Z</time>
      </trkpt>
      <trkpt lat="43.66551" lon="1.39445">
        <ele>123</ele>
        <time>2023-04-04T16:25:57Z</time>
      </trkpt>
      <trkpt lat="43.66551" lon="1.39445">
        <ele>123</ele>
        <time>2023-04-04T16:25:58Z</time>
      </trkpt>
      <trkpt lat="43.66551" lon="1.39445">
        <ele>123</ele>
        <time>2023-04-04T16:25:59Z</time>
      </trkpt>
      <trkpt lat="43.66559" lon="1.39455">
        <ele>123</ele>
        <time>2023-04-04T16:26:01Z</time>
      </trkpt>
      <trkpt lat="43.6656" lon="1.39457">
        <ele>123</ele>
        <time>2023-04-04T16:26:02Z</time>
      </trkpt>
      <trkpt lat="43.66561" lon="1.3946">
        <ele>123</ele>
        <time>2023-04-04T16:26:03Z</time>
      </trkpt>
      <trkpt lat="43.66562" lon="1.39462">
        <ele>123</ele>
        <time>2023-04-04T16:26:04Z</time>
      </trkpt>
      <trkpt lat="43.66563" lon="1.39465">
        <ele>123</ele>
        <time>2023-04-04T16:26:05Z</time>
      </trkpt>
      <trkpt lat="43.66565" lon="1.39467">
        <ele>123</ele>
        <time>2023-04-04T16:26:06Z</time>
      </trkpt>
      <trkpt lat="43.66567" lon="1.39471">
        <ele>123</ele>
        <time>2023-04-04T16:26:07Z</time>
      </trkpt>
      <trkpt lat="43.66568" lon="1.39474">
        <ele>123</ele>
        <time>2023-04-04T16:26:08Z</time>
      </trkpt>
      <trkpt lat="43.6657" lon="1.39478">
        <ele>123</ele>
        <time>2023-04-04T16:26:09Z</time>
      </trkpt>
      <trkpt lat="43.66572" lon="1.39481">
        <ele>123</ele>
        <time>2023-04-04T16:26:10Z</time>
      </trkpt>
      <trkpt lat="43.66573" lon="1.39483">
        <ele>123</ele>
        <time>2023-04-04T16:26:11Z</time>
      </trkpt>
      <trkpt lat="43.66575" lon="1.39486">
        <ele>124</ele>
        <time>2023-04-04T16:26:12Z</time>
      </trkpt>
      <trkpt lat="43.66577" lon="1.39488">
        <ele>124</ele>
        <time>2023-04-04T16:26:13Z</time>
      </trkpt>
      <trkpt lat="43.66579" lon="1.3949">
        <ele>124</ele>
        <time>2023-04-04T16:26:14Z</time>
      </trkpt>
      <trkpt lat="43.66581" lon="1.39492">
        <ele>124</ele>
        <time>2023-04-04T16:26:15Z</time>
      </trkpt>
      <trkpt lat="43.66583" lon="1.39494">
        <ele>124</ele>
        <time>2023-04-04T16:26:16Z</time>
      </trkpt>
      <trkpt lat="43.66585" lon="1.39496">
        <ele>124</ele>
        <time>2023-04-04T16:26:17Z</time>
      </trkpt>
      <trkpt lat="43.66586" lon="1.39497">
        <ele>124</ele>
        <time>2023-04-04T16:26:18Z</time>
      </trkpt>
      <trkpt lat="43.66588" lon="1.39498">
        <ele>123</ele>
        <time>2023-04-04T16:26:20Z</time>
      </trkpt>
      <trkpt lat="43.66589" lon="1.395">
        <ele>123</ele>
        <time>2023-04-04T16:26:21Z</time>
      </trkpt>
      <trkpt lat="43.66594" lon="1.39507">
        <ele>123</ele>
        <time>2023-04-04T16:26:22Z</time>
      </trkpt>
      <trkpt lat="43.66594" lon="1.3951">
        <ele>123</ele>
        <time>2023-04-04T16:26:23Z</time>
      </trkpt>
      <trkpt lat="43.66594" lon="1.39513">
        <ele>123</ele>
        <time>2023-04-04T16:26:24Z</time>
      </trkpt>
      <trkpt lat="43.66594" lon="1.39516">
        <ele>123</ele>
        <time>2023-04-04T16:26:25Z</time>
      </trkpt>
      <trkpt lat="43.66594" lon="1.39519">
        <ele>122</ele>
        <time>2023-04-04T16:26:26Z</time>
      </trkpt>
      <trkpt lat="43.66594" lon="1.39522">
        <ele>123</ele>
        <time>2023-04-04T16:26:27Z</time>
      </trkpt>
      <trkpt lat="43.66595" lon="1.39524">
        <ele>123</ele>
        <time>2023-04-04T16:26:28Z</time>
      </trkpt>
      <trkpt lat="43.66595" lon="1.39527">
        <ele>123</ele>
        <time>2023-04-04T16:26:29Z</time>
      </trkpt>
      <trkpt lat="43.66596" lon="1.39536">
        <ele>123</ele>
        <time>2023-04-04T16:26:30Z</time>
      </trkpt>
      <trkpt lat="43.66597" lon="1.39538">
        <ele>123</ele>
        <time>2023-04-04T16:26:31Z</time>
      </trkpt>
      <trkpt lat="43.66598" lon="1.39539">
        <ele>123</ele>
        <time>2023-04-04T16:26:32Z</time>
      </trkpt>
      <trkpt lat="43.66599" lon="1.39541">
        <ele>123</ele>
        <time>2023-04-04T16:26:33Z</time>
      </trkpt>
      <trkpt lat="43.66602" lon="1.39549">
        <ele>123</ele>
        <time>2023-04-04T16:26:34Z</time>
      </trkpt>
      <trkpt lat="43.66603" lon="1.3955">
        <ele>123</ele>
        <time>2023-04-04T16:26:35Z</time>
      </trkpt>
      <trkpt lat="43.66603" lon="1.39551">
        <ele>123</ele>
        <time>2023-04-04T16:26:36Z</time>
      </trkpt>
      <trkpt lat="43.66604" lon="1.39552">
        <ele>123</ele>
        <time>2023-04-04T16:26:37Z</time>
      </trkpt>
      <trkpt lat="43.66608" lon="1.39565">
        <ele>123</ele>
        <time>2023-04-04T16:26:39Z</time>
      </trkpt>
      <trkpt lat="43.66609" lon="1.39569">
        <ele>124</ele>
        <time>2023-04-04T16:26:40Z</time>
      </trkpt>
      <trkpt lat="43.66609" lon="1.39573">
        <ele>124</ele>
        <time>2023-04-04T16:26:41Z</time>
      </trkpt>
      <trkpt lat="43.6661" lon="1.39576">
        <ele>124</ele>
        <time>2023-04-04T16:26:42Z</time>
      </trkpt>
      <trkpt lat="43.6661" lon="1.39578">
        <ele>124</ele>
        <time>2023-04-04T16:26:43Z</time>
      </trkpt>
      <trkpt lat="43.66611" lon="1.3958">
        <ele>124</ele>
        <time>2023-04-04T16:26:44Z</time>
      </trkpt>
      <trkpt lat="43.66611" lon="1.39582">
        <ele>124</ele>
        <time>2023-04-04T16:26:45Z</time>
      </trkpt>
      <trkpt lat="43.66611" lon="1.39584">
        <ele>124</ele>
        <time>2023-04-04T16:26:46Z</time>
      </trkpt>
      <trkpt lat="43.66614" lon="1.39595">
        <ele>124</ele>
        <time>2023-04-04T16:26:47Z</time>
      </trkpt>
      <trkpt lat="43.66615" lon="1.39598">
        <ele>124</ele>
        <time>2023-04-04T16:26:48Z</time>
      </trkpt>
      <trkpt lat="43.66616" lon="1.39601">
        <ele>124</ele>
        <time>2023-04-04T16:26:49Z</time>
      </trkpt>
      <trkpt lat="43.66617" lon="1.39604">
        <ele>124</ele>
        <time>2023-04-04T16:26:50Z</time>
      </trkpt>
      <trkpt lat="43.66617" lon="1.39607">
        <ele>124</ele>
        <time>2023-04-04T16:26:51Z</time>
      </trkpt>
      <trkpt lat="43.66618" lon="1.3961">
        <ele>123</ele>
        <time>2023-04-04T16:26:52Z</time>
      </trkpt>
      <trkpt lat="43.66618" lon="1.39612">
        <ele>123</ele>
        <time>2023-04-04T16:26:53Z</time>
      </trkpt>
      <trkpt lat="43.66621" lon="1.39622">
        <ele>123</ele>
        <time>2023-04-04T16:26:54Z</time>
      </trkpt>
      <trkpt lat="43.66621" lon="1.39625">
        <ele>123</ele>
        <time>2023-04-04T16:26:55Z</time>
      </trkpt>
      <trkpt lat="43.66622" lon="1.39628">
        <ele>123</ele>
        <time>2023-04-04T16:26:56Z</time>
      </trkpt>
      <trkpt lat="43.66622" lon="1.39631">
        <ele>123</ele>
        <time>2023-04-04T16:26:57Z</time>
      </trkpt>
      <trkpt lat="43.66623" lon="1.39634">
        <ele>123</ele>
        <time>2023-04-04T16:26:58Z</time>
      </trkpt>
      <trkpt lat="43.66623" lon="1.39638">
        <ele>123</ele>
        <time>2023-04-04T16:26:59Z</time>
      </trkpt>
      <trkpt lat="43.66624" lon="1.39642">
        <ele>123</ele>
        <time>2023-04-04T16:27:00Z</time>
      </trkpt>
      <trkpt lat="43.66625" lon="1.39646">
        <ele>123</ele>
        <time>2023-04-04T16:27:01Z</time>
      </trkpt>
      <trkpt lat="43.66625" lon="1.3965">
        <ele>123</ele>
        <time>2023-04-04T16:27:02Z</time>
      </trkpt>
      <trkpt lat="43.66626" lon="1.39653">
        <ele>123</ele>
        <time>2023-04-04T16:27:03Z</time>
      </trkpt>
      <trkpt lat="43.66626" lon="1.39656">
        <ele>123</ele>
        <time>2023-04-04T16:27:04Z</time>
      </trkpt>
      <trkpt lat="43.66627" lon="1.39658">
        <ele>123</ele>
        <time>2023-04-04T16:27:05Z</time>
      </trkpt>
      <trkpt lat="43.66629" lon="1.39668">
        <ele>123</ele>
        <time>2023-04-04T16:27:06Z</time>
      </trkpt>
      <trkpt lat="43.66629" lon="1.3967">
        <ele>123</ele>
        <time>2023-04-04T16:27:07Z</time>
      </trkpt>
      <trkpt lat="43.6663" lon="1.39672">
        <ele>123</ele>
        <time>2023-04-04T16:27:08Z</time>
      </trkpt>
      <trkpt lat="43.6663" lon="1.39673">
        <ele>123</ele>
        <time>2023-04-04T16:27:09Z</time>
      </trkpt>
      <trkpt lat="43.66632" lon="1.39683">
        <ele>123</ele>
        <time>2023-04-04T16:27:10Z</time>
      </trkpt>
      <trkpt lat="43.66632" lon="1.39685">
        <ele>123</ele>
        <time>2023-04-04T16:27:11Z</time>
      </trkpt>
      <trkpt lat="43.66632" lon="1.39686">
        <ele>123</ele>
        <time>2023-04-04T16:27:12Z</time>
      </trkpt>
      <trkpt lat="43.66632" lon="1.39688">
        <ele>123</ele>
        <time>2023-04-04T16:27:13Z</time>
      </trkpt>
      <trkpt lat="43.66633" lon="1.39699">
        <ele>123</ele>
        <time>2023-04-04T16:27:14Z</time>
      </trkpt>
      <trkpt lat="43.66633" lon="1.39702">
        <ele>123</ele>
        <time>2023-04-04T16:27:15Z</time>
      </trkpt>
      <trkpt lat="43.66633" lon="1.39705">
        <ele>123</ele>
        <time>2023-04-04T16:27:17Z</time>
      </trkpt>
      <trkpt lat="43.66634" lon="1.39708">
        <ele>123</ele>
        <time>2023-04-04T16:27:18Z</time>
      </trkpt>
      <trkpt lat="43.66634" lon="1.39711">
        <ele>123</ele>
        <time>2023-04-04T16:27:19Z</time>
      </trkpt>
      <trkpt lat="43.66635" lon="1.39715">
        <ele>123</ele>
        <time>2023-04-04T16:27:20Z</time>
      </trkpt>
      <trkpt lat="43.66637" lon="1.39724">
        <ele>124</ele>
        <time>2023-04-04T16:27:21Z</time>
      </trkpt>
      <trkpt lat="43.66637" lon="1.39726">
        <ele>124</ele>
        <time>2023-04-04T16:27:22Z</time>
      </trkpt>
      <trkpt lat="43.66637" lon="1.39728">
        <ele>124</ele>
        <time>2023-04-04T16:27:23Z</time>
      </trkpt>
      <trkpt lat="43.66637" lon="1.39729">
        <ele>124</ele>
        <time>2023-04-04T16:27:24Z</time>
      </trkpt>
      <trkpt lat="43.66638" lon="1.3974">
        <ele>124</ele>
        <time>2023-04-04T16:27:25Z</time>
      </trkpt>
      <trkpt lat="43.66639" lon="1.39744">
        <ele>124</ele>
        <time>2023-04-04T16:27:26Z</time>
      </trkpt>
      <trkpt lat="43.66639" lon="1.39747">
        <ele>124</ele>
        <time>2023-04-04T16:27:27Z</time>
      </trkpt>
      <trkpt lat="43.6664" lon="1.3975">
        <ele>124</ele>
        <time>2023-04-04T16:27:28Z</time>
      </trkpt>
      <trkpt lat="43.66639" lon="1.39753">
        <ele>124</ele>
        <time>2023-04-04T16:27:29Z</time>
      </trkpt>
      <trkpt lat="43.66639" lon="1.39757">
        <ele>124</ele>
        <time>2023-04-04T16:27:30Z</time>
      </trkpt>
      <trkpt lat="43.66639" lon="1.39761">
        <ele>124</ele>
        <time>2023-04-04T16:27:31Z</time>
      </trkpt>
      <trkpt lat="43.66639" lon="1.39764">
        <ele>124</ele>
        <time>2023-04-04T16:27:32Z</time>
      </trkpt>
      <trkpt lat="43.66639" lon="1.39768">
        <ele>124</ele>
        <time>2023-04-04T16:27:33Z</time>
      </trkpt>
      <trkpt lat="43.66638" lon="1.39772">
        <ele>124</ele>
        <time>2023-04-04T16:27:34Z</time>
      </trkpt>
      <trkpt lat="43.66638" lon="1.39776">
        <ele>124</ele>
        <time>2023-04-04T16:27:36Z</time>
      </trkpt>
      <trkpt lat="43.66638" lon="1.3978">
        <ele>124</ele>
        <time>2023-04-04T16:27:37Z</time>
      </trkpt>
      <trkpt lat="43.66636" lon="1.39786">
        <ele>124</ele>
        <time>2023-04-04T16:27:38Z</time>
      </trkpt>
      <trkpt lat="43.66635" lon="1.39793">
        <ele>124</ele>
        <time>2023-04-04T16:27:39Z</time>
      </trkpt>
      <trkpt lat="43.66635" lon="1.39795">
        <ele>124</ele>
        <time>2023-04-04T16:27:40Z</time>
      </trkpt>
      <trkpt lat="43.66634" lon="1.39797">
        <ele>124</ele>
        <time>2023-04-04T16:27:41Z</time>
      </trkpt>
      <trkpt lat="43.66634" lon="1.39799">
        <ele>124</ele>
        <time>2023-04-04T16:27:42Z</time>
      </trkpt>
      <trkpt lat="43.66634" lon="1.39802">
        <ele>124</ele>
        <time>2023-04-04T16:27:43Z</time>
      </trkpt>
      <trkpt lat="43.66633" lon="1.39811">
        <ele>124</ele>
        <time>2023-04-04T16:27:44Z</time>
      </trkpt>
      <trkpt lat="43.66633" lon="1.39815">
        <ele>124</ele>
        <time>2023-04-04T16:27:45Z</time>
      </trkpt>
      <trkpt lat="43.66633" lon="1.39819">
        <ele>124</ele>
        <time>2023-04-04T16:27:46Z</time>
      </trkpt>
      <trkpt lat="43.66632" lon="1.39822">
        <ele>124</ele>
        <time>2023-04-04T16:27:47Z</time>
      </trkpt>
      <trkpt lat="43.66631" lon="1.39825">
        <ele>124</ele>
        <time>2023-04-04T16:27:48Z</time>
      </trkpt>
      <trkpt lat="43.66632" lon="1.39829">
        <ele>124</ele>
        <time>2023-04-04T16:27:49Z</time>
      </trkpt>
      <trkpt lat="43.66632" lon="1.39832">
        <ele>124</ele>
        <time>2023-04-04T16:27:50Z</time>
      </trkpt>
      <trkpt lat="43.66632" lon="1.39835">
        <ele>124</ele>
        <time>2023-04-04T16:27:51Z</time>
      </trkpt>
      <trkpt lat="43.66633" lon="1.39839">
        <ele>124</ele>
        <time>2023-04-04T16:27:52Z</time>
      </trkpt>
      <trkpt lat="43.66634" lon="1.39843">
        <ele>124</ele>
        <time>2023-04-04T16:27:53Z</time>
      </trkpt>
      <trkpt lat="43.66634" lon="1.39849">
        <ele>124</ele>
        <time>2023-04-04T16:27:54Z</time>
      </trkpt>
      <trkpt lat="43.66635" lon="1.39851">
        <ele>124</ele>
        <time>2023-04-04T16:27:55Z</time>
      </trkpt>
      <trkpt lat="43.66635" lon="1.39855">
        <ele>124</ele>
        <time>2023-04-04T16:27:56Z</time>
      </trkpt>
      <trkpt lat="43.66635" lon="1.39864">
        <ele>124</ele>
        <time>2023-04-04T16:27:57Z</time>
      </trkpt>
      <trkpt lat="43.66635" lon="1.39864">
        <ele>123</ele>
        <time>2023-04-04T16:27:58Z</time>
      </trkpt>
      <trkpt lat="43.66635" lon="1.39868">
        <ele>123</ele>
        <time>2023-04-04T16:27:59Z</time>
      </trkpt>
      <trkpt lat="43.66635" lon="1.39872">
        <ele>123</ele>
        <time>2023-04-04T16:28:00Z</time>
      </trkpt>
      <trkpt lat="43.66634" lon="1.39876">
        <ele>123</ele>
        <time>2023-04-04T16:28:01Z</time>
      </trkpt>
      <trkpt lat="43.66634" lon="1.39879">
        <ele>123</ele>
        <time>2023-04-04T16:28:02Z</time>
      </trkpt>
      <trkpt lat="43.66633" lon="1.39882">
        <ele>123</ele>
        <time>2023-04-04T16:28:03Z</time>
      </trkpt>
      <trkpt lat="43.66632" lon="1.39886">
        <ele>123</ele>
        <time>2023-04-04T16:28:04Z</time>
      </trkpt>
      <trkpt lat="43.66632" lon="1.39889">
        <ele>123</ele>
        <time>2023-04-04T16:28:05Z</time>
      </trkpt>
      <trkpt lat="43.6663" lon="1.39892">
        <ele>123</ele>
        <time>2023-04-04T16:28:06Z</time>
      </trkpt>
      <trkpt lat="43.66629" lon="1.39896">
        <ele>123</ele>
        <time>2023-04-04T16:28:07Z</time>
      </trkpt>
      <trkpt lat="43.66627" lon="1.399">
        <ele>123</ele>
        <time>2023-04-04T16:28:08Z</time>
      </trkpt>
      <trkpt lat="43.66626" lon="1.39904">
        <ele>123</ele>
        <time>2023-04-04T16:28:09Z</time>
      </trkpt>
      <trkpt lat="43.66624" lon="1.39907">
        <ele>124</ele>
        <time>2023-04-04T16:28:10Z</time>
      </trkpt>
      <trkpt lat="43.66622" lon="1.39912">
        <ele>124</ele>
        <time>2023-04-04T16:28:11Z</time>
      </trkpt>
      <trkpt lat="43.66622" lon="1.39914">
        <ele>124</ele>
        <time>2023-04-04T16:28:12Z</time>
      </trkpt>
      <trkpt lat="43.6662" lon="1.39919">
        <ele>124</ele>
        <time>2023-04-04T16:28:13Z</time>
      </trkpt>
      <trkpt lat="43.66619" lon="1.39921">
        <ele>124</ele>
        <time>2023-04-04T16:28:14Z</time>
      </trkpt>
      <trkpt lat="43.66617" lon="1.39923">
        <ele>124</ele>
        <time>2023-04-04T16:28:15Z</time>
      </trkpt>
      <trkpt lat="43.66616" lon="1.39926">
        <ele>124</ele>
        <time>2023-04-04T16:28:16Z</time>
      </trkpt>
      <trkpt lat="43.66615" lon="1.39928">
        <ele>124</ele>
        <time>2023-04-04T16:28:17Z</time>
      </trkpt>
      <trkpt lat="43.66615" lon="1.39931">
        <ele>124</ele>
        <time>2023-04-04T16:28:18Z</time>
      </trkpt>
      <trkpt lat="43.66614" lon="1.39936">
        <ele>124</ele>
        <time>2023-04-04T16:28:19Z</time>
      </trkpt>
      <trkpt lat="43.66614" lon="1.3994">
        <ele>124</ele>
        <time>2023-04-04T16:28:20Z</time>
      </trkpt>
      <trkpt lat="43.66613" lon="1.39944">
        <ele>124</ele>
        <time>2023-04-04T16:28:21Z</time>
      </trkpt>
      <trkpt lat="43.66612" lon="1.39948">
        <ele>124</ele>
        <time>2023-04-04T16:28:22Z</time>
      </trkpt>
      <trkpt lat="43.66611" lon="1.39952">
        <ele>124</ele>
        <time>2023-04-04T16:28:23Z</time>
      </trkpt>
      <trkpt lat="43.66609" lon="1.39956">
        <ele>124</ele>
        <time>2023-04-04T16:28:24Z</time>
      </trkpt>
      <trkpt lat="43.66609" lon="1.39959">
        <ele>124</ele>
        <time>2023-04-04T16:28:25Z</time>
      </trkpt>
      <trkpt lat="43.66607" lon="1.39964">
        <ele>124</ele>
        <time>2023-04-04T16:28:26Z</time>
      </trkpt>
      <trkpt lat="43.66606" lon="1.39967">
        <ele>124</ele>
        <time>2023-04-04T16:28:27Z</time>
      </trkpt>
      <trkpt lat="43.66606" lon="1.39971">
        <ele>124</ele>
        <time>2023-04-04T16:28:28Z</time>
      </trkpt>
      <trkpt lat="43.66605" lon="1.39977">
        <ele>124</ele>
        <time>2023-04-04T16:28:29Z</time>
      </trkpt>
      <trkpt lat="43.66604" lon="1.3998">
        <ele>124</ele>
        <time>2023-04-04T16:28:30Z</time>
      </trkpt>
      <trkpt lat="43.66604" lon="1.3998">
        <ele>124</ele>
        <time>2023-04-04T16:28:31Z</time>
      </trkpt>
      <trkpt lat="43.666" lon="1.39989">
        <ele>124</ele>
        <time>2023-04-04T16:28:33Z</time>
      </trkpt>
      <trkpt lat="43.666" lon="1.39991">
        <ele>124</ele>
        <time>2023-04-04T16:28:34Z</time>
      </trkpt>
      <trkpt lat="43.66599" lon="1.39995">
        <ele>124</ele>
        <time>2023-04-04T16:28:35Z</time>
      </trkpt>
      <trkpt lat="43.66598" lon="1.39999">
        <ele>124</ele>
        <time>2023-04-04T16:28:36Z</time>
      </trkpt>
      <trkpt lat="43.66597" lon="1.40002">
        <ele>124</ele>
        <time>2023-04-04T16:28:37Z</time>
      </trkpt>
      <trkpt lat="43.66596" lon="1.40006">
        <ele>124</ele>
        <time>2023-04-04T16:28:38Z</time>
      </trkpt>
      <trkpt lat="43.66595" lon="1.4001">
        <ele>124</ele>
        <time>2023-04-04T16:28:39Z</time>
      </trkpt>
      <trkpt lat="43.66594" lon="1.40014">
        <ele>124</ele>
        <time>2023-04-04T16:28:40Z</time>
      </trkpt>
      <trkpt lat="43.66593" lon="1.40017">
        <ele>124</ele>
        <time>2023-04-04T16:28:41Z</time>
      </trkpt>
      <trkpt lat="43.66592" lon="1.40021">
        <ele>124</ele>
        <time>2023-04-04T16:28:42Z</time>
      </trkpt>
      <trkpt lat="43.66591" lon="1.40024">
        <ele>124</ele>
        <time>2023-04-04T16:28:43Z</time>
      </trkpt>
      <trkpt lat="43.66591" lon="1.40024">
        <ele>124</ele>
        <time>2023-04-04T16:28:44Z</time>
      </trkpt>
      <trkpt lat="43.66589" lon="1.40029">
        <ele>124</ele>
        <time>2023-04-04T16:28:45Z</time>
      </trkpt>
      <trkpt lat="43.66588" lon="1.40031">
        <ele>124</ele>
        <time>2023-04-04T16:28:46Z</time>
      </trkpt>
      <trkpt lat="43.66586" lon="1.40033">
        <ele>124</ele>
        <time>2023-04-04T16:28:47Z</time>
      </trkpt>
      <trkpt lat="43.66585" lon="1.40036">
        <ele>124</ele>
        <time>2023-04-04T16:28:48Z</time>
      </trkpt>
      <trkpt lat="43.66584" lon="1.40039">
        <ele>124</ele>
        <time>2023-04-04T16:28:49Z</time>
      </trkpt>
      <trkpt lat="43.66583" lon="1.40041">
        <ele>124</ele>
        <time>2023-04-04T16:28:50Z</time>
      </trkpt>
      <trkpt lat="43.66582" lon="1.40044">
        <ele>124</ele>
        <time>2023-04-04T16:28:51Z</time>
      </trkpt>
      <trkpt lat="43.6658" lon="1.40047">
        <ele>124</ele>
        <time>2023-04-04T16:28:52Z</time>
      </trkpt>
      <trkpt lat="43.6658" lon="1.40049">
        <ele>124</ele>
        <time>2023-04-04T16:28:53Z</time>
      </trkpt>
      <trkpt lat="43.66579" lon="1.40051">
        <ele>124</ele>
        <time>2023-04-04T16:28:54Z</time>
      </trkpt>
      <trkpt lat="43.66578" lon="1.40053">
        <ele>124</ele>
        <time>2023-04-04T16:28:55Z</time>
      </trkpt>
      <trkpt lat="43.66574" lon="1.40061">
        <ele>124</ele>
        <time>2023-04-04T16:28:56Z</time>
      </trkpt>
      <trkpt lat="43.66573" lon="1.40063">
        <ele>124</ele>
        <time>2023-04-04T16:28:57Z</time>
      </trkpt>
      <trkpt lat="43.66572" lon="1.40064">
        <ele>124</ele>
        <time>2023-04-04T16:28:58Z</time>
      </trkpt>
      <trkpt lat="43.66572" lon="1.40066">
        <ele>124</ele>
        <time>2023-04-04T16:28:59Z</time>
      </trkpt>
      <trkpt lat="43.66567" lon="1.40073">
        <ele>124</ele>
        <time>2023-04-04T16:29:00Z</time>
      </trkpt>
      <trkpt lat="43.66566" lon="1.40074">
        <ele>124</ele>
        <time>2023-04-04T16:29:01Z</time>
      </trkpt>
      <trkpt lat="43.66565" lon="1.40076">
        <ele>124</ele>
        <time>2023-04-04T16:29:02Z</time>
      </trkpt>
      <trkpt lat="43.66564" lon="1.40077">
        <ele>124</ele>
        <time>2023-04-04T16:29:03Z</time>
      </trkpt>
      <trkpt lat="43.66558" lon="1.40084">
        <ele>124</ele>
        <time>2023-04-04T16:29:04Z</time>
      </trkpt>
      <trkpt lat="43.66556" lon="1.40086">
        <ele>124</ele>
        <time>2023-04-04T16:29:05Z</time>
      </trkpt>
      <trkpt lat="43.66555" lon="1.40088">
        <ele>124</ele>
        <time>2023-04-04T16:29:06Z</time>
      </trkpt>
      <trkpt lat="43.66553" lon="1.40089">
        <ele>124</ele>
        <time>2023-04-04T16:29:07Z</time>
      </trkpt>
      <trkpt lat="43.66551" lon="1.40091">
        <ele>124</ele>
        <time>2023-04-04T16:29:08Z</time>
      </trkpt>
      <trkpt lat="43.6655" lon="1.40096">
        <ele>124</ele>
        <time>2023-04-04T16:29:09Z</time>
      </trkpt>
      <trkpt lat="43.66548" lon="1.401">
        <ele>124</ele>
        <time>2023-04-04T16:29:10Z</time>
      </trkpt>
      <trkpt lat="43.66546" lon="1.40105">
        <ele>124</ele>
        <time>2023-04-04T16:29:11Z</time>
      </trkpt>
      <trkpt lat="43.66545" lon="1.40109">
        <ele>124</ele>
        <time>2023-04-04T16:29:12Z</time>
      </trkpt>
      <trkpt lat="43.66543" lon="1.40114">
        <ele>124</ele>
        <time>2023-04-04T16:29:13Z</time>
      </trkpt>
      <trkpt lat="43.66542" lon="1.40115">
        <ele>124</ele>
        <time>2023-04-04T16:29:14Z</time>
      </trkpt>
      <trkpt lat="43.66542" lon="1.40117">
        <ele>124</ele>
        <time>2023-04-04T16:29:15Z</time>
      </trkpt>
      <trkpt lat="43.66541" lon="1.40119">
        <ele>124</ele>
        <time>2023-04-04T16:29:16Z</time>
      </trkpt>
      <trkpt lat="43.6654" lon="1.40121">
        <ele>124</ele>
        <time>2023-04-04T16:29:17Z</time>
      </trkpt>
      <trkpt lat="43.66536" lon="1.40129">
        <ele>124</ele>
        <time>2023-04-04T16:29:18Z</time>
      </trkpt>
      <trkpt lat="43.66535" lon="1.40131">
        <ele>124</ele>
        <time>2023-04-04T16:29:19Z</time>
      </trkpt>
      <trkpt lat="43.66534" lon="1.40132">
        <ele>124</ele>
        <time>2023-04-04T16:29:20Z</time>
      </trkpt>
      <trkpt lat="43.66533" lon="1.40134">
        <ele>125</ele>
        <time>2023-04-04T16:29:21Z</time>
      </trkpt>
      <trkpt lat="43.66527" lon="1.40143">
        <ele>125</ele>
        <time>2023-04-04T16:29:22Z</time>
      </trkpt>
      <trkpt lat="43.66526" lon="1.40145">
        <ele>124</ele>
        <time>2023-04-04T16:29:23Z</time>
      </trkpt>
      <trkpt lat="43.66524" lon="1.40148">
        <ele>124</ele>
        <time>2023-04-04T16:29:24Z</time>
      </trkpt>
      <trkpt lat="43.66522" lon="1.4015">
        <ele>124</ele>
        <time>2023-04-04T16:29:25Z</time>
      </trkpt>
      <trkpt lat="43.66519" lon="1.40155">
        <ele>124</ele>
        <time>2023-04-04T16:29:26Z</time>
      </trkpt>
      <trkpt lat="43.66517" lon="1.4016">
        <ele>124</ele>
        <time>2023-04-04T16:29:27Z</time>
      </trkpt>
      <trkpt lat="43.66516" lon="1.40163">
        <ele>124</ele>
        <time>2023-04-04T16:29:28Z</time>
      </trkpt>
      <trkpt lat="43.66514" lon="1.40165">
        <ele>125</ele>
        <time>2023-04-04T16:29:30Z</time>
      </trkpt>
      <trkpt lat="43.66513" lon="1.40167">
        <ele>125</ele>
        <time>2023-04-04T16:29:31Z</time>
      </trkpt>
      <trkpt lat="43.66508" lon="1.40175">
        <ele>125</ele>
        <time>2023-04-04T16:29:32Z</time>
      </trkpt>
      <trkpt lat="43.66507" lon="1.40176">
        <ele>124</ele>
        <time>2023-04-04T16:29:33Z</time>
      </trkpt>
      <trkpt lat="43.66506" lon="1.40176">
        <ele>124</ele>
        <time>2023-04-04T16:29:34Z</time>
      </trkpt>
      <trkpt lat="43.66505" lon="1.40177">
        <ele>124</ele>
        <time>2023-04-04T16:29:35Z</time>
      </trkpt>
      <trkpt lat="43.66505" lon="1.40178">
        <ele>124</ele>
        <time>2023-04-04T16:29:36Z</time>
      </trkpt>
      <trkpt lat="43.66497" lon="1.40185">
        <ele>124</ele>
        <time>2023-04-04T16:29:37Z</time>
      </trkpt>
      <trkpt lat="43.66494" lon="1.40187">
        <ele>124</ele>
        <time>2023-04-04T16:29:38Z</time>
      </trkpt>
      <trkpt lat="43.66492" lon="1.4019">
        <ele>124</ele>
        <time>2023-04-04T16:29:39Z</time>
      </trkpt>
      <trkpt lat="43.66489" lon="1.40191">
        <ele>124</ele>
        <time>2023-04-04T16:29:40Z</time>
      </trkpt>
      <trkpt lat="43.66487" lon="1.40192">
        <ele>124</ele>
        <time>2023-04-04T16:29:41Z</time>
      </trkpt>
      <trkpt lat="43.66485" lon="1.40194">
        <ele>124</ele>
        <time>2023-04-04T16:29:42Z</time>
      </trkpt>
      <trkpt lat="43.66483" lon="1.40195">
        <ele>124</ele>
        <time>2023-04-04T16:29:43Z</time>
      </trkpt>
      <trkpt lat="43.66479" lon="1.40198">
        <ele>124</ele>
        <time>2023-04-04T16:29:44Z</time>
      </trkpt>
      <trkpt lat="43.66474" lon="1.40201">
        <ele>124</ele>
        <time>2023-04-04T16:29:45Z</time>
      </trkpt>
      <trkpt lat="43.66473" lon="1.40203">
        <ele>124</ele>
        <time>2023-04-04T16:29:46Z</time>
      </trkpt>
      <trkpt lat="43.66473" lon="1.40203">
        <ele>124</ele>
        <time>2023-04-04T16:29:47Z</time>
      </trkpt>
      <trkpt lat="43.66469" lon="1.4021">
        <ele>124</ele>
        <time>2023-04-04T16:29:49Z</time>
      </trkpt>
      <trkpt lat="43.66467" lon="1.40213">
        <ele>124</ele>
        <time>2023-04-04T16:29:50Z</time>
      </trkpt>
      <trkpt lat="43.66465" lon="1.40216">
        <ele>124</ele>
        <time>2023-04-04T16:29:51Z</time>
      </trkpt>
      <trkpt lat="43.66463" lon="1.40219">
        <ele>124</ele>
        <time>2023-04-04T16:29:52Z</time>
      </trkpt>
      <trkpt lat="43.66461" lon="1.40223">
        <ele>124</ele>
        <time>2023-04-04T16:29:53Z</time>
      </trkpt>
      <trkpt lat="43.66459" lon="1.40226">
        <ele>124</ele>
        <time>2023-04-04T16:29:54Z</time>
      </trkpt>
      <trkpt lat="43.66459" lon="1.40226">
        <ele>124</ele>
        <time>2023-04-04T16:29:55Z</time>
      </trkpt>
      <trkpt lat="43.66459" lon="1.40226">
        <ele>124</ele>
        <time>2023-04-04T16:29:56Z</time>
      </trkpt>
      <trkpt lat="43.66459" lon="1.40226">
        <ele>124</ele>
        <time>2023-04-04T16:29:57Z</time>
      </trkpt>
      <trkpt lat="43.66459" lon="1.40226">
        <ele>124</ele>
        <time>2023-04-04T16:29:58Z</time>
      </trkpt>
      <trkpt lat="43.66459" lon="1.40226">
        <ele>124</ele>
        <time>2023-04-04T16:29:59Z</time>
      </trkpt>
      <trkpt lat="43.66459" lon="1.40226">
        <ele>124</ele>
        <time>2023-04-04T16:30:00Z</time>
      </trkpt>
      <trkpt lat="43.66459" lon="1.40226">
        <ele>124</ele>
        <time>2023-04-04T16:30:01Z</time>
      </trkpt>
      <trkpt lat="43.66459" lon="1.40226">
        <ele>124</ele>
        <time>2023-04-04T16:30:02Z</time>
      </trkpt>
      <trkpt lat="43.66461" lon="1.40221">
        <ele>124</ele>
        <time>2023-04-04T16:30:03Z</time>
      </trkpt>
      <trkpt lat="43.66462" lon="1.40219">
        <ele>124</ele>
        <time>2023-04-04T16:30:04Z</time>
      </trkpt>
      <trkpt lat="43.66464" lon="1.40215">
        <ele>124</ele>
        <time>2023-04-04T16:30:05Z</time>
      </trkpt>
      <trkpt lat="43.66465" lon="1.40213">
        <ele>124</ele>
        <time>2023-04-04T16:30:06Z</time>
      </trkpt>
      <trkpt lat="43.66466" lon="1.40211">
        <ele>124</ele>
        <time>2023-04-04T16:30:08Z</time>
      </trkpt>
      <trkpt lat="43.66467" lon="1.40208">
        <ele>124</ele>
        <time>2023-04-04T16:30:09Z</time>
      </trkpt>
      <trkpt lat="43.66468" lon="1.40206">
        <ele>124</ele>
        <time>2023-04-04T16:30:10Z</time>
      </trkpt>
      <trkpt lat="43.66471" lon="1.40198">
        <ele>124</ele>
        <time>2023-04-04T16:30:11Z</time>
      </trkpt>
      <trkpt lat="43.66471" lon="1.40198">
        <ele>124</ele>
        <time>2023-04-04T16:30:12Z</time>
      </trkpt>
      <trkpt lat="43.66472" lon="1.40194">
        <ele>124</ele>
        <time>2023-04-04T16:30:13Z</time>
      </trkpt>
      <trkpt lat="43.66474" lon="1.4019">
        <ele>124</ele>
        <time>2023-04-04T16:30:14Z</time>
      </trkpt>
      <trkpt lat="43.66475" lon="1.40188">
        <ele>124</ele>
        <time>2023-04-04T16:30:15Z</time>
      </trkpt>
      <trkpt lat="43.66476" lon="1.40185">
        <ele>124</ele>
        <time>2023-04-04T16:30:16Z</time>
      </trkpt>
      <trkpt lat="43.66478" lon="1.40183">
        <ele>124</ele>
        <time>2023-04-04T16:30:17Z</time>
      </trkpt>
      <trkpt lat="43.66479" lon="1.4018">
        <ele>124</ele>
        <time>2023-04-04T16:30:18Z</time>
      </trkpt>
      <trkpt lat="43.6648" lon="1.40178">
        <ele>124</ele>
        <time>2023-04-04T16:30:19Z</time>
      </trkpt>
      <trkpt lat="43.66481" lon="1.40175">
        <ele>123</ele>
        <time>2023-04-04T16:30:20Z</time>
      </trkpt>
      <trkpt lat="43.66482" lon="1.40173">
        <ele>123</ele>
        <time>2023-04-04T16:30:21Z</time>
      </trkpt>
      <trkpt lat="43.66483" lon="1.40171">
        <ele>123</ele>
        <time>2023-04-04T16:30:22Z</time>
      </trkpt>
      <trkpt lat="43.66484" lon="1.40169">
        <ele>124</ele>
        <time>2023-04-04T16:30:23Z</time>
      </trkpt>
      <trkpt lat="43.66485" lon="1.40167">
        <ele>124</ele>
        <time>2023-04-04T16:30:24Z</time>
      </trkpt>
      <trkpt lat="43.66489" lon="1.4016">
        <ele>124</ele>
        <time>2023-04-04T16:30:25Z</time>
      </trkpt>
      <trkpt lat="43.66494" lon="1.40152">
        <ele>124</ele>
        <time>2023-04-04T16:30:27Z</time>
      </trkpt>
      <trkpt lat="43.66495" lon="1.40151">
        <ele>124</ele>
        <time>2023-04-04T16:30:28Z</time>
      </trkpt>
      <trkpt lat="43.66497" lon="1.40148">
        <ele>123</ele>
        <time>2023-04-04T16:30:29Z</time>
      </trkpt>
      <trkpt lat="43.66499" lon="1.40145">
        <ele>123</ele>
        <time>2023-04-04T16:30:30Z</time>
      </trkpt>
      <trkpt lat="43.66499" lon="1.40144">
        <ele>123</ele>
        <time>2023-04-04T16:30:31Z</time>
      </trkpt>
      <trkpt lat="43.665" lon="1.40143">
        <ele>123</ele>
        <time>2023-04-04T16:30:32Z</time>
      </trkpt>
      <trkpt lat="43.665" lon="1.40141">
        <ele>123</ele>
        <time>2023-04-04T16:30:33Z</time>
      </trkpt>
      <trkpt lat="43.66501" lon="1.4014">
        <ele>123</ele>
        <time>2023-04-04T16:30:34Z</time>
      </trkpt>
      <trkpt lat="43.66501" lon="1.40139">
        <ele>123</ele>
        <time>2023-04-04T16:30:35Z</time>
      </trkpt>
      <trkpt lat="43.66505" lon="1.40131">
        <ele>123</ele>
        <time>2023-04-04T16:30:36Z</time>
      </trkpt>
      <trkpt lat="43.66505" lon="1.40129">
        <ele>123</ele>
        <time>2023-04-04T16:30:37Z</time>
      </trkpt>
      <trkpt lat="43.66506" lon="1.40128">
        <ele>123</ele>
        <time>2023-04-04T16:30:38Z</time>
      </trkpt>
      <trkpt lat="43.66507" lon="1.40127">
        <ele>123</ele>
        <time>2023-04-04T16:30:39Z</time>
      </trkpt>
      <trkpt lat="43.66513" lon="1.40118">
        <ele>123</ele>
        <time>2023-04-04T16:30:40Z</time>
      </trkpt>
      <trkpt lat="43.66514" lon="1.40115">
        <ele>123</ele>
        <time>2023-04-04T16:30:41Z</time>
      </trkpt>
      <trkpt lat="43.66516" lon="1.40111">
        <ele>123</ele>
        <time>2023-04-04T16:30:42Z</time>
      </trkpt>
      <trkpt lat="43.66517" lon="1.40108">
        <ele>123</ele>
        <time>2023-04-04T16:30:43Z</time>
      </trkpt>
      <trkpt lat="43.66519" lon="1.40105">
        <ele>123</ele>
        <time>2023-04-04T16:30:44Z</time>
      </trkpt>
      <trkpt lat="43.6652" lon="1.40101">
        <ele>123</ele>
        <time>2023-04-04T16:30:46Z</time>
      </trkpt>
      <trkpt lat="43.66522" lon="1.40098">
        <ele>123</ele>
        <time>2023-04-04T16:30:47Z</time>
      </trkpt>
      <trkpt lat="43.66524" lon="1.40093">
        <ele>123</ele>
        <time>2023-04-04T16:30:48Z</time>
      </trkpt>
      <trkpt lat="43.66527" lon="1.40088">
        <ele>124</ele>
        <time>2023-04-04T16:30:49Z</time>
      </trkpt>
      <trkpt lat="43.66528" lon="1.40086">
        <ele>124</ele>
        <time>2023-04-04T16:30:50Z</time>
      </trkpt>
      <trkpt lat="43.66529" lon="1.40085">
        <ele>124</ele>
        <time>2023-04-04T16:30:51Z</time>
      </trkpt>
      <trkpt lat="43.6653" lon="1.40083">
        <ele>124</ele>
        <time>2023-04-04T16:30:52Z</time>
      </trkpt>
      <trkpt lat="43.66531" lon="1.40082">
        <ele>124</ele>
        <time>2023-04-04T16:30:53Z</time>
      </trkpt>
      <trkpt lat="43.66536" lon="1.40074">
        <ele>124</ele>
        <time>2023-04-04T16:30:54Z</time>
      </trkpt>
      <trkpt lat="43.66538" lon="1.40073">
        <ele>124</ele>
        <time>2023-04-04T16:30:55Z</time>
      </trkpt>
      <trkpt lat="43.6654" lon="1.40072">
        <ele>124</ele>
        <time>2023-04-04T16:30:56Z</time>
      </trkpt>
      <trkpt lat="43.66542" lon="1.40071">
        <ele>124</ele>
        <time>2023-04-04T16:30:57Z</time>
      </trkpt>
      <trkpt lat="43.66544" lon="1.4007">
        <ele>124</ele>
        <time>2023-04-04T16:30:58Z</time>
      </trkpt>
      <trkpt lat="43.66545" lon="1.4007">
        <ele>124</ele>
        <time>2023-04-04T16:30:59Z</time>
      </trkpt>
      <trkpt lat="43.66545" lon="1.4007">
        <ele>124</ele>
        <time>2023-04-04T16:31:00Z</time>
      </trkpt>
      <trkpt lat="43.66546" lon="1.4007">
        <ele>124</ele>
        <time>2023-04-04T16:31:01Z</time>
      </trkpt>
      <trkpt lat="43.66547" lon="1.4007">
        <ele>124</ele>
        <time>2023-04-04T16:31:02Z</time>
      </trkpt>
      <trkpt lat="43.66547" lon="1.4007">
        <ele>125</ele>
        <time>2023-04-04T16:31:03Z</time>
      </trkpt>
      <trkpt lat="43.66557" lon="1.40068">
        <ele>125</ele>
        <time>2023-04-04T16:31:05Z</time>
      </trkpt>
      <trkpt lat="43.66559" lon="1.40065">
        <ele>125</ele>
        <time>2023-04-04T16:31:06Z</time>
      </trkpt>
      <trkpt lat="43.66562" lon="1.40062">
        <ele>125</ele>
        <time>2023-04-04T16:31:07Z</time>
      </trkpt>
      <trkpt lat="43.66564" lon="1.40058">
        <ele>125</ele>
        <time>2023-04-04T16:31:08Z</time>
      </trkpt>
      <trkpt lat="43.66566" lon="1.40054">
        <ele>124</ele>
        <time>2023-04-04T16:31:09Z</time>
      </trkpt>
      <trkpt lat="43.66568" lon="1.40051">
        <ele>124</ele>
        <time>2023-04-04T16:31:10Z</time>
      </trkpt>
      <trkpt lat="43.66569" lon="1.40049">
        <ele>124</ele>
        <time>2023-04-04T16:31:11Z</time>
      </trkpt>
      <trkpt lat="43.6657" lon="1.40048">
        <ele>124</ele>
        <time>2023-04-04T16:31:12Z</time>
      </trkpt>
      <trkpt lat="43.66571" lon="1.40046">
        <ele>124</ele>
        <time>2023-04-04T16:31:13Z</time>
      </trkpt>
      <trkpt lat="43.66571" lon="1.40045">
        <ele>124</ele>
        <time>2023-04-04T16:31:14Z</time>
      </trkpt>
      <trkpt lat="43.66576" lon="1.40036">
        <ele>124</ele>
        <time>2023-04-04T16:31:15Z</time>
      </trkpt>
      <trkpt lat="43.66578" lon="1.40033">
        <ele>124</ele>
        <time>2023-04-04T16:31:16Z</time>
      </trkpt>
      <trkpt lat="43.6658" lon="1.40029">
        <ele>124</ele>
        <time>2023-04-04T16:31:17Z</time>
      </trkpt>
      <trkpt lat="43.66581" lon="1.40026">
        <ele>124</ele>
        <time>2023-04-04T16:31:18Z</time>
      </trkpt>
      <trkpt lat="43.66583" lon="1.40021">
        <ele>124</ele>
        <time>2023-04-04T16:31:19Z</time>
      </trkpt>
      <trkpt lat="43.66584" lon="1.40019">
        <ele>124</ele>
        <time>2023-04-04T16:31:20Z</time>
      </trkpt>
      <trkpt lat="43.66585" lon="1.40016">
        <ele>124</ele>
        <time>2023-04-04T16:31:21Z</time>
      </trkpt>
      <trkpt lat="43.66586" lon="1.40013">
        <ele>124</ele>
        <time>2023-04-04T16:31:22Z</time>
      </trkpt>
      <trkpt lat="43.66587" lon="1.40008">
        <ele>124</ele>
        <time>2023-04-04T16:31:23Z</time>
      </trkpt>
      <trkpt lat="43.66588" lon="1.40006">
        <ele>124</ele>
        <time>2023-04-04T16:31:24Z</time>
      </trkpt>
      <trkpt lat="43.66589" lon="1.40003">
        <ele>124</ele>
        <time>2023-04-04T16:31:25Z</time>
      </trkpt>
      <trkpt lat="43.66589" lon="1.4">
        <ele>124</ele>
        <time>2023-04-04T16:31:26Z</time>
      </trkpt>
      <trkpt lat="43.6659" lon="1.39998">
        <ele>124</ele>
        <time>2023-04-04T16:31:27Z</time>
      </trkpt>
      <trkpt lat="43.66591" lon="1.39995">
        <ele>124</ele>
        <time>2023-04-04T16:31:28Z</time>
      </trkpt>
      <trkpt lat="43.66591" lon="1.39993">
        <ele>124</ele>
        <time>2023-04-04T16:31:29Z</time>
      </trkpt>
      <trkpt lat="43.66592" lon="1.39991">
        <ele>124</ele>
        <time>2023-04-04T16:31:30Z</time>
      </trkpt>
      <trkpt lat="43.66593" lon="1.39989">
        <ele>124</ele>
        <time>2023-04-04T16:31:31Z</time>
      </trkpt>
      <trkpt lat="43.66594" lon="1.39987">
        <ele>124</ele>
        <time>2023-04-04T16:31:32Z</time>
      </trkpt>
      <trkpt lat="43.66597" lon="1.39979">
        <ele>124</ele>
        <time>2023-04-04T16:31:33Z</time>
      </trkpt>
      <trkpt lat="43.66598" lon="1.39977">
        <ele>124</ele>
        <time>2023-04-04T16:31:34Z</time>
      </trkpt>
      <trkpt lat="43.66599" lon="1.39972">
        <ele>124</ele>
        <time>2023-04-04T16:31:35Z</time>
      </trkpt>
      <trkpt lat="43.666" lon="1.39968">
        <ele>124</ele>
        <time>2023-04-04T16:31:36Z</time>
      </trkpt>
      <trkpt lat="43.66602" lon="1.39964">
        <ele>124</ele>
        <time>2023-04-04T16:31:37Z</time>
      </trkpt>
      <trkpt lat="43.66602" lon="1.3996">
        <ele>124</ele>
        <time>2023-04-04T16:31:38Z</time>
      </trkpt>
      <trkpt lat="43.66603" lon="1.39955">
        <ele>124</ele>
        <time>2023-04-04T16:31:39Z</time>
      </trkpt>
      <trkpt lat="43.66604" lon="1.3995">
        <ele>124</ele>
        <time>2023-04-04T16:31:40Z</time>
      </trkpt>
      <trkpt lat="43.66604" lon="1.39946">
        <ele>124</ele>
        <time>2023-04-04T16:31:41Z</time>
      </trkpt>
      <trkpt lat="43.66604" lon="1.39941">
        <ele>124</ele>
        <time>2023-04-04T16:31:43Z</time>
      </trkpt>
      <trkpt lat="43.66605" lon="1.39936">
        <ele>124</ele>
        <time>2023-04-04T16:31:44Z</time>
      </trkpt>
      <trkpt lat="43.66607" lon="1.3993">
        <ele>124</ele>
        <time>2023-04-04T16:31:45Z</time>
      </trkpt>
      <trkpt lat="43.6661" lon="1.39924">
        <ele>123</ele>
        <time>2023-04-04T16:31:46Z</time>
      </trkpt>
      <trkpt lat="43.66612" lon="1.3992">
        <ele>123</ele>
        <time>2023-04-04T16:31:47Z</time>
      </trkpt>
      <trkpt lat="43.66613" lon="1.39917">
        <ele>123</ele>
        <time>2023-04-04T16:31:48Z</time>
      </trkpt>
      <trkpt lat="43.66615" lon="1.39913">
        <ele>123</ele>
        <time>2023-04-04T16:31:49Z</time>
      </trkpt>
      <trkpt lat="43.66616" lon="1.39909">
        <ele>123</ele>
        <time>2023-04-04T16:31:50Z</time>
      </trkpt>
      <trkpt lat="43.66618" lon="1.39905">
        <ele>123</ele>
        <time>2023-04-04T16:31:51Z</time>
      </trkpt>
      <trkpt lat="43.66619" lon="1.39901">
        <ele>123</ele>
        <time>2023-04-04T16:31:52Z</time>
      </trkpt>
      <trkpt lat="43.6662" lon="1.39897">
        <ele>124</ele>
        <time>2023-04-04T16:31:53Z</time>
      </trkpt>
      <trkpt lat="43.66621" lon="1.39893">
        <ele>124</ele>
        <time>2023-04-04T16:31:54Z</time>
      </trkpt>
      <trkpt lat="43.66623" lon="1.39889">
        <ele>123</ele>
        <time>2023-04-04T16:31:55Z</time>
      </trkpt>
      <trkpt lat="43.66623" lon="1.39886">
        <ele>123</ele>
        <time>2023-04-04T16:31:56Z</time>
      </trkpt>
      <trkpt lat="43.66624" lon="1.39882">
        <ele>123</ele>
        <time>2023-04-04T16:31:57Z</time>
      </trkpt>
      <trkpt lat="43.66625" lon="1.39878">
        <ele>123</ele>
        <time>2023-04-04T16:31:58Z</time>
      </trkpt>
      <trkpt lat="43.66626" lon="1.39874">
        <ele>123</ele>
        <time>2023-04-04T16:31:59Z</time>
      </trkpt>
      <trkpt lat="43.66627" lon="1.39871">
        <ele>122</ele>
        <time>2023-04-04T16:32:00Z</time>
      </trkpt>
      <trkpt lat="43.66628" lon="1.39863">
        <ele>122</ele>
        <time>2023-04-04T16:32:02Z</time>
      </trkpt>
      <trkpt lat="43.66627" lon="1.39859">
        <ele>122</ele>
        <time>2023-04-04T16:32:03Z</time>
      </trkpt>
      <trkpt lat="43.66627" lon="1.39855">
        <ele>122</ele>
        <time>2023-04-04T16:32:04Z</time>
      </trkpt>
      <trkpt lat="43.66627" lon="1.39851">
        <ele>122</ele>
        <time>2023-04-04T16:32:05Z</time>
      </trkpt>
      <trkpt lat="43.66627" lon="1.39847">
        <ele>122</ele>
        <time>2023-04-04T16:32:06Z</time>
      </trkpt>
      <trkpt lat="43.66627" lon="1.39844">
        <ele>123</ele>
        <time>2023-04-04T16:32:07Z</time>
      </trkpt>
      <trkpt lat="43.66626" lon="1.39841">
        <ele>123</ele>
        <time>2023-04-04T16:32:08Z</time>
      </trkpt>
      <trkpt lat="43.66626" lon="1.39838">
        <ele>123</ele>
        <time>2023-04-04T16:32:09Z</time>
      </trkpt>
      <trkpt lat="43.66626" lon="1.39837">
        <ele>123</ele>
        <time>2023-04-04T16:32:10Z</time>
      </trkpt>
      <trkpt lat="43.66626" lon="1.39835">
        <ele>124</ele>
        <time>2023-04-04T16:32:11Z</time>
      </trkpt>
      <trkpt lat="43.66626" lon="1.39833">
        <ele>124</ele>
        <time>2023-04-04T16:32:12Z</time>
      </trkpt>
      <trkpt lat="43.66626" lon="1.39831">
        <ele>124</ele>
        <time>2023-04-04T16:32:13Z</time>
      </trkpt>
      <trkpt lat="43.66626" lon="1.3982">
        <ele>124</ele>
        <time>2023-04-04T16:32:14Z</time>
      </trkpt>
      <trkpt lat="43.66626" lon="1.39817">
        <ele>124</ele>
        <time>2023-04-04T16:32:15Z</time>
      </trkpt>
      <trkpt lat="43.66626" lon="1.39813">
        <ele>124</ele>
        <time>2023-04-04T16:32:16Z</time>
      </trkpt>
      <trkpt lat="43.66626" lon="1.39809">
        <ele>123</ele>
        <time>2023-04-04T16:32:17Z</time>
      </trkpt>
      <trkpt lat="43.66626" lon="1.39806">
        <ele>123</ele>
        <time>2023-04-04T16:32:18Z</time>
      </trkpt>
      <trkpt lat="43.66626" lon="1.39802">
        <ele>123</ele>
        <time>2023-04-04T16:32:19Z</time>
      </trkpt>
      <trkpt lat="43.66627" lon="1.39799">
        <ele>123</ele>
        <time>2023-04-04T16:32:20Z</time>
      </trkpt>
      <trkpt lat="43.66627" lon="1.39795">
        <ele>124</ele>
        <time>2023-04-04T16:32:21Z</time>
      </trkpt>
      <trkpt lat="43.66627" lon="1.39793">
        <ele>124</ele>
        <time>2023-04-04T16:32:22Z</time>
      </trkpt>
      <trkpt lat="43.66627" lon="1.39791">
        <ele>124</ele>
        <time>2023-04-04T16:32:23Z</time>
      </trkpt>
      <trkpt lat="43.66627" lon="1.39789">
        <ele>124</ele>
        <time>2023-04-04T16:32:24Z</time>
      </trkpt>
      <trkpt lat="43.66627" lon="1.39787">
        <ele>123</ele>
        <time>2023-04-04T16:32:25Z</time>
      </trkpt>
      <trkpt lat="43.66627" lon="1.39776">
        <ele>123</ele>
        <time>2023-04-04T16:32:26Z</time>
      </trkpt>
      <trkpt lat="43.66627" lon="1.39773">
        <ele>124</ele>
        <time>2023-04-04T16:32:27Z</time>
      </trkpt>
      <trkpt lat="43.66626" lon="1.3977">
        <ele>124</ele>
        <time>2023-04-04T16:32:28Z</time>
      </trkpt>
      <trkpt lat="43.66626" lon="1.39767">
        <ele>124</ele>
        <time>2023-04-04T16:32:29Z</time>
      </trkpt>
      <trkpt lat="43.66626" lon="1.39763">
        <ele>124</ele>
        <time>2023-04-04T16:32:30Z</time>
      </trkpt>
      <trkpt lat="43.66625" lon="1.39758">
        <ele>124</ele>
        <time>2023-04-04T16:32:31Z</time>
      </trkpt>
      <trkpt lat="43.66625" lon="1.39754">
        <ele>123</ele>
        <time>2023-04-04T16:32:32Z</time>
      </trkpt>
      <trkpt lat="43.66625" lon="1.3975">
        <ele>123</ele>
        <time>2023-04-04T16:32:33Z</time>
      </trkpt>
      <trkpt lat="43.66624" lon="1.39747">
        <ele>123</ele>
        <time>2023-04-04T16:32:34Z</time>
      </trkpt>
      <trkpt lat="43.66624" lon="1.39744">
        <ele>123</ele>
        <time>2023-04-04T16:32:35Z</time>
      </trkpt>
      <trkpt lat="43.66624" lon="1.39741">
        <ele>123</ele>
        <time>2023-04-04T16:32:36Z</time>
      </trkpt>
      <trkpt lat="43.66624" lon="1.39736">
        <ele>123</ele>
        <time>2023-04-04T16:32:37Z</time>
      </trkpt>
      <trkpt lat="43.66624" lon="1.39731">
        <ele>123</ele>
        <time>2023-04-04T16:32:38Z</time>
      </trkpt>
      <trkpt lat="43.66624" lon="1.39726">
        <ele>123</ele>
        <time>2023-04-04T16:32:39Z</time>
      </trkpt>
      <trkpt lat="43.66624" lon="1.39721">
        <ele>123</ele>
        <time>2023-04-04T16:32:40Z</time>
      </trkpt>
      <trkpt lat="43.66623" lon="1.39717">
        <ele>123</ele>
        <time>2023-04-04T16:32:41Z</time>
      </trkpt>
      <trkpt lat="43.66623" lon="1.39714">
        <ele>123</ele>
        <time>2023-04-04T16:32:42Z</time>
      </trkpt>
      <trkpt lat="43.66623" lon="1.3971">
        <ele>123</ele>
        <time>2023-04-04T16:32:43Z</time>
      </trkpt>
      <trkpt lat="43.66623" lon="1.39707">
        <ele>123</ele>
        <time>2023-04-04T16:32:44Z</time>
      </trkpt>
      <trkpt lat="43.66623" lon="1.39703">
        <ele>123</ele>
        <time>2023-04-04T16:32:45Z</time>
      </trkpt>
      <trkpt lat="43.66622" lon="1.39699">
        <ele>123</ele>
        <time>2023-04-04T16:32:46Z</time>
      </trkpt>
      <trkpt lat="43.66622" lon="1.39699">
        <ele>123</ele>
        <time>2023-04-04T16:32:47Z</time>
      </trkpt>
      <trkpt lat="43.66622" lon="1.39694">
        <ele>123</ele>
        <time>2023-04-04T16:32:48Z</time>
      </trkpt>
      <trkpt lat="43.66621" lon="1.3969">
        <ele>123</ele>
        <time>2023-04-04T16:32:49Z</time>
      </trkpt>
      <trkpt lat="43.6662" lon="1.39686">
        <ele>123</ele>
        <time>2023-04-04T16:32:50Z</time>
      </trkpt>
      <trkpt lat="43.6662" lon="1.39682">
        <ele>123</ele>
        <time>2023-04-04T16:32:51Z</time>
      </trkpt>
      <trkpt lat="43.66619" lon="1.39679">
        <ele>123</ele>
        <time>2023-04-04T16:32:52Z</time>
      </trkpt>
      <trkpt lat="43.66619" lon="1.39677">
        <ele>123</ele>
        <time>2023-04-04T16:32:53Z</time>
      </trkpt>
      <trkpt lat="43.66618" lon="1.39674">
        <ele>123</ele>
        <time>2023-04-04T16:32:54Z</time>
      </trkpt>
      <trkpt lat="43.66618" lon="1.39667">
        <ele>123</ele>
        <time>2023-04-04T16:32:55Z</time>
      </trkpt>
      <trkpt lat="43.66617" lon="1.39661">
        <ele>123</ele>
        <time>2023-04-04T16:32:56Z</time>
      </trkpt>
      <trkpt lat="43.66617" lon="1.39659">
        <ele>123</ele>
        <time>2023-04-04T16:32:57Z</time>
      </trkpt>
      <trkpt lat="43.66617" lon="1.39657">
        <ele>122</ele>
        <time>2023-04-04T16:32:59Z</time>
      </trkpt>
      <trkpt lat="43.66617" lon="1.39654">
        <ele>122</ele>
        <time>2023-04-04T16:33:00Z</time>
      </trkpt>
      <trkpt lat="43.66616" lon="1.39652">
        <ele>122</ele>
        <time>2023-04-04T16:33:01Z</time>
      </trkpt>
      <trkpt lat="43.66615" lon="1.39642">
        <ele>122</ele>
        <time>2023-04-04T16:33:02Z</time>
      </trkpt>
      <trkpt lat="43.66615" lon="1.3964">
        <ele>122</ele>
        <time>2023-04-04T16:33:03Z</time>
      </trkpt>
      <trkpt lat="43.66615" lon="1.39639">
        <ele>122</ele>
        <time>2023-04-04T16:33:04Z</time>
      </trkpt>
      <trkpt lat="43.66615" lon="1.39637">
        <ele>122</ele>
        <time>2023-04-04T16:33:05Z</time>
      </trkpt>
      <trkpt lat="43.66613" lon="1.39627">
        <ele>122</ele>
        <time>2023-04-04T16:33:06Z</time>
      </trkpt>
      <trkpt lat="43.66612" lon="1.39626">
        <ele>122</ele>
        <time>2023-04-04T16:33:07Z</time>
      </trkpt>
      <trkpt lat="43.66612" lon="1.39624">
        <ele>122</ele>
        <time>2023-04-04T16:33:08Z</time>
      </trkpt>
      <trkpt lat="43.66611" lon="1.39622">
        <ele>122</ele>
        <time>2023-04-04T16:33:09Z</time>
      </trkpt>
      <trkpt lat="43.66607" lon="1.39612">
        <ele>122</ele>
        <time>2023-04-04T16:33:10Z</time>
      </trkpt>
      <trkpt lat="43.66607" lon="1.39609">
        <ele>123</ele>
        <time>2023-04-04T16:33:11Z</time>
      </trkpt>
      <trkpt lat="43.66606" lon="1.39606">
        <ele>123</ele>
        <time>2023-04-04T16:33:12Z</time>
      </trkpt>
      <trkpt lat="43.66606" lon="1.39602">
        <ele>122</ele>
        <time>2023-04-04T16:33:13Z</time>
      </trkpt>
      <trkpt lat="43.66606" lon="1.39598">
        <ele>122</ele>
        <time>2023-04-04T16:33:14Z</time>
      </trkpt>
      <trkpt lat="43.66607" lon="1.39593">
        <ele>122</ele>
        <time>2023-04-04T16:33:15Z</time>
      </trkpt>
      <trkpt lat="43.66607" lon="1.39589">
        <ele>122</ele>
        <time>2023-04-04T16:33:16Z</time>
      </trkpt>
      <trkpt lat="43.66607" lon="1.39586">
        <ele>122</ele>
        <time>2023-04-04T16:33:18Z</time>
      </trkpt>
      <trkpt lat="43.66606" lon="1.39584">
        <ele>122</ele>
        <time>2023-04-04T16:33:19Z</time>
      </trkpt>
      <trkpt lat="43.66606" lon="1.39582">
        <ele>122</ele>
        <time>2023-04-04T16:33:20Z</time>
      </trkpt>
      <trkpt lat="43.66604" lon="1.39572">
        <ele>122</ele>
        <time>2023-04-04T16:33:21Z</time>
      </trkpt>
      <trkpt lat="43.66603" lon="1.39571">
        <ele>122</ele>
        <time>2023-04-04T16:33:22Z</time>
      </trkpt>
      <trkpt lat="43.66603" lon="1.39569">
        <ele>123</ele>
        <time>2023-04-04T16:33:23Z</time>
      </trkpt>
      <trkpt lat="43.66602" lon="1.39567">
        <ele>123</ele>
        <time>2023-04-04T16:33:24Z</time>
      </trkpt>
      <trkpt lat="43.66598" lon="1.39555">
        <ele>124</ele>
        <time>2023-04-04T16:33:25Z</time>
      </trkpt>
      <trkpt lat="43.66597" lon="1.39551">
        <ele>124</ele>
        <time>2023-04-04T16:33:26Z</time>
      </trkpt>
      <trkpt lat="43.66596" lon="1.39547">
        <ele>124</ele>
        <time>2023-04-04T16:33:27Z</time>
      </trkpt>
      <trkpt lat="43.66595" lon="1.39543">
        <ele>123</ele>
        <time>2023-04-04T16:33:28Z</time>
      </trkpt>
      <trkpt lat="43.66594" lon="1.39539">
        <ele>123</ele>
        <time>2023-04-04T16:33:29Z</time>
      </trkpt>
      <trkpt lat="43.66594" lon="1.39535">
        <ele>122</ele>
        <time>2023-04-04T16:33:30Z</time>
      </trkpt>
      <trkpt lat="43.66592" lon="1.39521">
        <ele>122</ele>
        <time>2023-04-04T16:33:31Z</time>
      </trkpt>
      <trkpt lat="43.66592" lon="1.39517">
        <ele>122</ele>
        <time>2023-04-04T16:33:32Z</time>
      </trkpt>
      <trkpt lat="43.66592" lon="1.39512">
        <ele>122</ele>
        <time>2023-04-04T16:33:33Z</time>
      </trkpt>
      <trkpt lat="43.66592" lon="1.39512">
        <ele>122</ele>
        <time>2023-04-04T16:33:34Z</time>
      </trkpt>
      <trkpt lat="43.66592" lon="1.39512">
        <ele>122</ele>
        <time>2023-04-04T16:33:35Z</time>
      </trkpt>
      <trkpt lat="43.66593" lon="1.39499">
        <ele>122</ele>
        <time>2023-04-04T16:33:37Z</time>
      </trkpt>
      <trkpt lat="43.66593" lon="1.39495">
        <ele>122</ele>
        <time>2023-04-04T16:33:38Z</time>
      </trkpt>
      <trkpt lat="43.66593" lon="1.39492">
        <ele>122</ele>
        <time>2023-04-04T16:33:39Z</time>
      </trkpt>
      <trkpt lat="43.66593" lon="1.39488">
        <ele>122</ele>
        <time>2023-04-04T16:33:40Z</time>
      </trkpt>
      <trkpt lat="43.66592" lon="1.39485">
        <ele>122</ele>
        <time>2023-04-04T16:33:41Z</time>
      </trkpt>
      <trkpt lat="43.66591" lon="1.39482">
        <ele>122</ele>
        <time>2023-04-04T16:33:42Z</time>
      </trkpt>
      <trkpt lat="43.66589" lon="1.39476">
        <ele>122</ele>
        <time>2023-04-04T16:33:43Z</time>
      </trkpt>
      <trkpt lat="43.66589" lon="1.39474">
        <ele>122</ele>
        <time>2023-04-04T16:33:44Z</time>
      </trkpt>
      <trkpt lat="43.66588" lon="1.39471">
        <ele>122</ele>
        <time>2023-04-04T16:33:45Z</time>
      </trkpt>
      <trkpt lat="43.66586" lon="1.39468">
        <ele>122</ele>
        <time>2023-04-04T16:33:46Z</time>
      </trkpt>
      <trkpt lat="43.66585" lon="1.39465">
        <ele>122</ele>
        <time>2023-04-04T16:33:47Z</time>
      </trkpt>
      <trkpt lat="43.66584" lon="1.39461">
        <ele>122</ele>
        <time>2023-04-04T16:33:48Z</time>
      </trkpt>
      <trkpt lat="43.66583" lon="1.39458">
        <ele>122</ele>
        <time>2023-04-04T16:33:49Z</time>
      </trkpt>
      <trkpt lat="43.66582" lon="1.39455">
        <ele>122</ele>
        <time>2023-04-04T16:33:50Z</time>
      </trkpt>
      <trkpt lat="43.66581" lon="1.39452">
        <ele>122</ele>
        <time>2023-04-04T16:33:51Z</time>
      </trkpt>
      <trkpt lat="43.66581" lon="1.39449">
        <ele>122</ele>
        <time>2023-04-04T16:33:52Z</time>
      </trkpt>
      <trkpt lat="43.6658" lon="1.39445">
        <ele>122</ele>
        <time>2023-04-04T16:33:53Z</time>
      </trkpt>
      <trkpt lat="43.66579" lon="1.39441">
        <ele>122</ele>
        <time>2023-04-04T16:33:54Z</time>
      </trkpt>
      <trkpt lat="43.66579" lon="1.39437">
        <ele>122</ele>
        <time>2023-04-04T16:33:55Z</time>
      </trkpt>
      <trkpt lat="43.66578" lon="1.39433">
        <ele>122</ele>
        <time>2023-04-04T16:33:56Z</time>
      </trkpt>
      <trkpt lat="43.66578" lon="1.39429">
        <ele>122</ele>
        <time>2023-04-04T16:33:57Z</time>
      </trkpt>
      <trkpt lat="43.66578" lon="1.39425">
        <ele>122</ele>
        <time>2023-04-04T16:33:58Z</time>
      </trkpt>
      <trkpt lat="43.66578" lon="1.39421">
        <ele>122</ele>
        <time>2023-04-04T16:33:59Z</time>
      </trkpt>
      <trkpt lat="43.66577" lon="1.39417">
        <ele>123</ele>
        <time>2023-04-04T16:34:00Z</time>
      </trkpt>
      <trkpt lat="43.66577" lon="1.39412">
        <ele>123</ele>
        <time>2023-04-04T16:34:01Z</time>
      </trkpt>
      <trkpt lat="43.66577" lon="1.3941">
        <ele>123</ele>
        <time>2023-04-04T16:34:02Z</time>
      </trkpt>
      <trkpt lat="43.66578" lon="1.39406">
        <ele>123</ele>
        <time>2023-04-04T16:34:03Z</time>
      </trkpt>
      <trkpt lat="43.66577" lon="1.39402">
        <ele>123</ele>
        <time>2023-04-04T16:34:04Z</time>
      </trkpt>
      <trkpt lat="43.66577" lon="1.39398">
        <ele>123</ele>
        <time>2023-04-04T16:34:05Z</time>
      </trkpt>
      <trkpt lat="43.66577" lon="1.39394">
        <ele>123</ele>
        <time>2023-04-04T16:34:06Z</time>
      </trkpt>
      <trkpt lat="43.66577" lon="1.3939">
        <ele>123</ele>
        <time>2023-04-04T16:34:07Z</time>
      </trkpt>
      <trkpt lat="43.66576" lon="1.39386">
        <ele>123</ele>
        <time>2023-04-04T16:34:08Z</time>
      </trkpt>
      <trkpt lat="43.66575" lon="1.39382">
        <ele>122</ele>
        <time>2023-04-04T16:34:09Z</time>
      </trkpt>
      <trkpt lat="43.66574" lon="1.39378">
        <ele>122</ele>
        <time>2023-04-04T16:34:10Z</time>
      </trkpt>
      <trkpt lat="43.66573" lon="1.39374">
        <ele>122</ele>
        <time>2023-04-04T16:34:11Z</time>
      </trkpt>
      <trkpt lat="43.66573" lon="1.3937">
        <ele>122</ele>
        <time>2023-04-04T16:34:12Z</time>
      </trkpt>
      <trkpt lat="43.66572" lon="1.39366">
        <ele>122</ele>
        <time>2023-04-04T16:34:13Z</time>
      </trkpt>
      <trkpt lat="43.66571" lon="1.3936">
        <ele>122</ele>
        <time>2023-04-04T16:34:14Z</time>
      </trkpt>
      <trkpt lat="43.66571" lon="1.39358">
        <ele>122</ele>
        <time>2023-04-04T16:34:15Z</time>
      </trkpt>
      <trkpt lat="43.6657" lon="1.39355">
        <ele>122</ele>
        <time>2023-04-04T16:34:16Z</time>
      </trkpt>
      <trkpt lat="43.6657" lon="1.39351">
        <ele>123</ele>
        <time>2023-04-04T16:34:17Z</time>
      </trkpt>
      <trkpt lat="43.66569" lon="1.39344">
        <ele>123</ele>
        <time>2023-04-04T16:34:18Z</time>
      </trkpt>
      <trkpt lat="43.66569" lon="1.39342">
        <ele>123</ele>
        <time>2023-04-04T16:34:19Z</time>
      </trkpt>
      <trkpt lat="43.66569" lon="1.39338">
        <ele>123</ele>
        <time>2023-04-04T16:34:20Z</time>
      </trkpt>
      <trkpt lat="43.66568" lon="1.39335">
        <ele>123</ele>
        <time>2023-04-04T16:34:21Z</time>
      </trkpt>
      <trkpt lat="43.66568" lon="1.3933">
        <ele>123</ele>
        <time>2023-04-04T16:34:22Z</time>
      </trkpt>
      <trkpt lat="43.66567" lon="1.39326">
        <ele>123</ele>
        <time>2023-04-04T16:34:23Z</time>
      </trkpt>
      <trkpt lat="43.66567" lon="1.39321">
        <ele>123</ele>
        <time>2023-04-04T16:34:24Z</time>
      </trkpt>
      <trkpt lat="43.66568" lon="1.39317">
        <ele>123</ele>
        <time>2023-04-04T16:34:25Z</time>
      </trkpt>
      <trkpt lat="43.66568" lon="1.39313">
        <ele>123</ele>
        <time>2023-04-04T16:34:26Z</time>
      </trkpt>
      <trkpt lat="43.66568" lon="1.39309">
        <ele>123</ele>
        <time>2023-04-04T16:34:27Z</time>
      </trkpt>
      <trkpt lat="43.66568" lon="1.39305">
        <ele>123</ele>
        <time>2023-04-04T16:34:28Z</time>
      </trkpt>
      <trkpt lat="43.66568" lon="1.39301">
        <ele>123</ele>
        <time>2023-04-04T16:34:29Z</time>
      </trkpt>
      <trkpt lat="43.66569" lon="1.39298">
        <ele>123</ele>
        <time>2023-04-04T16:34:30Z</time>
      </trkpt>
      <trkpt lat="43.66568" lon="1.39294">
        <ele>123</ele>
        <time>2023-04-04T16:34:31Z</time>
      </trkpt>
      <trkpt lat="43.66568" lon="1.39291">
        <ele>123</ele>
        <time>2023-04-04T16:34:32Z</time>
      </trkpt>
      <trkpt lat="43.66568" lon="1.39286">
        <ele>123</ele>
        <time>2023-04-04T16:34:33Z</time>
      </trkpt>
      <trkpt lat="43.66567" lon="1.39284">
        <ele>123</ele>
        <time>2023-04-04T16:34:34Z</time>
      </trkpt>
      <trkpt lat="43.66566" lon="1.39281">
        <ele>123</ele>
        <time>2023-04-04T16:34:35Z</time>
      </trkpt>
      <trkpt lat="43.66564" lon="1.39276">
        <ele>123</ele>
        <time>2023-04-04T16:34:36Z</time>
      </trkpt>
      <trkpt lat="43.66563" lon="1.39275">
        <ele>123</ele>
        <time>2023-04-04T16:34:37Z</time>
      </trkpt>
      <trkpt lat="43.66562" lon="1.39271">
        <ele>123</ele>
        <time>2023-04-04T16:34:38Z</time>
      </trkpt>
      <trkpt lat="43.6656" lon="1.39267">
        <ele>123</ele>
        <time>2023-04-04T16:34:39Z</time>
      </trkpt>
      <trkpt lat="43.66559" lon="1.39263">
        <ele>123</ele>
        <time>2023-04-04T16:34:40Z</time>
      </trkpt>
      <trkpt lat="43.66557" lon="1.39259">
        <ele>122</ele>
        <time>2023-04-04T16:34:41Z</time>
      </trkpt>
      <trkpt lat="43.66556" lon="1.39256">
        <ele>122</ele>
        <time>2023-04-04T16:34:42Z</time>
      </trkpt>
      <trkpt lat="43.66554" lon="1.39253">
        <ele>122</ele>
        <time>2023-04-04T16:34:43Z</time>
      </trkpt>
      <trkpt lat="43.66551" lon="1.39252">
        <ele>122</ele>
        <time>2023-04-04T16:34:44Z</time>
      </trkpt>
      <trkpt lat="43.66549" lon="1.39252">
        <ele>122</ele>
        <time>2023-04-04T16:34:45Z</time>
      </trkpt>
      <trkpt lat="43.66547" lon="1.39253">
        <ele>122</ele>
        <time>2023-04-04T16:34:46Z</time>
      </trkpt>
      <trkpt lat="43.66545" lon="1.39255">
        <ele>122</ele>
        <time>2023-04-04T16:34:47Z</time>
      </trkpt>
      <trkpt lat="43.66543" lon="1.39257">
        <ele>122</ele>
        <time>2023-04-04T16:34:48Z</time>
      </trkpt>
      <trkpt lat="43.6654" lon="1.3926">
        <ele>122</ele>
        <time>2023-04-04T16:34:49Z</time>
      </trkpt>
      <trkpt lat="43.66538" lon="1.39262">
        <ele>122</ele>
        <time>2023-04-04T16:34:50Z</time>
      </trkpt>
      <trkpt lat="43.66536" lon="1.39265">
        <ele>122</ele>
        <time>2023-04-04T16:34:51Z</time>
      </trkpt>
      <trkpt lat="43.66533" lon="1.39267">
        <ele>122</ele>
        <time>2023-04-04T16:34:53Z</time>
      </trkpt>
      <trkpt lat="43.6653" lon="1.39269">
        <ele>122</ele>
        <time>2023-04-04T16:34:54Z</time>
      </trkpt>
      <trkpt lat="43.66527" lon="1.39271">
        <ele>122</ele>
        <time>2023-04-04T16:34:55Z</time>
      </trkpt>
      <trkpt lat="43.66523" lon="1.39273">
        <ele>122</ele>
        <time>2023-04-04T16:34:56Z</time>
      </trkpt>
      <trkpt lat="43.66518" lon="1.39274">
        <ele>122</ele>
        <time>2023-04-04T16:34:57Z</time>
      </trkpt>
      <trkpt lat="43.66516" lon="1.39276">
        <ele>122</ele>
        <time>2023-04-04T16:34:58Z</time>
      </trkpt>
      <trkpt lat="43.66514" lon="1.39277">
        <ele>122</ele>
        <time>2023-04-04T16:34:59Z</time>
      </trkpt>
      <trkpt lat="43.66512" lon="1.39279">
        <ele>122</ele>
        <time>2023-04-04T16:35:00Z</time>
      </trkpt>
      <trkpt lat="43.66511" lon="1.39281">
        <ele>122</ele>
        <time>2023-04-04T16:35:01Z</time>
      </trkpt>
      <trkpt lat="43.6651" lon="1.39284">
        <ele>122</ele>
        <time>2023-04-04T16:35:02Z</time>
      </trkpt>
      <trkpt lat="43.66509" lon="1.39286">
        <ele>122</ele>
        <time>2023-04-04T16:35:03Z</time>
      </trkpt>
      <trkpt lat="43.66508" lon="1.39289">
        <ele>122</ele>
        <time>2023-04-04T16:35:04Z</time>
      </trkpt>
      <trkpt lat="43.66507" lon="1.39292">
        <ele>122</ele>
        <time>2023-04-04T16:35:05Z</time>
      </trkpt>
      <trkpt lat="43.66506" lon="1.39295">
        <ele>122</ele>
        <time>2023-04-04T16:35:06Z</time>
      </trkpt>
      <trkpt lat="43.66505" lon="1.39298">
        <ele>122</ele>
        <time>2023-04-04T16:35:07Z</time>
      </trkpt>
      <trkpt lat="43.66504" lon="1.39301">
        <ele>122</ele>
        <time>2023-04-04T16:35:08Z</time>
      </trkpt>
      <trkpt lat="43.66503" lon="1.39304">
        <ele>122</ele>
        <time>2023-04-04T16:35:09Z</time>
      </trkpt>
      <trkpt lat="43.66501" lon="1.39307">
        <ele>122</ele>
        <time>2023-04-04T16:35:10Z</time>
      </trkpt>
      <trkpt lat="43.66499" lon="1.39311">
        <ele>122</ele>
        <time>2023-04-04T16:35:11Z</time>
      </trkpt>
      <trkpt lat="43.66499" lon="1.39312">
        <ele>122</ele>
        <time>2023-04-04T16:35:12Z</time>
      </trkpt>
      <trkpt lat="43.66496" lon="1.39315">
        <ele>122</ele>
        <time>2023-04-04T16:35:13Z</time>
      </trkpt>
      <trkpt lat="43.66494" lon="1.39317">
        <ele>122</ele>
        <time>2023-04-04T16:35:14Z</time>
      </trkpt>
      <trkpt lat="43.66491" lon="1.3932">
        <ele>123</ele>
        <time>2023-04-04T16:35:15Z</time>
      </trkpt>
      <trkpt lat="43.66489" lon="1.39322">
        <ele>123</ele>
        <time>2023-04-04T16:35:16Z</time>
      </trkpt>
      <trkpt lat="43.66486" lon="1.39325">
        <ele>123</ele>
        <time>2023-04-04T16:35:17Z</time>
      </trkpt>
      <trkpt lat="43.66483" lon="1.39327">
        <ele>123</ele>
        <time>2023-04-04T16:35:18Z</time>
      </trkpt>
      <trkpt lat="43.6648" lon="1.39328">
        <ele>123</ele>
        <time>2023-04-04T16:35:19Z</time>
      </trkpt>
      <trkpt lat="43.66478" lon="1.39329">
        <ele>123</ele>
        <time>2023-04-04T16:35:20Z</time>
      </trkpt>
      <trkpt lat="43.66475" lon="1.3933">
        <ele>123</ele>
        <time>2023-04-04T16:35:21Z</time>
      </trkpt>
      <trkpt lat="43.66473" lon="1.39331">
        <ele>123</ele>
        <time>2023-04-04T16:35:22Z</time>
      </trkpt>
      <trkpt lat="43.6647" lon="1.39331">
        <ele>123</ele>
        <time>2023-04-04T16:35:23Z</time>
      </trkpt>
      <trkpt lat="43.66468" lon="1.39331">
        <ele>123</ele>
        <time>2023-04-04T16:35:24Z</time>
      </trkpt>
      <trkpt lat="43.66465" lon="1.39332">
        <ele>123</ele>
        <time>2023-04-04T16:35:25Z</time>
      </trkpt>
      <trkpt lat="43.66462" lon="1.39332">
        <ele>124</ele>
        <time>2023-04-04T16:35:26Z</time>
      </trkpt>
      <trkpt lat="43.66459" lon="1.39331">
        <ele>124</ele>
        <time>2023-04-04T16:35:27Z</time>
      </trkpt>
      <trkpt lat="43.66457" lon="1.39332">
        <ele>124</ele>
        <time>2023-04-04T16:35:28Z</time>
      </trkpt>
      <trkpt lat="43.66454" lon="1.39332">
        <ele>124</ele>
        <time>2023-04-04T16:35:29Z</time>
      </trkpt>
      <trkpt lat="43.66451" lon="1.39332">
        <ele>124</ele>
        <time>2023-04-04T16:35:30Z</time>
      </trkpt>
      <trkpt lat="43.66448" lon="1.39331">
        <ele>124</ele>
        <time>2023-04-04T16:35:31Z</time>
      </trkpt>
      <trkpt lat="43.66445" lon="1.39331">
        <ele>123</ele>
        <time>2023-04-04T16:35:32Z</time>
      </trkpt>
      <trkpt lat="43.66442" lon="1.39332">
        <ele>123</ele>
        <time>2023-04-04T16:35:33Z</time>
      </trkpt>
      <trkpt lat="43.66439" lon="1.39332">
        <ele>123</ele>
        <time>2023-04-04T16:35:34Z</time>
      </trkpt>
      <trkpt lat="43.66436" lon="1.39333">
        <ele>124</ele>
        <time>2023-04-04T16:35:35Z</time>
      </trkpt>
      <trkpt lat="43.66433" lon="1.39332">
        <ele>124</ele>
        <time>2023-04-04T16:35:36Z</time>
      </trkpt>
      <trkpt lat="43.6643" lon="1.39332">
        <ele>124</ele>
        <time>2023-04-04T16:35:37Z</time>
      </trkpt>
      <trkpt lat="43.66427" lon="1.39332">
        <ele>124</ele>
        <time>2023-04-04T16:35:38Z</time>
      </trkpt>
      <trkpt lat="43.66424" lon="1.39332">
        <ele>124</ele>
        <time>2023-04-04T16:35:39Z</time>
      </trkpt>
      <trkpt lat="43.66421" lon="1.39331">
        <ele>124</ele>
        <time>2023-04-04T16:35:40Z</time>
      </trkpt>
      <trkpt lat="43.66418" lon="1.39331">
        <ele>124</ele>
        <time>2023-04-04T16:35:41Z</time>
      </trkpt>
      <trkpt lat="43.66416" lon="1.3933">
        <ele>124</ele>
        <time>2023-04-04T16:35:42Z</time>
      </trkpt>
      <trkpt lat="43.66414" lon="1.39329">
        <ele>123</ele>
        <time>2023-04-04T16:35:43Z</time>
      </trkpt>
      <trkpt lat="43.66412" lon="1.39329">
        <ele>123</ele>
        <time>2023-04-04T16:35:44Z</time>
      </trkpt>
      <trkpt lat="43.6641" lon="1.39331">
        <ele>123</ele>
        <time>2023-04-04T16:35:45Z</time>
      </trkpt>
      <trkpt lat="43.66408" lon="1.39332">
        <ele>123</ele>
        <time>2023-04-04T16:35:46Z</time>
      </trkpt>
      <trkpt lat="43.66405" lon="1.39332">
        <ele>123</ele>
        <time>2023-04-04T16:35:47Z</time>
      </trkpt>
      <trkpt lat="43.66402" lon="1.3933">
        <ele>123</ele>
        <time>2023-04-04T16:35:48Z</time>
      </trkpt>
      <trkpt lat="43.66399" lon="1.39327">
        <ele>123</ele>
        <time>2023-04-04T16:35:49Z</time>
      </trkpt>
      <trkpt lat="43.66397" lon="1.39326">
        <ele>124</ele>
        <time>2023-04-04T16:35:50Z</time>
      </trkpt>
      <trkpt lat="43.66395" lon="1.39323">
        <ele>124</ele>
        <time>2023-04-04T16:35:51Z</time>
      </trkpt>
      <trkpt lat="43.66393" lon="1.3932">
        <ele>124</ele>
        <time>2023-04-04T16:35:52Z</time>
      </trkpt>
      <trkpt lat="43.6639" lon="1.39317">
        <ele>124</ele>
        <time>2023-04-04T16:35:53Z</time>
      </trkpt>
      <trkpt lat="43.66388" lon="1.39316">
        <ele>123</ele>
        <time>2023-04-04T16:35:54Z</time>
      </trkpt>
      <trkpt lat="43.66386" lon="1.39314">
        <ele>123</ele>
        <time>2023-04-04T16:35:55Z</time>
      </trkpt>
      <trkpt lat="43.66383" lon="1.39312">
        <ele>123</ele>
        <time>2023-04-04T16:35:56Z</time>
      </trkpt>
      <trkpt lat="43.6638" lon="1.39311">
        <ele>123</ele>
        <time>2023-04-04T16:35:57Z</time>
      </trkpt>
      <trkpt lat="43.66378" lon="1.39308">
        <ele>123</ele>
        <time>2023-04-04T16:35:58Z</time>
      </trkpt>
      <trkpt lat="43.66375" lon="1.39306">
        <ele>123</ele>
        <time>2023-04-04T16:35:59Z</time>
      </trkpt>
      <trkpt lat="43.66373" lon="1.39304">
        <ele>123</ele>
        <time>2023-04-04T16:36:00Z</time>
      </trkpt>
      <trkpt lat="43.6637" lon="1.39302">
        <ele>123</ele>
        <time>2023-04-04T16:36:01Z</time>
      </trkpt>
      <trkpt lat="43.66367" lon="1.39301">
        <ele>123</ele>
        <time>2023-04-04T16:36:02Z</time>
      </trkpt>
      <trkpt lat="43.66365" lon="1.393">
        <ele>123</ele>
        <time>2023-04-04T16:36:03Z</time>
      </trkpt>
      <trkpt lat="43.66362" lon="1.39299">
        <ele>123</ele>
        <time>2023-04-04T16:36:04Z</time>
      </trkpt>
      <trkpt lat="43.6636" lon="1.39298">
        <ele>123</ele>
        <time>2023-04-04T16:36:05Z</time>
      </trkpt>
      <trkpt lat="43.66357" lon="1.39298">
        <ele>123</ele>
        <time>2023-04-04T16:36:06Z</time>
      </trkpt>
      <trkpt lat="43.66355" lon="1.39298">
        <ele>123</ele>
        <time>2023-04-04T16:36:07Z</time>
      </trkpt>
      <trkpt lat="43.66352" lon="1.39298">
        <ele>123</ele>
        <time>2023-04-04T16:36:08Z</time>
      </trkpt>
      <trkpt lat="43.6635" lon="1.39298">
        <ele>123</ele>
        <time>2023-04-04T16:36:09Z</time>
      </trkpt>
      <trkpt lat="43.66348" lon="1.39299">
        <ele>123</ele>
        <time>2023-04-04T16:36:10Z</time>
      </trkpt>
      <trkpt lat="43.66346" lon="1.393">
        <ele>122</ele>
        <time>2023-04-04T16:36:11Z</time>
      </trkpt>
      <trkpt lat="43.66343" lon="1.39301">
        <ele>122</ele>
        <time>2023-04-04T16:36:12Z</time>
      </trkpt>
      <trkpt lat="43.66341" lon="1.39302">
        <ele>122</ele>
        <time>2023-04-04T16:36:13Z</time>
      </trkpt>
      <trkpt lat="43.66339" lon="1.39303">
        <ele>122</ele>
        <time>2023-04-04T16:36:14Z</time>
      </trkpt>
      <trkpt lat="43.66337" lon="1.39305">
        <ele>122</ele>
        <time>2023-04-04T16:36:15Z</time>
      </trkpt>
      <trkpt lat="43.66335" lon="1.39306">
        <ele>122</ele>
        <time>2023-04-04T16:36:16Z</time>
      </trkpt>
      <trkpt lat="43.66332" lon="1.39308">
        <ele>122</ele>
        <time>2023-04-04T16:36:17Z</time>
      </trkpt>
      <trkpt lat="43.6633" lon="1.39309">
        <ele>122</ele>
        <time>2023-04-04T16:36:18Z</time>
      </trkpt>
      <trkpt lat="43.66328" lon="1.39311">
        <ele>122</ele>
        <time>2023-04-04T16:36:19Z</time>
      </trkpt>
      <trkpt lat="43.66325" lon="1.39313">
        <ele>123</ele>
        <time>2023-04-04T16:36:20Z</time>
      </trkpt>
      <trkpt lat="43.66322" lon="1.39315">
        <ele>123</ele>
        <time>2023-04-04T16:36:21Z</time>
      </trkpt>
      <trkpt lat="43.66319" lon="1.39314">
        <ele>123</ele>
        <time>2023-04-04T16:36:22Z</time>
      </trkpt>
      <trkpt lat="43.66316" lon="1.39314">
        <ele>123</ele>
        <time>2023-04-04T16:36:23Z</time>
      </trkpt>
      <trkpt lat="43.66313" lon="1.39313">
        <ele>123</ele>
        <time>2023-04-04T16:36:24Z</time>
      </trkpt>
      <trkpt lat="43.6631" lon="1.39309">
        <ele>123</ele>
        <time>2023-04-04T16:36:25Z</time>
      </trkpt>
      <trkpt lat="43.66308" lon="1.39306">
        <ele>123</ele>
        <time>2023-04-04T16:36:26Z</time>
      </trkpt>
      <trkpt lat="43.66305" lon="1.39302">
        <ele>124</ele>
        <time>2023-04-04T16:36:28Z</time>
      </trkpt>
      <trkpt lat="43.66303" lon="1.39298">
        <ele>124</ele>
        <time>2023-04-04T16:36:29Z</time>
      </trkpt>
      <trkpt lat="43.66302" lon="1.39294">
        <ele>124</ele>
        <time>2023-04-04T16:36:30Z</time>
      </trkpt>
      <trkpt lat="43.663" lon="1.39291">
        <ele>124</ele>
        <time>2023-04-04T16:36:31Z</time>
      </trkpt>
      <trkpt lat="43.66299" lon="1.39288">
        <ele>124</ele>
        <time>2023-04-04T16:36:32Z</time>
      </trkpt>
      <trkpt lat="43.66297" lon="1.39285">
        <ele>124</ele>
        <time>2023-04-04T16:36:33Z</time>
      </trkpt>
      <trkpt lat="43.66296" lon="1.39283">
        <ele>124</ele>
        <time>2023-04-04T16:36:34Z</time>
      </trkpt>
      <trkpt lat="43.66294" lon="1.3928">
        <ele>124</ele>
        <time>2023-04-04T16:36:35Z</time>
      </trkpt>
      <trkpt lat="43.66292" lon="1.39278">
        <ele>124</ele>
        <time>2023-04-04T16:36:36Z</time>
      </trkpt>
      <trkpt lat="43.66291" lon="1.39275">
        <ele>124</ele>
        <time>2023-04-04T16:36:37Z</time>
      </trkpt>
      <trkpt lat="43.66289" lon="1.39273">
        <ele>124</ele>
        <time>2023-04-04T16:36:38Z</time>
      </trkpt>
      <trkpt lat="43.66287" lon="1.3927">
        <ele>124</ele>
        <time>2023-04-04T16:36:39Z</time>
      </trkpt>
      <trkpt lat="43.66286" lon="1.39267">
        <ele>124</ele>
        <time>2023-04-04T16:36:40Z</time>
      </trkpt>
      <trkpt lat="43.66284" lon="1.39264">
        <ele>124</ele>
        <time>2023-04-04T16:36:41Z</time>
      </trkpt>
      <trkpt lat="43.66283" lon="1.39261">
        <ele>124</ele>
        <time>2023-04-04T16:36:42Z</time>
      </trkpt>
      <trkpt lat="43.66282" lon="1.39258">
        <ele>124</ele>
        <time>2023-04-04T16:36:43Z</time>
      </trkpt>
      <trkpt lat="43.66281" lon="1.39255">
        <ele>124</ele>
        <time>2023-04-04T16:36:44Z</time>
      </trkpt>
      <trkpt lat="43.66279" lon="1.39252">
        <ele>124</ele>
        <time>2023-04-04T16:36:45Z</time>
      </trkpt>
      <trkpt lat="43.66278" lon="1.39249">
        <ele>124</ele>
        <time>2023-04-04T16:36:46Z</time>
      </trkpt>
      <trkpt lat="43.66277" lon="1.39247">
        <ele>124</ele>
        <time>2023-04-04T16:36:47Z</time>
      </trkpt>
      <trkpt lat="43.66275" lon="1.39244">
        <ele>124</ele>
        <time>2023-04-04T16:36:48Z</time>
      </trkpt>
      <trkpt lat="43.66274" lon="1.39241">
        <ele>124</ele>
        <time>2023-04-04T16:36:49Z</time>
      </trkpt>
      <trkpt lat="43.66272" lon="1.39238">
        <ele>124</ele>
        <time>2023-04-04T16:36:50Z</time>
      </trkpt>
      <trkpt lat="43.6627" lon="1.39234">
        <ele>124</ele>
        <time>2023-04-04T16:36:51Z</time>
      </trkpt>
      <trkpt lat="43.66268" lon="1.39231">
        <ele>124</ele>
        <time>2023-04-04T16:36:52Z</time>
      </trkpt>
      <trkpt lat="43.66266" lon="1.39228">
        <ele>124</ele>
        <time>2023-04-04T16:36:53Z</time>
      </trkpt>
      <trkpt lat="43.66265" lon="1.39224">
        <ele>124</ele>
        <time>2023-04-04T16:36:54Z</time>
      </trkpt>
      <trkpt lat="43.66263" lon="1.39222">
        <ele>124</ele>
        <time>2023-04-04T16:36:55Z</time>
      </trkpt>
      <trkpt lat="43.66261" lon="1.39219">
        <ele>124</ele>
        <time>2023-04-04T16:36:56Z</time>
      </trkpt>
      <trkpt lat="43.66259" lon="1.39216">
        <ele>124</ele>
        <time>2023-04-04T16:36:57Z</time>
      </trkpt>
      <trkpt lat="43.66257" lon="1.39214">
        <ele>124</ele>
        <time>2023-04-04T16:36:58Z</time>
      </trkpt>
      <trkpt lat="43.66255" lon="1.39211">
        <ele>124</ele>
        <time>2023-04-04T16:36:59Z</time>
      </trkpt>
      <trkpt lat="43.66253" lon="1.39207">
        <ele>124</ele>
        <time>2023-04-04T16:37:00Z</time>
      </trkpt>
      <trkpt lat="43.66251" lon="1.39204">
        <ele>124</ele>
        <time>2023-04-04T16:37:01Z</time>
      </trkpt>
      <trkpt lat="43.66249" lon="1.39199">
        <ele>124</ele>
        <time>2023-04-04T16:37:02Z</time>
      </trkpt>
      <trkpt lat="43.66248" lon="1.39198">
        <ele>124</ele>
        <time>2023-04-04T16:37:03Z</time>
      </trkpt>
      <trkpt lat="43.66246" lon="1.39195">
        <ele>124</ele>
        <time>2023-04-04T16:37:04Z</time>
      </trkpt>
      <trkpt lat="43.66244" lon="1.39192">
        <ele>124</ele>
        <time>2023-04-04T16:37:05Z</time>
      </trkpt>
      <trkpt lat="43.66243" lon="1.3919">
        <ele>124</ele>
        <time>2023-04-04T16:37:06Z</time>
      </trkpt>
      <trkpt lat="43.66241" lon="1.39188">
        <ele>124</ele>
        <time>2023-04-04T16:37:07Z</time>
      </trkpt>
      <trkpt lat="43.66238" lon="1.39185">
        <ele>124</ele>
        <time>2023-04-04T16:37:08Z</time>
      </trkpt>
      <trkpt lat="43.66236" lon="1.39182">
        <ele>124</ele>
        <time>2023-04-04T16:37:09Z</time>
      </trkpt>
      <trkpt lat="43.66234" lon="1.39179">
        <ele>124</ele>
        <time>2023-04-04T16:37:10Z</time>
      </trkpt>
      <trkpt lat="43.66232" lon="1.39176">
        <ele>124</ele>
        <time>2023-04-04T16:37:11Z</time>
      </trkpt>
      <trkpt lat="43.6623" lon="1.39174">
        <ele>124</ele>
        <time>2023-04-04T16:37:12Z</time>
      </trkpt>
      <trkpt lat="43.66228" lon="1.39172">
        <ele>124</ele>
        <time>2023-04-04T16:37:13Z</time>
      </trkpt>
      <trkpt lat="43.66226" lon="1.39169">
        <ele>124</ele>
        <time>2023-04-04T16:37:14Z</time>
      </trkpt>
      <trkpt lat="43.66224" lon="1.39166">
        <ele>124</ele>
        <time>2023-04-04T16:37:15Z</time>
      </trkpt>
      <trkpt lat="43.66222" lon="1.39163">
        <ele>124</ele>
        <time>2023-04-04T16:37:16Z</time>
      </trkpt>
      <trkpt lat="43.6622" lon="1.3916">
        <ele>124</ele>
        <time>2023-04-04T16:37:17Z</time>
      </trkpt>
      <trkpt lat="43.66217" lon="1.39157">
        <ele>124</ele>
        <time>2023-04-04T16:37:18Z</time>
      </trkpt>
      <trkpt lat="43.66216" lon="1.39154">
        <ele>124</ele>
        <time>2023-04-04T16:37:19Z</time>
      </trkpt>
      <trkpt lat="43.66215" lon="1.39152">
        <ele>124</ele>
        <time>2023-04-04T16:37:20Z</time>
      </trkpt>
      <trkpt lat="43.66214" lon="1.3915">
        <ele>124</ele>
        <time>2023-04-04T16:37:21Z</time>
      </trkpt>
      <trkpt lat="43.66213" lon="1.39148">
        <ele>124</ele>
        <time>2023-04-04T16:37:22Z</time>
      </trkpt>
      <trkpt lat="43.66212" lon="1.39146">
        <ele>124</ele>
        <time>2023-04-04T16:37:23Z</time>
      </trkpt>
      <trkpt lat="43.66208" lon="1.39146">
        <ele>124</ele>
        <time>2023-04-04T16:37:24Z</time>
      </trkpt>
      <trkpt lat="43.66206" lon="1.39147">
        <ele>124</ele>
        <time>2023-04-04T16:37:25Z</time>
      </trkpt>
      <trkpt lat="43.66205" lon="1.39148">
        <ele>124</ele>
        <time>2023-04-04T16:37:26Z</time>
      </trkpt>
      <trkpt lat="43.66203" lon="1.3915">
        <ele>124</ele>
        <time>2023-04-04T16:37:27Z</time>
      </trkpt>
      <trkpt lat="43.66201" lon="1.39152">
        <ele>123</ele>
        <time>2023-04-04T16:37:28Z</time>
      </trkpt>
      <trkpt lat="43.66199" lon="1.39154">
        <ele>123</ele>
        <time>2023-04-04T16:37:29Z</time>
      </trkpt>
      <trkpt lat="43.66197" lon="1.39156">
        <ele>123</ele>
        <time>2023-04-04T16:37:30Z</time>
      </trkpt>
      <trkpt lat="43.66195" lon="1.39158">
        <ele>123</ele>
        <time>2023-04-04T16:37:31Z</time>
      </trkpt>
      <trkpt lat="43.66194" lon="1.39159">
        <ele>124</ele>
        <time>2023-04-04T16:37:32Z</time>
      </trkpt>
      <trkpt lat="43.66194" lon="1.3916">
        <ele>124</ele>
        <time>2023-04-04T16:37:33Z</time>
      </trkpt>
      <trkpt lat="43.66193" lon="1.39161">
        <ele>124</ele>
        <time>2023-04-04T16:37:34Z</time>
      </trkpt>
      <trkpt lat="43.66192" lon="1.39162">
        <ele>124</ele>
        <time>2023-04-04T16:37:35Z</time>
      </trkpt>
      <trkpt lat="43.66191" lon="1.39163">
        <ele>124</ele>
        <time>2023-04-04T16:37:36Z</time>
      </trkpt>
      <trkpt lat="43.66186" lon="1.39169">
        <ele>124</ele>
        <time>2023-04-04T16:37:37Z</time>
      </trkpt>
      <trkpt lat="43.66185" lon="1.3917">
        <ele>123</ele>
        <time>2023-04-04T16:37:38Z</time>
      </trkpt>
      <trkpt lat="43.66183" lon="1.39171">
        <ele>124</ele>
        <time>2023-04-04T16:37:39Z</time>
      </trkpt>
      <trkpt lat="43.66182" lon="1.39172">
        <ele>124</ele>
        <time>2023-04-04T16:37:40Z</time>
      </trkpt>
      <trkpt lat="43.66175" lon="1.39177">
        <ele>124</ele>
        <time>2023-04-04T16:37:41Z</time>
      </trkpt>
      <trkpt lat="43.66172" lon="1.39178">
        <ele>124</ele>
        <time>2023-04-04T16:37:42Z</time>
      </trkpt>
      <trkpt lat="43.6617" lon="1.3918">
        <ele>124</ele>
        <time>2023-04-04T16:37:44Z</time>
      </trkpt>
      <trkpt lat="43.66167" lon="1.39181">
        <ele>124</ele>
        <time>2023-04-04T16:37:45Z</time>
      </trkpt>
      <trkpt lat="43.66165" lon="1.39184">
        <ele>124</ele>
        <time>2023-04-04T16:37:46Z</time>
      </trkpt>
      <trkpt lat="43.66162" lon="1.39186">
        <ele>123</ele>
        <time>2023-04-04T16:37:47Z</time>
      </trkpt>
      <trkpt lat="43.66159" lon="1.39189">
        <ele>124</ele>
        <time>2023-04-04T16:37:48Z</time>
      </trkpt>
      <trkpt lat="43.66157" lon="1.3919">
        <ele>124</ele>
        <time>2023-04-04T16:37:49Z</time>
      </trkpt>
      <trkpt lat="43.66155" lon="1.3919">
        <ele>124</ele>
        <time>2023-04-04T16:37:50Z</time>
      </trkpt>
      <trkpt lat="43.66154" lon="1.39191">
        <ele>124</ele>
        <time>2023-04-04T16:37:51Z</time>
      </trkpt>
      <trkpt lat="43.66147" lon="1.39195">
        <ele>124</ele>
        <time>2023-04-04T16:37:52Z</time>
      </trkpt>
      <trkpt lat="43.66145" lon="1.39196">
        <ele>124</ele>
        <time>2023-04-04T16:37:53Z</time>
      </trkpt>
      <trkpt lat="43.66143" lon="1.39196">
        <ele>124</ele>
        <time>2023-04-04T16:37:54Z</time>
      </trkpt>
      <trkpt lat="43.66135" lon="1.392">
        <ele>124</ele>
        <time>2023-04-04T16:37:55Z</time>
      </trkpt>
      <trkpt lat="43.66133" lon="1.39201">
        <ele>124</ele>
        <time>2023-04-04T16:37:56Z</time>
      </trkpt>
      <trkpt lat="43.66131" lon="1.39202">
        <ele>124</ele>
        <time>2023-04-04T16:37:57Z</time>
      </trkpt>
      <trkpt lat="43.66128" lon="1.39203">
        <ele>124</ele>
        <time>2023-04-04T16:37:58Z</time>
      </trkpt>
      <trkpt lat="43.66127" lon="1.39203">
        <ele>124</ele>
        <time>2023-04-04T16:37:59Z</time>
      </trkpt>
      <trkpt lat="43.66126" lon="1.39204">
        <ele>124</ele>
        <time>2023-04-04T16:38:00Z</time>
      </trkpt>
      <trkpt lat="43.66124" lon="1.39204">
        <ele>124</ele>
        <time>2023-04-04T16:38:01Z</time>
      </trkpt>
      <trkpt lat="43.66115" lon="1.39207">
        <ele>124</ele>
        <time>2023-04-04T16:38:03Z</time>
      </trkpt>
      <trkpt lat="43.66113" lon="1.39207">
        <ele>124</ele>
        <time>2023-04-04T16:38:04Z</time>
      </trkpt>
      <trkpt lat="43.66111" lon="1.39207">
        <ele>124</ele>
        <time>2023-04-04T16:38:05Z</time>
      </trkpt>
      <trkpt lat="43.66104" lon="1.39209">
        <ele>124</ele>
        <time>2023-04-04T16:38:06Z</time>
      </trkpt>
      <trkpt lat="43.66102" lon="1.39211">
        <ele>124</ele>
        <time>2023-04-04T16:38:07Z</time>
      </trkpt>
      <trkpt lat="43.661" lon="1.39213">
        <ele>124</ele>
        <time>2023-04-04T16:38:08Z</time>
      </trkpt>
      <trkpt lat="43.66098" lon="1.39214">
        <ele>124</ele>
        <time>2023-04-04T16:38:09Z</time>
      </trkpt>
      <trkpt lat="43.66097" lon="1.39216">
        <ele>124</ele>
        <time>2023-04-04T16:38:10Z</time>
      </trkpt>
      <trkpt lat="43.66095" lon="1.39217">
        <ele>124</ele>
        <time>2023-04-04T16:38:11Z</time>
      </trkpt>
      <trkpt lat="43.66093" lon="1.39219">
        <ele>123</ele>
        <time>2023-04-04T16:38:12Z</time>
      </trkpt>
      <trkpt lat="43.66091" lon="1.39221">
        <ele>123</ele>
        <time>2023-04-04T16:38:13Z</time>
      </trkpt>
      <trkpt lat="43.66089" lon="1.39222">
        <ele>123</ele>
        <time>2023-04-04T16:38:14Z</time>
      </trkpt>
      <trkpt lat="43.66086" lon="1.39222">
        <ele>123</ele>
        <time>2023-04-04T16:38:15Z</time>
      </trkpt>
      <trkpt lat="43.66084" lon="1.39223">
        <ele>123</ele>
        <time>2023-04-04T16:38:16Z</time>
      </trkpt>
      <trkpt lat="43.66082" lon="1.39224">
        <ele>123</ele>
        <time>2023-04-04T16:38:17Z</time>
      </trkpt>
      <trkpt lat="43.66079" lon="1.39225">
        <ele>123</ele>
        <time>2023-04-04T16:38:18Z</time>
      </trkpt>
      <trkpt lat="43.66075" lon="1.39225">
        <ele>123</ele>
        <time>2023-04-04T16:38:19Z</time>
      </trkpt>
      <trkpt lat="43.6607" lon="1.39225">
        <ele>123</ele>
        <time>2023-04-04T16:38:20Z</time>
      </trkpt>
      <trkpt lat="43.66067" lon="1.39226">
        <ele>124</ele>
        <time>2023-04-04T16:38:22Z</time>
      </trkpt>
      <trkpt lat="43.66064" lon="1.39226">
        <ele>124</ele>
        <time>2023-04-04T16:38:23Z</time>
      </trkpt>
      <trkpt lat="43.6606" lon="1.39227">
        <ele>124</ele>
        <time>2023-04-04T16:38:24Z</time>
      </trkpt>
      <trkpt lat="43.66058" lon="1.39227">
        <ele>124</ele>
        <time>2023-04-04T16:38:25Z</time>
      </trkpt>
      <trkpt lat="43.66055" lon="1.39227">
        <ele>124</ele>
        <time>2023-04-04T16:38:26Z</time>
      </trkpt>
      <trkpt lat="43.66053" lon="1.39227">
        <ele>124</ele>
        <time>2023-04-04T16:38:27Z</time>
      </trkpt>
      <trkpt lat="43.6605" lon="1.39228">
        <ele>124</ele>
        <time>2023-04-04T16:38:28Z</time>
      </trkpt>
      <trkpt lat="43.66048" lon="1.39228">
        <ele>124</ele>
        <time>2023-04-04T16:38:29Z</time>
      </trkpt>
      <trkpt lat="43.66046" lon="1.39228">
        <ele>124</ele>
        <time>2023-04-04T16:38:30Z</time>
      </trkpt>
      <trkpt lat="43.66045" lon="1.39228">
        <ele>124</ele>
        <time>2023-04-04T16:38:31Z</time>
      </trkpt>
      <trkpt lat="43.66037" lon="1.39228">
        <ele>124</ele>
        <time>2023-04-04T16:38:32Z</time>
      </trkpt>
      <trkpt lat="43.66035" lon="1.39228">
        <ele>124</ele>
        <time>2023-04-04T16:38:33Z</time>
      </trkpt>
      <trkpt lat="43.66033" lon="1.39229">
        <ele>124</ele>
        <time>2023-04-04T16:38:34Z</time>
      </trkpt>
      <trkpt lat="43.66031" lon="1.39229">
        <ele>124</ele>
        <time>2023-04-04T16:38:35Z</time>
      </trkpt>
      <trkpt lat="43.66029" lon="1.39229">
        <ele>124</ele>
        <time>2023-04-04T16:38:36Z</time>
      </trkpt>
      <trkpt lat="43.66027" lon="1.3923">
        <ele>124</ele>
        <time>2023-04-04T16:38:37Z</time>
      </trkpt>
      <trkpt lat="43.66025" lon="1.3923">
        <ele>124</ele>
        <time>2023-04-04T16:38:38Z</time>
      </trkpt>
      <trkpt lat="43.66023" lon="1.39231">
        <ele>124</ele>
        <time>2023-04-04T16:38:39Z</time>
      </trkpt>
      <trkpt lat="43.66018" lon="1.39233">
        <ele>124</ele>
        <time>2023-04-04T16:38:41Z</time>
      </trkpt>
      <trkpt lat="43.66013" lon="1.39235">
        <ele>124</ele>
        <time>2023-04-04T16:38:42Z</time>
      </trkpt>
      <trkpt lat="43.6601" lon="1.39236">
        <ele>124</ele>
        <time>2023-04-04T16:38:43Z</time>
      </trkpt>
      <trkpt lat="43.66007" lon="1.39237">
        <ele>124</ele>
        <time>2023-04-04T16:38:44Z</time>
      </trkpt>
      <trkpt lat="43.66003" lon="1.39238">
        <ele>124</ele>
        <time>2023-04-04T16:38:45Z</time>
      </trkpt>
      <trkpt lat="43.66002" lon="1.39238">
        <ele>124</ele>
        <time>2023-04-04T16:38:46Z</time>
      </trkpt>
      <trkpt lat="43.66" lon="1.39238">
        <ele>124</ele>
        <time>2023-04-04T16:38:47Z</time>
      </trkpt>
      <trkpt lat="43.65998" lon="1.39239">
        <ele>124</ele>
        <time>2023-04-04T16:38:48Z</time>
      </trkpt>
      <trkpt lat="43.65996" lon="1.39239">
        <ele>124</ele>
        <time>2023-04-04T16:38:49Z</time>
      </trkpt>
      <trkpt lat="43.65994" lon="1.3924">
        <ele>125</ele>
        <time>2023-04-04T16:38:50Z</time>
      </trkpt>
      <trkpt lat="43.65992" lon="1.3924">
        <ele>125</ele>
        <time>2023-04-04T16:38:51Z</time>
      </trkpt>
      <trkpt lat="43.6599" lon="1.39241">
        <ele>125</ele>
        <time>2023-04-04T16:38:52Z</time>
      </trkpt>
      <trkpt lat="43.65988" lon="1.39241">
        <ele>125</ele>
        <time>2023-04-04T16:38:53Z</time>
      </trkpt>
      <trkpt lat="43.65988" lon="1.39241">
        <ele>125</ele>
        <time>2023-04-04T16:38:54Z</time>
      </trkpt>
      <trkpt lat="43.65984" lon="1.39241">
        <ele>125</ele>
        <time>2023-04-04T16:38:55Z</time>
      </trkpt>
      <trkpt lat="43.65982" lon="1.3924">
        <ele>125</ele>
        <time>2023-04-04T16:38:56Z</time>
      </trkpt>
      <trkpt lat="43.65982" lon="1.3924">
        <ele>127</ele>
        <time>2023-04-04T16:38:57Z</time>
      </trkpt>
      <trkpt lat="43.65982" lon="1.3924">
        <ele>128</ele>
        <time>2023-04-04T16:38:58Z</time>
      </trkpt>
      <trkpt lat="43.65976" lon="1.39239">
        <ele>128</ele>
        <time>2023-04-04T16:39:00Z</time>
      </trkpt>
      <trkpt lat="43.65976" lon="1.39239">
        <ele>128</ele>
        <time>2023-04-04T16:39:01Z</time>
      </trkpt>
      <trkpt lat="43.65974" lon="1.39238">
        <ele>131</ele>
        <time>2023-04-04T16:39:02Z</time>
      </trkpt>
      <trkpt lat="43.65974" lon="1.39238">
        <ele>131</ele>
        <time>2023-04-04T16:39:03Z</time>
      </trkpt>
      <trkpt lat="43.65971" lon="1.39237">
        <ele>131</ele>
        <time>2023-04-04T16:39:04Z</time>
      </trkpt>
      <trkpt lat="43.65971" lon="1.39237">
        <ele>131</ele>
        <time>2023-04-04T16:39:05Z</time>
      </trkpt>
      <trkpt lat="43.65969" lon="1.39237">
        <ele>131</ele>
        <time>2023-04-04T16:39:06Z</time>
      </trkpt>
      <trkpt lat="43.65969" lon="1.39237">
        <ele>132</ele>
        <time>2023-04-04T16:39:07Z</time>
      </trkpt>
      <trkpt lat="43.65969" lon="1.39237">
        <ele>132</ele>
        <time>2023-04-04T16:39:08Z</time>
      </trkpt>
      <trkpt lat="43.65965" lon="1.39237">
        <ele>132</ele>
        <time>2023-04-04T16:39:09Z</time>
      </trkpt>
      <trkpt lat="43.65965" lon="1.39237">
        <ele>132</ele>
        <time>2023-04-04T16:39:10Z</time>
      </trkpt>
      <trkpt lat="43.65962" lon="1.39235">
        <ele>133</ele>
        <time>2023-04-04T16:39:11Z</time>
      </trkpt>
      <trkpt lat="43.65962" lon="1.39235">
        <ele>134</ele>
        <time>2023-04-04T16:39:12Z</time>
      </trkpt>
      <trkpt lat="43.65959" lon="1.39235">
        <ele>134</ele>
        <time>2023-04-04T16:39:13Z</time>
      </trkpt>
      <trkpt lat="43.65959" lon="1.39235">
        <ele>134</ele>
        <time>2023-04-04T16:39:14Z</time>
      </trkpt>
      <trkpt lat="43.65959" lon="1.39235">
        <ele>134</ele>
        <time>2023-04-04T16:39:15Z</time>
      </trkpt>
      <trkpt lat="43.65956" lon="1.39235">
        <ele>134</ele>
        <time>2023-04-04T16:39:16Z</time>
      </trkpt>
      <trkpt lat="43.65953" lon="1.39236">
        <ele>135</ele>
        <time>2023-04-04T16:39:17Z</time>
      </trkpt>
      <trkpt lat="43.65952" lon="1.39236">
        <ele>135</ele>
        <time>2023-04-04T16:39:18Z</time>
      </trkpt>
      <trkpt lat="43.65952" lon="1.39236">
        <ele>136</ele>
        <time>2023-04-04T16:39:19Z</time>
      </trkpt>
      <trkpt lat="43.65948" lon="1.39237">
        <ele>136</ele>
        <time>2023-04-04T16:39:20Z</time>
      </trkpt>
      <trkpt lat="43.65946" lon="1.39236">
        <ele>136</ele>
        <time>2023-04-04T16:39:21Z</time>
      </trkpt>
      <trkpt lat="43.65945" lon="1.39236">
        <ele>136</ele>
        <time>2023-04-04T16:39:22Z</time>
      </trkpt>
      <trkpt lat="43.65942" lon="1.39237">
        <ele>136</ele>
        <time>2023-04-04T16:39:23Z</time>
      </trkpt>
      <trkpt lat="43.6594" lon="1.39237">
        <ele>137</ele>
        <time>2023-04-04T16:39:24Z</time>
      </trkpt>
      <trkpt lat="43.6594" lon="1.39237">
        <ele>137</ele>
        <time>2023-04-04T16:39:25Z</time>
      </trkpt>
      <trkpt lat="43.65937" lon="1.39237">
        <ele>137</ele>
        <time>2023-04-04T16:39:26Z</time>
      </trkpt>
      <trkpt lat="43.65937" lon="1.39237">
        <ele>137</ele>
        <time>2023-04-04T16:39:27Z</time>
      </trkpt>
      <trkpt lat="43.65935" lon="1.39236">
        <ele>137</ele>
        <time>2023-04-04T16:39:28Z</time>
      </trkpt>
      <trkpt lat="43.65935" lon="1.39236">
        <ele>137</ele>
        <time>2023-04-04T16:39:29Z</time>
      </trkpt>
      <trkpt lat="43.65932" lon="1.39236">
        <ele>137</ele>
        <time>2023-04-04T16:39:30Z</time>
      </trkpt>
      <trkpt lat="43.65932" lon="1.39236">
        <ele>137</ele>
        <time>2023-04-04T16:39:31Z</time>
      </trkpt>
      <trkpt lat="43.65929" lon="1.39236">
        <ele>138</ele>
        <time>2023-04-04T16:39:32Z</time>
      </trkpt>
      <trkpt lat="43.65929" lon="1.39236">
        <ele>138</ele>
        <time>2023-04-04T16:39:33Z</time>
      </trkpt>
      <trkpt lat="43.65927" lon="1.39236">
        <ele>138</ele>
        <time>2023-04-04T16:39:34Z</time>
      </trkpt>
      <trkpt lat="43.65927" lon="1.39236">
        <ele>138</ele>
        <time>2023-04-04T16:39:35Z</time>
      </trkpt>
      <trkpt lat="43.65924" lon="1.39235">
        <ele>138</ele>
        <time>2023-04-04T16:39:36Z</time>
      </trkpt>
      <trkpt lat="43.65922" lon="1.39235">
        <ele>138</ele>
        <time>2023-04-04T16:39:38Z</time>
      </trkpt>
      <trkpt lat="43.65922" lon="1.39235">
        <ele>138</ele>
        <time>2023-04-04T16:39:39Z</time>
      </trkpt>
      <trkpt lat="43.65919" lon="1.39233">
        <ele>139</ele>
        <time>2023-04-04T16:39:40Z</time>
      </trkpt>
      <trkpt lat="43.65919" lon="1.39233">
        <ele>139</ele>
        <time>2023-04-04T16:39:41Z</time>
      </trkpt>
      <trkpt lat="43.65918" lon="1.3923">
        <ele>139</ele>
        <time>2023-04-04T16:39:42Z</time>
      </trkpt>
      <trkpt lat="43.65918" lon="1.3923">
        <ele>140</ele>
        <time>2023-04-04T16:39:43Z</time>
      </trkpt>
      <trkpt lat="43.65917" lon="1.39228">
        <ele>141</ele>
        <time>2023-04-04T16:39:44Z</time>
      </trkpt>
      <trkpt lat="43.65917" lon="1.39228">
        <ele>141</ele>
        <time>2023-04-04T16:39:45Z</time>
      </trkpt>
      <trkpt lat="43.65915" lon="1.39224">
        <ele>142</ele>
        <time>2023-04-04T16:39:46Z</time>
      </trkpt>
      <trkpt lat="43.65913" lon="1.39222">
        <ele>142</ele>
        <time>2023-04-04T16:39:47Z</time>
      </trkpt>
      <trkpt lat="43.65911" lon="1.3922">
        <ele>142</ele>
        <time>2023-04-04T16:39:48Z</time>
      </trkpt>
      <trkpt lat="43.6591" lon="1.39216">
        <ele>142</ele>
        <time>2023-04-04T16:39:49Z</time>
      </trkpt>
      <trkpt lat="43.65908" lon="1.39213">
        <ele>142</ele>
        <time>2023-04-04T16:39:50Z</time>
      </trkpt>
      <trkpt lat="43.65906" lon="1.3921">
        <ele>142</ele>
        <time>2023-04-04T16:39:51Z</time>
      </trkpt>
      <trkpt lat="43.65904" lon="1.39206">
        <ele>142</ele>
        <time>2023-04-04T16:39:52Z</time>
      </trkpt>
      <trkpt lat="43.65903" lon="1.39203">
        <ele>142</ele>
        <time>2023-04-04T16:39:53Z</time>
      </trkpt>
      <trkpt lat="43.65902" lon="1.39199">
        <ele>142</ele>
        <time>2023-04-04T16:39:54Z</time>
      </trkpt>
      <trkpt lat="43.65901" lon="1.39196">
        <ele>142</ele>
        <time>2023-04-04T16:39:55Z</time>
      </trkpt>
      <trkpt lat="43.65899" lon="1.39191">
        <ele>142</ele>
        <time>2023-04-04T16:39:56Z</time>
      </trkpt>
      <trkpt lat="43.65898" lon="1.39189">
        <ele>142</ele>
        <time>2023-04-04T16:39:57Z</time>
      </trkpt>
      <trkpt lat="43.65897" lon="1.39186">
        <ele>142</ele>
        <time>2023-04-04T16:39:58Z</time>
      </trkpt>
      <trkpt lat="43.65896" lon="1.39182">
        <ele>142</ele>
        <time>2023-04-04T16:39:59Z</time>
      </trkpt>
      <trkpt lat="43.65895" lon="1.39179">
        <ele>142</ele>
        <time>2023-04-04T16:40:00Z</time>
      </trkpt>
      <trkpt lat="43.65894" lon="1.39175">
        <ele>142</ele>
        <time>2023-04-04T16:40:01Z</time>
      </trkpt>
      <trkpt lat="43.65893" lon="1.39172">
        <ele>143</ele>
        <time>2023-04-04T16:40:02Z</time>
      </trkpt>
      <trkpt lat="43.65891" lon="1.39168">
        <ele>143</ele>
        <time>2023-04-04T16:40:03Z</time>
      </trkpt>
      <trkpt lat="43.6589" lon="1.39165">
        <ele>143</ele>
        <time>2023-04-04T16:40:04Z</time>
      </trkpt>
      <trkpt lat="43.65889" lon="1.39162">
        <ele>143</ele>
        <time>2023-04-04T16:40:05Z</time>
      </trkpt>
      <trkpt lat="43.65887" lon="1.39159">
        <ele>143</ele>
        <time>2023-04-04T16:40:06Z</time>
      </trkpt>
      <trkpt lat="43.65886" lon="1.39156">
        <ele>143</ele>
        <time>2023-04-04T16:40:07Z</time>
      </trkpt>
      <trkpt lat="43.65883" lon="1.39154">
        <ele>143</ele>
        <time>2023-04-04T16:40:08Z</time>
      </trkpt>
      <trkpt lat="43.65881" lon="1.39152">
        <ele>143</ele>
        <time>2023-04-04T16:40:09Z</time>
      </trkpt>
      <trkpt lat="43.65879" lon="1.39149">
        <ele>143</ele>
        <time>2023-04-04T16:40:10Z</time>
      </trkpt>
      <trkpt lat="43.65878" lon="1.39145">
        <ele>143</ele>
        <time>2023-04-04T16:40:11Z</time>
      </trkpt>
      <trkpt lat="43.65877" lon="1.39141">
        <ele>143</ele>
        <time>2023-04-04T16:40:12Z</time>
      </trkpt>
      <trkpt lat="43.65876" lon="1.39137">
        <ele>143</ele>
        <time>2023-04-04T16:40:13Z</time>
      </trkpt>
      <trkpt lat="43.65875" lon="1.39133">
        <ele>143</ele>
        <time>2023-04-04T16:40:14Z</time>
      </trkpt>
      <trkpt lat="43.65874" lon="1.39129">
        <ele>142</ele>
        <time>2023-04-04T16:40:15Z</time>
      </trkpt>
      <trkpt lat="43.65873" lon="1.39125">
        <ele>142</ele>
        <time>2023-04-04T16:40:16Z</time>
      </trkpt>
      <trkpt lat="43.65872" lon="1.39122">
        <ele>142</ele>
        <time>2023-04-04T16:40:17Z</time>
      </trkpt>
      <trkpt lat="43.65871" lon="1.39117">
        <ele>142</ele>
        <time>2023-04-04T16:40:18Z</time>
      </trkpt>
      <trkpt lat="43.6587" lon="1.39113">
        <ele>143</ele>
        <time>2023-04-04T16:40:19Z</time>
      </trkpt>
      <trkpt lat="43.65869" lon="1.39109">
        <ele>143</ele>
        <time>2023-04-04T16:40:20Z</time>
      </trkpt>
      <trkpt lat="43.65868" lon="1.39105">
        <ele>143</ele>
        <time>2023-04-04T16:40:21Z</time>
      </trkpt>
      <trkpt lat="43.65866" lon="1.39101">
        <ele>143</ele>
        <time>2023-04-04T16:40:22Z</time>
      </trkpt>
      <trkpt lat="43.65865" lon="1.39097">
        <ele>142</ele>
        <time>2023-04-04T16:40:23Z</time>
      </trkpt>
      <trkpt lat="43.65864" lon="1.39093">
        <ele>142</ele>
        <time>2023-04-04T16:40:24Z</time>
      </trkpt>
      <trkpt lat="43.65863" lon="1.3909">
        <ele>142</ele>
        <time>2023-04-04T16:40:25Z</time>
      </trkpt>
      <trkpt lat="43.65861" lon="1.39086">
        <ele>142</ele>
        <time>2023-04-04T16:40:26Z</time>
      </trkpt>
      <trkpt lat="43.6586" lon="1.39083">
        <ele>142</ele>
        <time>2023-04-04T16:40:27Z</time>
      </trkpt>
      <trkpt lat="43.65859" lon="1.39079">
        <ele>142</ele>
        <time>2023-04-04T16:40:28Z</time>
      </trkpt>
      <trkpt lat="43.65857" lon="1.39075">
        <ele>142</ele>
        <time>2023-04-04T16:40:29Z</time>
      </trkpt>
      <trkpt lat="43.65856" lon="1.39072">
        <ele>142</ele>
        <time>2023-04-04T16:40:30Z</time>
      </trkpt>
      <trkpt lat="43.65854" lon="1.39067">
        <ele>142</ele>
        <time>2023-04-04T16:40:31Z</time>
      </trkpt>
      <trkpt lat="43.65854" lon="1.39066">
        <ele>142</ele>
        <time>2023-04-04T16:40:32Z</time>
      </trkpt>
      <trkpt lat="43.65853" lon="1.39062">
        <ele>142</ele>
        <time>2023-04-04T16:40:33Z</time>
      </trkpt>
      <trkpt lat="43.65851" lon="1.39057">
        <ele>142</ele>
        <time>2023-04-04T16:40:34Z</time>
      </trkpt>
      <trkpt lat="43.65851" lon="1.39055">
        <ele>142</ele>
        <time>2023-04-04T16:40:35Z</time>
      </trkpt>
      <trkpt lat="43.65849" lon="1.39051">
        <ele>142</ele>
        <time>2023-04-04T16:40:36Z</time>
      </trkpt>
      <trkpt lat="43.65848" lon="1.39048">
        <ele>142</ele>
        <time>2023-04-04T16:40:37Z</time>
      </trkpt>
      <trkpt lat="43.65847" lon="1.39045">
        <ele>141</ele>
        <time>2023-04-04T16:40:38Z</time>
      </trkpt>
      <trkpt lat="43.65846" lon="1.39041">
        <ele>141</ele>
        <time>2023-04-04T16:40:39Z</time>
      </trkpt>
      <trkpt lat="43.65845" lon="1.39038">
        <ele>141</ele>
        <time>2023-04-04T16:40:40Z</time>
      </trkpt>
      <trkpt lat="43.65843" lon="1.39034">
        <ele>141</ele>
        <time>2023-04-04T16:40:41Z</time>
      </trkpt>
      <trkpt lat="43.65842" lon="1.39031">
        <ele>141</ele>
        <time>2023-04-04T16:40:42Z</time>
      </trkpt>
      <trkpt lat="43.65841" lon="1.39027">
        <ele>141</ele>
        <time>2023-04-04T16:40:43Z</time>
      </trkpt>
      <trkpt lat="43.6584" lon="1.39024">
        <ele>141</ele>
        <time>2023-04-04T16:40:44Z</time>
      </trkpt>
      <trkpt lat="43.65839" lon="1.3902">
        <ele>141</ele>
        <time>2023-04-04T16:40:45Z</time>
      </trkpt>
      <trkpt lat="43.65837" lon="1.39017">
        <ele>141</ele>
        <time>2023-04-04T16:40:46Z</time>
      </trkpt>
      <trkpt lat="43.65836" lon="1.39014">
        <ele>141</ele>
        <time>2023-04-04T16:40:47Z</time>
      </trkpt>
      <trkpt lat="43.65835" lon="1.3901">
        <ele>141</ele>
        <time>2023-04-04T16:40:48Z</time>
      </trkpt>
      <trkpt lat="43.65833" lon="1.39005">
        <ele>141</ele>
        <time>2023-04-04T16:40:49Z</time>
      </trkpt>
      <trkpt lat="43.65833" lon="1.39003">
        <ele>141</ele>
        <time>2023-04-04T16:40:50Z</time>
      </trkpt>
      <trkpt lat="43.65831" lon="1.39">
        <ele>141</ele>
        <time>2023-04-04T16:40:51Z</time>
      </trkpt>
      <trkpt lat="43.6583" lon="1.38996">
        <ele>141</ele>
        <time>2023-04-04T16:40:52Z</time>
      </trkpt>
      <trkpt lat="43.65828" lon="1.38991">
        <ele>141</ele>
        <time>2023-04-04T16:40:53Z</time>
      </trkpt>
      <trkpt lat="43.65828" lon="1.38989">
        <ele>141</ele>
        <time>2023-04-04T16:40:54Z</time>
      </trkpt>
      <trkpt lat="43.65827" lon="1.38986">
        <ele>141</ele>
        <time>2023-04-04T16:40:55Z</time>
      </trkpt>
      <trkpt lat="43.65826" lon="1.38982">
        <ele>141</ele>
        <time>2023-04-04T16:40:56Z</time>
      </trkpt>
      <trkpt lat="43.65825" lon="1.38979">
        <ele>141</ele>
        <time>2023-04-04T16:40:57Z</time>
      </trkpt>
      <trkpt lat="43.65824" lon="1.38975">
        <ele>141</ele>
        <time>2023-04-04T16:40:58Z</time>
      </trkpt>
      <trkpt lat="43.65822" lon="1.38972">
        <ele>141</ele>
        <time>2023-04-04T16:40:59Z</time>
      </trkpt>
      <trkpt lat="43.65822" lon="1.38968">
        <ele>141</ele>
        <time>2023-04-04T16:41:00Z</time>
      </trkpt>
      <trkpt lat="43.6582" lon="1.38965">
        <ele>141</ele>
        <time>2023-04-04T16:41:01Z</time>
      </trkpt>
      <trkpt lat="43.65819" lon="1.38962">
        <ele>141</ele>
        <time>2023-04-04T16:41:02Z</time>
      </trkpt>
      <trkpt lat="43.65818" lon="1.38958">
        <ele>141</ele>
        <time>2023-04-04T16:41:03Z</time>
      </trkpt>
      <trkpt lat="43.65817" lon="1.38955">
        <ele>141</ele>
        <time>2023-04-04T16:41:04Z</time>
      </trkpt>
      <trkpt lat="43.65816" lon="1.38952">
        <ele>141</ele>
        <time>2023-04-04T16:41:05Z</time>
      </trkpt>
      <trkpt lat="43.65815" lon="1.38948">
        <ele>141</ele>
        <time>2023-04-04T16:41:06Z</time>
      </trkpt>
      <trkpt lat="43.65813" lon="1.38943">
        <ele>141</ele>
        <time>2023-04-04T16:41:07Z</time>
      </trkpt>
      <trkpt lat="43.65813" lon="1.38941">
        <ele>141</ele>
        <time>2023-04-04T16:41:08Z</time>
      </trkpt>
      <trkpt lat="43.65812" lon="1.38938">
        <ele>141</ele>
        <time>2023-04-04T16:41:09Z</time>
      </trkpt>
      <trkpt lat="43.65811" lon="1.38935">
        <ele>142</ele>
        <time>2023-04-04T16:41:10Z</time>
      </trkpt>
      <trkpt lat="43.6581" lon="1.38931">
        <ele>142</ele>
        <time>2023-04-04T16:41:11Z</time>
      </trkpt>
      <trkpt lat="43.65808" lon="1.38926">
        <ele>142</ele>
        <time>2023-04-04T16:41:12Z</time>
      </trkpt>
      <trkpt lat="43.65807" lon="1.38925">
        <ele>142</ele>
        <time>2023-04-04T16:41:13Z</time>
      </trkpt>
      <trkpt lat="43.65806" lon="1.38921">
        <ele>142</ele>
        <time>2023-04-04T16:41:14Z</time>
      </trkpt>
      <trkpt lat="43.65805" lon="1.38918">
        <ele>142</ele>
        <time>2023-04-04T16:41:15Z</time>
      </trkpt>
      <trkpt lat="43.65804" lon="1.38914">
        <ele>142</ele>
        <time>2023-04-04T16:41:16Z</time>
      </trkpt>
      <trkpt lat="43.65803" lon="1.38911">
        <ele>142</ele>
        <time>2023-04-04T16:41:17Z</time>
      </trkpt>
      <trkpt lat="43.65802" lon="1.38907">
        <ele>142</ele>
        <time>2023-04-04T16:41:18Z</time>
      </trkpt>
      <trkpt lat="43.658" lon="1.38904">
        <ele>142</ele>
        <time>2023-04-04T16:41:19Z</time>
      </trkpt>
      <trkpt lat="43.65799" lon="1.389">
        <ele>142</ele>
        <time>2023-04-04T16:41:20Z</time>
      </trkpt>
      <trkpt lat="43.65798" lon="1.38897">
        <ele>142</ele>
        <time>2023-04-04T16:41:21Z</time>
      </trkpt>
      <trkpt lat="43.65797" lon="1.38894">
        <ele>142</ele>
        <time>2023-04-04T16:41:22Z</time>
      </trkpt>
      <trkpt lat="43.65796" lon="1.3889">
        <ele>142</ele>
        <time>2023-04-04T16:41:23Z</time>
      </trkpt>
      <trkpt lat="43.65795" lon="1.38887">
        <ele>142</ele>
        <time>2023-04-04T16:41:24Z</time>
      </trkpt>
      <trkpt lat="43.65794" lon="1.38884">
        <ele>142</ele>
        <time>2023-04-04T16:41:25Z</time>
      </trkpt>
      <trkpt lat="43.65792" lon="1.38879">
        <ele>142</ele>
        <time>2023-04-04T16:41:26Z</time>
      </trkpt>
      <trkpt lat="43.65792" lon="1.38877">
        <ele>142</ele>
        <time>2023-04-04T16:41:27Z</time>
      </trkpt>
      <trkpt lat="43.6579" lon="1.38873">
        <ele>141</ele>
        <time>2023-04-04T16:41:28Z</time>
      </trkpt>
      <trkpt lat="43.65789" lon="1.3887">
        <ele>141</ele>
        <time>2023-04-04T16:41:29Z</time>
      </trkpt>
      <trkpt lat="43.65788" lon="1.38867">
        <ele>142</ele>
        <time>2023-04-04T16:41:30Z</time>
      </trkpt>
      <trkpt lat="43.65787" lon="1.38862">
        <ele>142</ele>
        <time>2023-04-04T16:41:31Z</time>
      </trkpt>
      <trkpt lat="43.65786" lon="1.3886">
        <ele>141</ele>
        <time>2023-04-04T16:41:32Z</time>
      </trkpt>
      <trkpt lat="43.65785" lon="1.38857">
        <ele>141</ele>
        <time>2023-04-04T16:41:33Z</time>
      </trkpt>
      <trkpt lat="43.65784" lon="1.38853">
        <ele>141</ele>
        <time>2023-04-04T16:41:34Z</time>
      </trkpt>
      <trkpt lat="43.65784" lon="1.3885">
        <ele>141</ele>
        <time>2023-04-04T16:41:35Z</time>
      </trkpt>
      <trkpt lat="43.65783" lon="1.38847">
        <ele>141</ele>
        <time>2023-04-04T16:41:36Z</time>
      </trkpt>
      <trkpt lat="43.65781" lon="1.38843">
        <ele>142</ele>
        <time>2023-04-04T16:41:37Z</time>
      </trkpt>
      <trkpt lat="43.6578" lon="1.3884">
        <ele>142</ele>
        <time>2023-04-04T16:41:38Z</time>
      </trkpt>
      <trkpt lat="43.65779" lon="1.38837">
        <ele>142</ele>
        <time>2023-04-04T16:41:39Z</time>
      </trkpt>
      <trkpt lat="43.65778" lon="1.38833">
        <ele>142</ele>
        <time>2023-04-04T16:41:40Z</time>
      </trkpt>
      <trkpt lat="43.65777" lon="1.3883">
        <ele>142</ele>
        <time>2023-04-04T16:41:41Z</time>
      </trkpt>
      <trkpt lat="43.65776" lon="1.38826">
        <ele>142</ele>
        <time>2023-04-04T16:41:42Z</time>
      </trkpt>
      <trkpt lat="43.65775" lon="1.38823">
        <ele>142</ele>
        <time>2023-04-04T16:41:43Z</time>
      </trkpt>
      <trkpt lat="43.65774" lon="1.3882">
        <ele>142</ele>
        <time>2023-04-04T16:41:44Z</time>
      </trkpt>
      <trkpt lat="43.65773" lon="1.38815">
        <ele>142</ele>
        <time>2023-04-04T16:41:45Z</time>
      </trkpt>
      <trkpt lat="43.65772" lon="1.38813">
        <ele>142</ele>
        <time>2023-04-04T16:41:46Z</time>
      </trkpt>
      <trkpt lat="43.65771" lon="1.3881">
        <ele>142</ele>
        <time>2023-04-04T16:41:47Z</time>
      </trkpt>
      <trkpt lat="43.6577" lon="1.38806">
        <ele>142</ele>
        <time>2023-04-04T16:41:48Z</time>
      </trkpt>
      <trkpt lat="43.65769" lon="1.38803">
        <ele>142</ele>
        <time>2023-04-04T16:41:49Z</time>
      </trkpt>
      <trkpt lat="43.65768" lon="1.38798">
        <ele>142</ele>
        <time>2023-04-04T16:41:50Z</time>
      </trkpt>
      <trkpt lat="43.65767" lon="1.38796">
        <ele>143</ele>
        <time>2023-04-04T16:41:51Z</time>
      </trkpt>
      <trkpt lat="43.65767" lon="1.38793">
        <ele>143</ele>
        <time>2023-04-04T16:41:52Z</time>
      </trkpt>
      <trkpt lat="43.65766" lon="1.3879">
        <ele>143</ele>
        <time>2023-04-04T16:41:53Z</time>
      </trkpt>
      <trkpt lat="43.65764" lon="1.38787">
        <ele>143</ele>
        <time>2023-04-04T16:41:54Z</time>
      </trkpt>
      <trkpt lat="43.65763" lon="1.38784">
        <ele>143</ele>
        <time>2023-04-04T16:41:55Z</time>
      </trkpt>
      <trkpt lat="43.65762" lon="1.3878">
        <ele>143</ele>
        <time>2023-04-04T16:41:56Z</time>
      </trkpt>
      <trkpt lat="43.65761" lon="1.38777">
        <ele>143</ele>
        <time>2023-04-04T16:41:57Z</time>
      </trkpt>
      <trkpt lat="43.6576" lon="1.38775">
        <ele>144</ele>
        <time>2023-04-04T16:41:58Z</time>
      </trkpt>
      <trkpt lat="43.65759" lon="1.38772">
        <ele>144</ele>
        <time>2023-04-04T16:41:59Z</time>
      </trkpt>
      <trkpt lat="43.65757" lon="1.38769">
        <ele>144</ele>
        <time>2023-04-04T16:42:00Z</time>
      </trkpt>
      <trkpt lat="43.65756" lon="1.38766">
        <ele>144</ele>
        <time>2023-04-04T16:42:01Z</time>
      </trkpt>
      <trkpt lat="43.65755" lon="1.38763">
        <ele>144</ele>
        <time>2023-04-04T16:42:02Z</time>
      </trkpt>
      <trkpt lat="43.65753" lon="1.3876">
        <ele>144</ele>
        <time>2023-04-04T16:42:03Z</time>
      </trkpt>
      <trkpt lat="43.65752" lon="1.38758">
        <ele>144</ele>
        <time>2023-04-04T16:42:04Z</time>
      </trkpt>
      <trkpt lat="43.6575" lon="1.38753">
        <ele>144</ele>
        <time>2023-04-04T16:42:05Z</time>
      </trkpt>
      <trkpt lat="43.6575" lon="1.38752">
        <ele>145</ele>
        <time>2023-04-04T16:42:06Z</time>
      </trkpt>
      <trkpt lat="43.65748" lon="1.3875">
        <ele>145</ele>
        <time>2023-04-04T16:42:07Z</time>
      </trkpt>
      <trkpt lat="43.65746" lon="1.38748">
        <ele>145</ele>
        <time>2023-04-04T16:42:08Z</time>
      </trkpt>
      <trkpt lat="43.65743" lon="1.38747">
        <ele>145</ele>
        <time>2023-04-04T16:42:09Z</time>
      </trkpt>
      <trkpt lat="43.65742" lon="1.38747">
        <ele>145</ele>
        <time>2023-04-04T16:42:10Z</time>
      </trkpt>
      <trkpt lat="43.65739" lon="1.38747">
        <ele>145</ele>
        <time>2023-04-04T16:42:11Z</time>
      </trkpt>
      <trkpt lat="43.65737" lon="1.38748">
        <ele>145</ele>
        <time>2023-04-04T16:42:12Z</time>
      </trkpt>
      <trkpt lat="43.65734" lon="1.38748">
        <ele>145</ele>
        <time>2023-04-04T16:42:13Z</time>
      </trkpt>
      <trkpt lat="43.65732" lon="1.38749">
        <ele>145</ele>
        <time>2023-04-04T16:42:14Z</time>
      </trkpt>
      <trkpt lat="43.65729" lon="1.38749">
        <ele>145</ele>
        <time>2023-04-04T16:42:15Z</time>
      </trkpt>
      <trkpt lat="43.65726" lon="1.3875">
        <ele>145</ele>
        <time>2023-04-04T16:42:16Z</time>
      </trkpt>
      <trkpt lat="43.65724" lon="1.3875">
        <ele>145</ele>
        <time>2023-04-04T16:42:17Z</time>
      </trkpt>
      <trkpt lat="43.65721" lon="1.38751">
        <ele>145</ele>
        <time>2023-04-04T16:42:18Z</time>
      </trkpt>
      <trkpt lat="43.65718" lon="1.38751">
        <ele>145</ele>
        <time>2023-04-04T16:42:19Z</time>
      </trkpt>
      <trkpt lat="43.65715" lon="1.38751">
        <ele>145</ele>
        <time>2023-04-04T16:42:20Z</time>
      </trkpt>
      <trkpt lat="43.65713" lon="1.3875">
        <ele>145</ele>
        <time>2023-04-04T16:42:21Z</time>
      </trkpt>
      <trkpt lat="43.6571" lon="1.38748">
        <ele>145</ele>
        <time>2023-04-04T16:42:22Z</time>
      </trkpt>
      <trkpt lat="43.65708" lon="1.38746">
        <ele>145</ele>
        <time>2023-04-04T16:42:23Z</time>
      </trkpt>
      <trkpt lat="43.65705" lon="1.38742">
        <ele>145</ele>
        <time>2023-04-04T16:42:24Z</time>
      </trkpt>
      <trkpt lat="43.65704" lon="1.3874">
        <ele>146</ele>
        <time>2023-04-04T16:42:25Z</time>
      </trkpt>
      <trkpt lat="43.65702" lon="1.38737">
        <ele>146</ele>
        <time>2023-04-04T16:42:26Z</time>
      </trkpt>
      <trkpt lat="43.65701" lon="1.38734">
        <ele>146</ele>
        <time>2023-04-04T16:42:27Z</time>
      </trkpt>
      <trkpt lat="43.657" lon="1.38728">
        <ele>146</ele>
        <time>2023-04-04T16:42:28Z</time>
      </trkpt>
      <trkpt lat="43.65699" lon="1.38726">
        <ele>146</ele>
        <time>2023-04-04T16:42:29Z</time>
      </trkpt>
      <trkpt lat="43.65698" lon="1.38723">
        <ele>146</ele>
        <time>2023-04-04T16:42:30Z</time>
      </trkpt>
      <trkpt lat="43.65697" lon="1.3872">
        <ele>145</ele>
        <time>2023-04-04T16:42:31Z</time>
      </trkpt>
      <trkpt lat="43.65696" lon="1.38716">
        <ele>145</ele>
        <time>2023-04-04T16:42:32Z</time>
      </trkpt>
      <trkpt lat="43.65695" lon="1.38713">
        <ele>145</ele>
        <time>2023-04-04T16:42:33Z</time>
      </trkpt>
      <trkpt lat="43.65694" lon="1.38709">
        <ele>145</ele>
        <time>2023-04-04T16:42:34Z</time>
      </trkpt>
      <trkpt lat="43.65693" lon="1.38706">
        <ele>145</ele>
        <time>2023-04-04T16:42:35Z</time>
      </trkpt>
      <trkpt lat="43.65692" lon="1.38702">
        <ele>145</ele>
        <time>2023-04-04T16:42:36Z</time>
      </trkpt>
      <trkpt lat="43.65691" lon="1.38699">
        <ele>146</ele>
        <time>2023-04-04T16:42:37Z</time>
      </trkpt>
      <trkpt lat="43.6569" lon="1.38695">
        <ele>146</ele>
        <time>2023-04-04T16:42:38Z</time>
      </trkpt>
      <trkpt lat="43.6569" lon="1.38691">
        <ele>146</ele>
        <time>2023-04-04T16:42:39Z</time>
      </trkpt>
      <trkpt lat="43.65689" lon="1.38688">
        <ele>146</ele>
        <time>2023-04-04T16:42:40Z</time>
      </trkpt>
      <trkpt lat="43.65688" lon="1.38684">
        <ele>146</ele>
        <time>2023-04-04T16:42:41Z</time>
      </trkpt>
      <trkpt lat="43.65686" lon="1.38677">
        <ele>146</ele>
        <time>2023-04-04T16:42:42Z</time>
      </trkpt>
      <trkpt lat="43.65685" lon="1.38674">
        <ele>146</ele>
        <time>2023-04-04T16:42:43Z</time>
      </trkpt>
      <trkpt lat="43.65685" lon="1.38674">
        <ele>146</ele>
        <time>2023-04-04T16:42:44Z</time>
      </trkpt>
      <trkpt lat="43.65684" lon="1.3867">
        <ele>147</ele>
        <time>2023-04-04T16:42:45Z</time>
      </trkpt>
      <trkpt lat="43.65683" lon="1.38667">
        <ele>147</ele>
        <time>2023-04-04T16:42:46Z</time>
      </trkpt>
      <trkpt lat="43.65681" lon="1.38662">
        <ele>147</ele>
        <time>2023-04-04T16:42:47Z</time>
      </trkpt>
      <trkpt lat="43.65681" lon="1.3866">
        <ele>147</ele>
        <time>2023-04-04T16:42:48Z</time>
      </trkpt>
      <trkpt lat="43.6568" lon="1.38656">
        <ele>147</ele>
        <time>2023-04-04T16:42:49Z</time>
      </trkpt>
      <trkpt lat="43.65679" lon="1.38653">
        <ele>147</ele>
        <time>2023-04-04T16:42:50Z</time>
      </trkpt>
      <trkpt lat="43.65678" lon="1.38649">
        <ele>147</ele>
        <time>2023-04-04T16:42:51Z</time>
      </trkpt>
      <trkpt lat="43.65677" lon="1.38646">
        <ele>147</ele>
        <time>2023-04-04T16:42:52Z</time>
      </trkpt>
      <trkpt lat="43.65676" lon="1.38642">
        <ele>147</ele>
        <time>2023-04-04T16:42:53Z</time>
      </trkpt>
      <trkpt lat="43.65675" lon="1.38639">
        <ele>147</ele>
        <time>2023-04-04T16:42:54Z</time>
      </trkpt>
      <trkpt lat="43.65674" lon="1.38635">
        <ele>147</ele>
        <time>2023-04-04T16:42:55Z</time>
      </trkpt>
      <trkpt lat="43.65673" lon="1.38632">
        <ele>147</ele>
        <time>2023-04-04T16:42:56Z</time>
      </trkpt>
      <trkpt lat="43.65672" lon="1.38628">
        <ele>146</ele>
        <time>2023-04-04T16:42:57Z</time>
      </trkpt>
      <trkpt lat="43.65671" lon="1.38625">
        <ele>146</ele>
        <time>2023-04-04T16:42:58Z</time>
      </trkpt>
      <trkpt lat="43.6567" lon="1.38621">
        <ele>146</ele>
        <time>2023-04-04T16:42:59Z</time>
      </trkpt>
      <trkpt lat="43.65668" lon="1.38616">
        <ele>146</ele>
        <time>2023-04-04T16:43:00Z</time>
      </trkpt>
      <trkpt lat="43.65668" lon="1.38614">
        <ele>146</ele>
        <time>2023-04-04T16:43:01Z</time>
      </trkpt>
      <trkpt lat="43.65667" lon="1.38611">
        <ele>146</ele>
        <time>2023-04-04T16:43:02Z</time>
      </trkpt>
      <trkpt lat="43.65665" lon="1.38607">
        <ele>146</ele>
        <time>2023-04-04T16:43:03Z</time>
      </trkpt>
      <trkpt lat="43.65664" lon="1.38604">
        <ele>146</ele>
        <time>2023-04-04T16:43:04Z</time>
      </trkpt>
      <trkpt lat="43.65663" lon="1.38601">
        <ele>146</ele>
        <time>2023-04-04T16:43:05Z</time>
      </trkpt>
      <trkpt lat="43.65662" lon="1.38595">
        <ele>146</ele>
        <time>2023-04-04T16:43:06Z</time>
      </trkpt>
      <trkpt lat="43.65661" lon="1.38593">
        <ele>146</ele>
        <time>2023-04-04T16:43:07Z</time>
      </trkpt>
      <trkpt lat="43.6566" lon="1.3859">
        <ele>146</ele>
        <time>2023-04-04T16:43:08Z</time>
      </trkpt>
      <trkpt lat="43.65659" lon="1.38587">
        <ele>146</ele>
        <time>2023-04-04T16:43:09Z</time>
      </trkpt>
      <trkpt lat="43.65658" lon="1.38583">
        <ele>146</ele>
        <time>2023-04-04T16:43:10Z</time>
      </trkpt>
      <trkpt lat="43.65657" lon="1.3858">
        <ele>146</ele>
        <time>2023-04-04T16:43:11Z</time>
      </trkpt>
      <trkpt lat="43.65656" lon="1.38576">
        <ele>146</ele>
        <time>2023-04-04T16:43:12Z</time>
      </trkpt>
      <trkpt lat="43.65655" lon="1.38573">
        <ele>146</ele>
        <time>2023-04-04T16:43:13Z</time>
      </trkpt>
      <trkpt lat="43.65654" lon="1.38569">
        <ele>146</ele>
        <time>2023-04-04T16:43:14Z</time>
      </trkpt>
      <trkpt lat="43.65653" lon="1.38566">
        <ele>146</ele>
        <time>2023-04-04T16:43:15Z</time>
      </trkpt>
      <trkpt lat="43.65652" lon="1.38563">
        <ele>146</ele>
        <time>2023-04-04T16:43:16Z</time>
      </trkpt>
      <trkpt lat="43.65651" lon="1.38559">
        <ele>146</ele>
        <time>2023-04-04T16:43:17Z</time>
      </trkpt>
      <trkpt lat="43.6565" lon="1.38556">
        <ele>146</ele>
        <time>2023-04-04T16:43:18Z</time>
      </trkpt>
      <trkpt lat="43.65648" lon="1.38551">
        <ele>146</ele>
        <time>2023-04-04T16:43:19Z</time>
      </trkpt>
      <trkpt lat="43.65648" lon="1.38549">
        <ele>146</ele>
        <time>2023-04-04T16:43:20Z</time>
      </trkpt>
      <trkpt lat="43.65647" lon="1.38545">
        <ele>146</ele>
        <time>2023-04-04T16:43:21Z</time>
      </trkpt>
      <trkpt lat="43.65646" lon="1.38542">
        <ele>146</ele>
        <time>2023-04-04T16:43:22Z</time>
      </trkpt>
      <trkpt lat="43.65646" lon="1.38539">
        <ele>146</ele>
        <time>2023-04-04T16:43:23Z</time>
      </trkpt>
      <trkpt lat="43.65645" lon="1.38535">
        <ele>146</ele>
        <time>2023-04-04T16:43:24Z</time>
      </trkpt>
      <trkpt lat="43.65644" lon="1.3853">
        <ele>146</ele>
        <time>2023-04-04T16:43:25Z</time>
      </trkpt>
      <trkpt lat="43.65643" lon="1.38528">
        <ele>146</ele>
        <time>2023-04-04T16:43:26Z</time>
      </trkpt>
      <trkpt lat="43.65643" lon="1.38524">
        <ele>146</ele>
        <time>2023-04-04T16:43:27Z</time>
      </trkpt>
      <trkpt lat="43.65642" lon="1.3852">
        <ele>146</ele>
        <time>2023-04-04T16:43:28Z</time>
      </trkpt>
      <trkpt lat="43.65641" lon="1.38516">
        <ele>146</ele>
        <time>2023-04-04T16:43:29Z</time>
      </trkpt>
      <trkpt lat="43.6564" lon="1.38513">
        <ele>146</ele>
        <time>2023-04-04T16:43:30Z</time>
      </trkpt>
      <trkpt lat="43.65639" lon="1.38509">
        <ele>146</ele>
        <time>2023-04-04T16:43:31Z</time>
      </trkpt>
      <trkpt lat="43.65638" lon="1.38506">
        <ele>146</ele>
        <time>2023-04-04T16:43:32Z</time>
      </trkpt>
      <trkpt lat="43.65637" lon="1.38503">
        <ele>146</ele>
        <time>2023-04-04T16:43:33Z</time>
      </trkpt>
      <trkpt lat="43.65635" lon="1.38499">
        <ele>146</ele>
        <time>2023-04-04T16:43:34Z</time>
      </trkpt>
      <trkpt lat="43.65635" lon="1.38496">
        <ele>145</ele>
        <time>2023-04-04T16:43:35Z</time>
      </trkpt>
      <trkpt lat="43.65633" lon="1.38492">
        <ele>145</ele>
        <time>2023-04-04T16:43:36Z</time>
      </trkpt>
      <trkpt lat="43.65632" lon="1.38487">
        <ele>145</ele>
        <time>2023-04-04T16:43:37Z</time>
      </trkpt>
      <trkpt lat="43.65631" lon="1.38486">
        <ele>145</ele>
        <time>2023-04-04T16:43:38Z</time>
      </trkpt>
      <trkpt lat="43.65631" lon="1.38482">
        <ele>145</ele>
        <time>2023-04-04T16:43:39Z</time>
      </trkpt>
      <trkpt lat="43.6563" lon="1.38479">
        <ele>145</ele>
        <time>2023-04-04T16:43:40Z</time>
      </trkpt>
      <trkpt lat="43.65629" lon="1.38475">
        <ele>145</ele>
        <time>2023-04-04T16:43:41Z</time>
      </trkpt>
      <trkpt lat="43.65628" lon="1.38472">
        <ele>145</ele>
        <time>2023-04-04T16:43:42Z</time>
      </trkpt>
      <trkpt lat="43.65627" lon="1.38468">
        <ele>145</ele>
        <time>2023-04-04T16:43:43Z</time>
      </trkpt>
      <trkpt lat="43.65625" lon="1.38463">
        <ele>145</ele>
        <time>2023-04-04T16:43:44Z</time>
      </trkpt>
      <trkpt lat="43.65625" lon="1.38461">
        <ele>145</ele>
        <time>2023-04-04T16:43:45Z</time>
      </trkpt>
      <trkpt lat="43.65623" lon="1.38457">
        <ele>145</ele>
        <time>2023-04-04T16:43:46Z</time>
      </trkpt>
      <trkpt lat="43.65622" lon="1.38453">
        <ele>145</ele>
        <time>2023-04-04T16:43:47Z</time>
      </trkpt>
      <trkpt lat="43.65621" lon="1.3845">
        <ele>145</ele>
        <time>2023-04-04T16:43:48Z</time>
      </trkpt>
      <trkpt lat="43.6562" lon="1.38446">
        <ele>145</ele>
        <time>2023-04-04T16:43:49Z</time>
      </trkpt>
      <trkpt lat="43.65619" lon="1.38443">
        <ele>145</ele>
        <time>2023-04-04T16:43:50Z</time>
      </trkpt>
      <trkpt lat="43.65618" lon="1.38439">
        <ele>145</ele>
        <time>2023-04-04T16:43:51Z</time>
      </trkpt>
      <trkpt lat="43.65617" lon="1.38435">
        <ele>145</ele>
        <time>2023-04-04T16:43:52Z</time>
      </trkpt>
      <trkpt lat="43.65616" lon="1.38432">
        <ele>145</ele>
        <time>2023-04-04T16:43:53Z</time>
      </trkpt>
      <trkpt lat="43.65615" lon="1.38429">
        <ele>145</ele>
        <time>2023-04-04T16:43:54Z</time>
      </trkpt>
      <trkpt lat="43.65614" lon="1.38426">
        <ele>145</ele>
        <time>2023-04-04T16:43:55Z</time>
      </trkpt>
      <trkpt lat="43.65612" lon="1.38421">
        <ele>145</ele>
        <time>2023-04-04T16:43:56Z</time>
      </trkpt>
      <trkpt lat="43.65612" lon="1.38419">
        <ele>145</ele>
        <time>2023-04-04T16:43:57Z</time>
      </trkpt>
      <trkpt lat="43.6561" lon="1.38415">
        <ele>145</ele>
        <time>2023-04-04T16:43:58Z</time>
      </trkpt>
      <trkpt lat="43.65609" lon="1.38412">
        <ele>145</ele>
        <time>2023-04-04T16:43:59Z</time>
      </trkpt>
      <trkpt lat="43.65608" lon="1.38408">
        <ele>145</ele>
        <time>2023-04-04T16:44:00Z</time>
      </trkpt>
      <trkpt lat="43.65607" lon="1.38405">
        <ele>145</ele>
        <time>2023-04-04T16:44:01Z</time>
      </trkpt>
      <trkpt lat="43.65606" lon="1.38401">
        <ele>145</ele>
        <time>2023-04-04T16:44:02Z</time>
      </trkpt>
      <trkpt lat="43.65605" lon="1.38396">
        <ele>145</ele>
        <time>2023-04-04T16:44:03Z</time>
      </trkpt>
      <trkpt lat="43.65604" lon="1.38394">
        <ele>145</ele>
        <time>2023-04-04T16:44:04Z</time>
      </trkpt>
      <trkpt lat="43.65603" lon="1.38391">
        <ele>145</ele>
        <time>2023-04-04T16:44:05Z</time>
      </trkpt>
      <trkpt lat="43.65602" lon="1.38387">
        <ele>145</ele>
        <time>2023-04-04T16:44:06Z</time>
      </trkpt>
      <trkpt lat="43.65601" lon="1.38384">
        <ele>145</ele>
        <time>2023-04-04T16:44:07Z</time>
      </trkpt>
      <trkpt lat="43.656" lon="1.38381">
        <ele>145</ele>
        <time>2023-04-04T16:44:08Z</time>
      </trkpt>
      <trkpt lat="43.65599" lon="1.38377">
        <ele>145</ele>
        <time>2023-04-04T16:44:09Z</time>
      </trkpt>
      <trkpt lat="43.65598" lon="1.38373">
        <ele>146</ele>
        <time>2023-04-04T16:44:10Z</time>
      </trkpt>
      <trkpt lat="43.65597" lon="1.3837">
        <ele>146</ele>
        <time>2023-04-04T16:44:11Z</time>
      </trkpt>
      <trkpt lat="43.65596" lon="1.38366">
        <ele>146</ele>
        <time>2023-04-04T16:44:12Z</time>
      </trkpt>
      <trkpt lat="43.65595" lon="1.38363">
        <ele>146</ele>
        <time>2023-04-04T16:44:13Z</time>
      </trkpt>
      <trkpt lat="43.65594" lon="1.38357">
        <ele>146</ele>
        <time>2023-04-04T16:44:14Z</time>
      </trkpt>
      <trkpt lat="43.65594" lon="1.38356">
        <ele>145</ele>
        <time>2023-04-04T16:44:15Z</time>
      </trkpt>
      <trkpt lat="43.65593" lon="1.38352">
        <ele>145</ele>
        <time>2023-04-04T16:44:16Z</time>
      </trkpt>
      <trkpt lat="43.65592" lon="1.38349">
        <ele>145</ele>
        <time>2023-04-04T16:44:17Z</time>
      </trkpt>
      <trkpt lat="43.65591" lon="1.38345">
        <ele>145</ele>
        <time>2023-04-04T16:44:18Z</time>
      </trkpt>
      <trkpt lat="43.65589" lon="1.38338">
        <ele>145</ele>
        <time>2023-04-04T16:44:19Z</time>
      </trkpt>
      <trkpt lat="43.65589" lon="1.38338">
        <ele>145</ele>
        <time>2023-04-04T16:44:20Z</time>
      </trkpt>
      <trkpt lat="43.65587" lon="1.38336">
        <ele>145</ele>
        <time>2023-04-04T16:44:21Z</time>
      </trkpt>
      <trkpt lat="43.65585" lon="1.38332">
        <ele>145</ele>
        <time>2023-04-04T16:44:22Z</time>
      </trkpt>
      <trkpt lat="43.65584" lon="1.3833">
        <ele>145</ele>
        <time>2023-04-04T16:44:23Z</time>
      </trkpt>
      <trkpt lat="43.65582" lon="1.38327">
        <ele>145</ele>
        <time>2023-04-04T16:44:24Z</time>
      </trkpt>
      <trkpt lat="43.65581" lon="1.38323">
        <ele>145</ele>
        <time>2023-04-04T16:44:25Z</time>
      </trkpt>
      <trkpt lat="43.6558" lon="1.3832">
        <ele>145</ele>
        <time>2023-04-04T16:44:26Z</time>
      </trkpt>
      <trkpt lat="43.65578" lon="1.38317">
        <ele>146</ele>
        <time>2023-04-04T16:44:27Z</time>
      </trkpt>
      <trkpt lat="43.65576" lon="1.38314">
        <ele>146</ele>
        <time>2023-04-04T16:44:28Z</time>
      </trkpt>
      <trkpt lat="43.65574" lon="1.38312">
        <ele>145</ele>
        <time>2023-04-04T16:44:29Z</time>
      </trkpt>
      <trkpt lat="43.65572" lon="1.38311">
        <ele>145</ele>
        <time>2023-04-04T16:44:30Z</time>
      </trkpt>
      <trkpt lat="43.65569" lon="1.38311">
        <ele>145</ele>
        <time>2023-04-04T16:44:31Z</time>
      </trkpt>
      <trkpt lat="43.65565" lon="1.38312">
        <ele>145</ele>
        <time>2023-04-04T16:44:32Z</time>
      </trkpt>
      <trkpt lat="43.65564" lon="1.38312">
        <ele>145</ele>
        <time>2023-04-04T16:44:33Z</time>
      </trkpt>
      <trkpt lat="43.65561" lon="1.38312">
        <ele>145</ele>
        <time>2023-04-04T16:44:34Z</time>
      </trkpt>
      <trkpt lat="43.65559" lon="1.38313">
        <ele>145</ele>
        <time>2023-04-04T16:44:35Z</time>
      </trkpt>
      <trkpt lat="43.65556" lon="1.38314">
        <ele>145</ele>
        <time>2023-04-04T16:44:36Z</time>
      </trkpt>
      <trkpt lat="43.65553" lon="1.38314">
        <ele>145</ele>
        <time>2023-04-04T16:44:37Z</time>
      </trkpt>
      <trkpt lat="43.65551" lon="1.38315">
        <ele>145</ele>
        <time>2023-04-04T16:44:38Z</time>
      </trkpt>
      <trkpt lat="43.65548" lon="1.38316">
        <ele>145</ele>
        <time>2023-04-04T16:44:39Z</time>
      </trkpt>
      <trkpt lat="43.65546" lon="1.38316">
        <ele>144</ele>
        <time>2023-04-04T16:44:40Z</time>
      </trkpt>
      <trkpt lat="43.65542" lon="1.38318">
        <ele>144</ele>
        <time>2023-04-04T16:44:41Z</time>
      </trkpt>
      <trkpt lat="43.65541" lon="1.38319">
        <ele>144</ele>
        <time>2023-04-04T16:44:42Z</time>
      </trkpt>
      <trkpt lat="43.65538" lon="1.3832">
        <ele>144</ele>
        <time>2023-04-04T16:44:43Z</time>
      </trkpt>
      <trkpt lat="43.65536" lon="1.38321">
        <ele>144</ele>
        <time>2023-04-04T16:44:44Z</time>
      </trkpt>
      <trkpt lat="43.65533" lon="1.38323">
        <ele>144</ele>
        <time>2023-04-04T16:44:45Z</time>
      </trkpt>
      <trkpt lat="43.65531" lon="1.38324">
        <ele>144</ele>
        <time>2023-04-04T16:44:46Z</time>
      </trkpt>
      <trkpt lat="43.65528" lon="1.38325">
        <ele>144</ele>
        <time>2023-04-04T16:44:47Z</time>
      </trkpt>
      <trkpt lat="43.65526" lon="1.38326">
        <ele>144</ele>
        <time>2023-04-04T16:44:48Z</time>
      </trkpt>
      <trkpt lat="43.65524" lon="1.38327">
        <ele>144</ele>
        <time>2023-04-04T16:44:49Z</time>
      </trkpt>
      <trkpt lat="43.65521" lon="1.38328">
        <ele>144</ele>
        <time>2023-04-04T16:44:50Z</time>
      </trkpt>
      <trkpt lat="43.65519" lon="1.38329">
        <ele>144</ele>
        <time>2023-04-04T16:44:51Z</time>
      </trkpt>
      <trkpt lat="43.65515" lon="1.38331">
        <ele>144</ele>
        <time>2023-04-04T16:44:52Z</time>
      </trkpt>
      <trkpt lat="43.65514" lon="1.38332">
        <ele>144</ele>
        <time>2023-04-04T16:44:53Z</time>
      </trkpt>
      <trkpt lat="43.65512" lon="1.38333">
        <ele>144</ele>
        <time>2023-04-04T16:44:54Z</time>
      </trkpt>
      <trkpt lat="43.65509" lon="1.38334">
        <ele>144</ele>
        <time>2023-04-04T16:44:55Z</time>
      </trkpt>
      <trkpt lat="43.65507" lon="1.38335">
        <ele>144</ele>
        <time>2023-04-04T16:44:56Z</time>
      </trkpt>
      <trkpt lat="43.65504" lon="1.38336">
        <ele>144</ele>
        <time>2023-04-04T16:44:57Z</time>
      </trkpt>
      <trkpt lat="43.65502" lon="1.38337">
        <ele>144</ele>
        <time>2023-04-04T16:44:58Z</time>
      </trkpt>
      <trkpt lat="43.65499" lon="1.38338">
        <ele>144</ele>
        <time>2023-04-04T16:44:59Z</time>
      </trkpt>
      <trkpt lat="43.65495" lon="1.3834">
        <ele>144</ele>
        <time>2023-04-04T16:45:00Z</time>
      </trkpt>
      <trkpt lat="43.65494" lon="1.3834">
        <ele>144</ele>
        <time>2023-04-04T16:45:01Z</time>
      </trkpt>
      <trkpt lat="43.65492" lon="1.38341">
        <ele>144</ele>
        <time>2023-04-04T16:45:02Z</time>
      </trkpt>
      <trkpt lat="43.65489" lon="1.38342">
        <ele>144</ele>
        <time>2023-04-04T16:45:03Z</time>
      </trkpt>
      <trkpt lat="43.65487" lon="1.38344">
        <ele>144</ele>
        <time>2023-04-04T16:45:04Z</time>
      </trkpt>
      <trkpt lat="43.65484" lon="1.38345">
        <ele>144</ele>
        <time>2023-04-04T16:45:05Z</time>
      </trkpt>
      <trkpt lat="43.65482" lon="1.38346">
        <ele>144</ele>
        <time>2023-04-04T16:45:06Z</time>
      </trkpt>
      <trkpt lat="43.65479" lon="1.38348">
        <ele>144</ele>
        <time>2023-04-04T16:45:07Z</time>
      </trkpt>
      <trkpt lat="43.65477" lon="1.38348">
        <ele>144</ele>
        <time>2023-04-04T16:45:08Z</time>
      </trkpt>
      <trkpt lat="43.65475" lon="1.38349">
        <ele>144</ele>
        <time>2023-04-04T16:45:09Z</time>
      </trkpt>
      <trkpt lat="43.65472" lon="1.3835">
        <ele>144</ele>
        <time>2023-04-04T16:45:10Z</time>
      </trkpt>
      <trkpt lat="43.65469" lon="1.38352">
        <ele>144</ele>
        <time>2023-04-04T16:45:11Z</time>
      </trkpt>
      <trkpt lat="43.65467" lon="1.38353">
        <ele>144</ele>
        <time>2023-04-04T16:45:12Z</time>
      </trkpt>
      <trkpt lat="43.65465" lon="1.38354">
        <ele>144</ele>
        <time>2023-04-04T16:45:13Z</time>
      </trkpt>
      <trkpt lat="43.65463" lon="1.38355">
        <ele>145</ele>
        <time>2023-04-04T16:45:14Z</time>
      </trkpt>
      <trkpt lat="43.6546" lon="1.38356">
        <ele>145</ele>
        <time>2023-04-04T16:45:15Z</time>
      </trkpt>
      <trkpt lat="43.65457" lon="1.38357">
        <ele>145</ele>
        <time>2023-04-04T16:45:16Z</time>
      </trkpt>
      <trkpt lat="43.65454" lon="1.38358">
        <ele>145</ele>
        <time>2023-04-04T16:45:17Z</time>
      </trkpt>
      <trkpt lat="43.65452" lon="1.38359">
        <ele>145</ele>
        <time>2023-04-04T16:45:18Z</time>
      </trkpt>
      <trkpt lat="43.65448" lon="1.3836">
        <ele>145</ele>
        <time>2023-04-04T16:45:19Z</time>
      </trkpt>
      <trkpt lat="43.65447" lon="1.3836">
        <ele>145</ele>
        <time>2023-04-04T16:45:20Z</time>
      </trkpt>
      <trkpt lat="43.65444" lon="1.3836">
        <ele>145</ele>
        <time>2023-04-04T16:45:21Z</time>
      </trkpt>
      <trkpt lat="43.65441" lon="1.38361">
        <ele>145</ele>
        <time>2023-04-04T16:45:22Z</time>
      </trkpt>
      <trkpt lat="43.65438" lon="1.38361">
        <ele>145</ele>
        <time>2023-04-04T16:45:23Z</time>
      </trkpt>
      <trkpt lat="43.65435" lon="1.38362">
        <ele>145</ele>
        <time>2023-04-04T16:45:24Z</time>
      </trkpt>
      <trkpt lat="43.65433" lon="1.38362">
        <ele>145</ele>
        <time>2023-04-04T16:45:25Z</time>
      </trkpt>
      <trkpt lat="43.6543" lon="1.38362">
        <ele>145</ele>
        <time>2023-04-04T16:45:26Z</time>
      </trkpt>
      <trkpt lat="43.65427" lon="1.38363">
        <ele>144</ele>
        <time>2023-04-04T16:45:27Z</time>
      </trkpt>
      <trkpt lat="43.65424" lon="1.38363">
        <ele>144</ele>
        <time>2023-04-04T16:45:28Z</time>
      </trkpt>
      <trkpt lat="43.6542" lon="1.38363">
        <ele>144</ele>
        <time>2023-04-04T16:45:29Z</time>
      </trkpt>
      <trkpt lat="43.65418" lon="1.38363">
        <ele>145</ele>
        <time>2023-04-04T16:45:30Z</time>
      </trkpt>
      <trkpt lat="43.65415" lon="1.38363">
        <ele>145</ele>
        <time>2023-04-04T16:45:31Z</time>
      </trkpt>
      <trkpt lat="43.65413" lon="1.38364">
        <ele>145</ele>
        <time>2023-04-04T16:45:32Z</time>
      </trkpt>
      <trkpt lat="43.6541" lon="1.38364">
        <ele>145</ele>
        <time>2023-04-04T16:45:33Z</time>
      </trkpt>
      <trkpt lat="43.65407" lon="1.38365">
        <ele>145</ele>
        <time>2023-04-04T16:45:34Z</time>
      </trkpt>
      <trkpt lat="43.65404" lon="1.38366">
        <ele>145</ele>
        <time>2023-04-04T16:45:35Z</time>
      </trkpt>
      <trkpt lat="43.65402" lon="1.38366">
        <ele>144</ele>
        <time>2023-04-04T16:45:36Z</time>
      </trkpt>
      <trkpt lat="43.65399" lon="1.38366">
        <ele>144</ele>
        <time>2023-04-04T16:45:37Z</time>
      </trkpt>
      <trkpt lat="43.65395" lon="1.38367">
        <ele>144</ele>
        <time>2023-04-04T16:45:38Z</time>
      </trkpt>
      <trkpt lat="43.65393" lon="1.38367">
        <ele>144</ele>
        <time>2023-04-04T16:45:39Z</time>
      </trkpt>
      <trkpt lat="43.6539" lon="1.38368">
        <ele>144</ele>
        <time>2023-04-04T16:45:40Z</time>
      </trkpt>
      <trkpt lat="43.65388" lon="1.38368">
        <ele>143</ele>
        <time>2023-04-04T16:45:41Z</time>
      </trkpt>
      <trkpt lat="43.65385" lon="1.38368">
        <ele>144</ele>
        <time>2023-04-04T16:45:42Z</time>
      </trkpt>
      <trkpt lat="43.65382" lon="1.38369">
        <ele>144</ele>
        <time>2023-04-04T16:45:43Z</time>
      </trkpt>
      <trkpt lat="43.6538" lon="1.38369">
        <ele>144</ele>
        <time>2023-04-04T16:45:44Z</time>
      </trkpt>
      <trkpt lat="43.65377" lon="1.3837">
        <ele>144</ele>
        <time>2023-04-04T16:45:45Z</time>
      </trkpt>
      <trkpt lat="43.65374" lon="1.3837">
        <ele>144</ele>
        <time>2023-04-04T16:45:46Z</time>
      </trkpt>
      <trkpt lat="43.6537" lon="1.38371">
        <ele>144</ele>
        <time>2023-04-04T16:45:47Z</time>
      </trkpt>
      <trkpt lat="43.65369" lon="1.38371">
        <ele>145</ele>
        <time>2023-04-04T16:45:48Z</time>
      </trkpt>
      <trkpt lat="43.65366" lon="1.38371">
        <ele>145</ele>
        <time>2023-04-04T16:45:49Z</time>
      </trkpt>
      <trkpt lat="43.65363" lon="1.38372">
        <ele>145</ele>
        <time>2023-04-04T16:45:50Z</time>
      </trkpt>
      <trkpt lat="43.6536" lon="1.38373">
        <ele>145</ele>
        <time>2023-04-04T16:45:51Z</time>
      </trkpt>
      <trkpt lat="43.65358" lon="1.38374">
        <ele>145</ele>
        <time>2023-04-04T16:45:52Z</time>
      </trkpt>
      <trkpt lat="43.65355" lon="1.38375">
        <ele>145</ele>
        <time>2023-04-04T16:45:53Z</time>
      </trkpt>
      <trkpt lat="43.65352" lon="1.38375">
        <ele>145</ele>
        <time>2023-04-04T16:45:54Z</time>
      </trkpt>
      <trkpt lat="43.65349" lon="1.38376">
        <ele>145</ele>
        <time>2023-04-04T16:45:55Z</time>
      </trkpt>
      <trkpt lat="43.65346" lon="1.38376">
        <ele>145</ele>
        <time>2023-04-04T16:45:56Z</time>
      </trkpt>
      <trkpt lat="43.65342" lon="1.38378">
        <ele>145</ele>
        <time>2023-04-04T16:45:57Z</time>
      </trkpt>
      <trkpt lat="43.6534" lon="1.38378">
        <ele>144</ele>
        <time>2023-04-04T16:45:58Z</time>
      </trkpt>
      <trkpt lat="43.65338" lon="1.38379">
        <ele>144</ele>
        <time>2023-04-04T16:45:59Z</time>
      </trkpt>
      <trkpt lat="43.65335" lon="1.3838">
        <ele>144</ele>
        <time>2023-04-04T16:46:00Z</time>
      </trkpt>
      <trkpt lat="43.65332" lon="1.38381">
        <ele>144</ele>
        <time>2023-04-04T16:46:01Z</time>
      </trkpt>
      <trkpt lat="43.65329" lon="1.38381">
        <ele>144</ele>
        <time>2023-04-04T16:46:02Z</time>
      </trkpt>
      <trkpt lat="43.65326" lon="1.38382">
        <ele>144</ele>
        <time>2023-04-04T16:46:03Z</time>
      </trkpt>
      <trkpt lat="43.65324" lon="1.38383">
        <ele>144</ele>
        <time>2023-04-04T16:46:04Z</time>
      </trkpt>
      <trkpt lat="43.6532" lon="1.38384">
        <ele>144</ele>
        <time>2023-04-04T16:46:05Z</time>
      </trkpt>
      <trkpt lat="43.65318" lon="1.38384">
        <ele>144</ele>
        <time>2023-04-04T16:46:06Z</time>
      </trkpt>
      <trkpt lat="43.65316" lon="1.38385">
        <ele>144</ele>
        <time>2023-04-04T16:46:07Z</time>
      </trkpt>
      <trkpt lat="43.65313" lon="1.38386">
        <ele>144</ele>
        <time>2023-04-04T16:46:08Z</time>
      </trkpt>
      <trkpt lat="43.6531" lon="1.38387">
        <ele>144</ele>
        <time>2023-04-04T16:46:09Z</time>
      </trkpt>
      <trkpt lat="43.65308" lon="1.38387">
        <ele>144</ele>
        <time>2023-04-04T16:46:10Z</time>
      </trkpt>
      <trkpt lat="43.65305" lon="1.38388">
        <ele>144</ele>
        <time>2023-04-04T16:46:11Z</time>
      </trkpt>
      <trkpt lat="43.65303" lon="1.38389">
        <ele>144</ele>
        <time>2023-04-04T16:46:12Z</time>
      </trkpt>
      <trkpt lat="43.653" lon="1.3839">
        <ele>144</ele>
        <time>2023-04-04T16:46:13Z</time>
      </trkpt>
      <trkpt lat="43.65297" lon="1.38391">
        <ele>144</ele>
        <time>2023-04-04T16:46:14Z</time>
      </trkpt>
      <trkpt lat="43.65295" lon="1.38393">
        <ele>144</ele>
        <time>2023-04-04T16:46:15Z</time>
      </trkpt>
      <trkpt lat="43.65291" lon="1.38395">
        <ele>144</ele>
        <time>2023-04-04T16:46:16Z</time>
      </trkpt>
      <trkpt lat="43.6529" lon="1.38396">
        <ele>144</ele>
        <time>2023-04-04T16:46:17Z</time>
      </trkpt>
      <trkpt lat="43.65287" lon="1.38397">
        <ele>144</ele>
        <time>2023-04-04T16:46:18Z</time>
      </trkpt>
      <trkpt lat="43.65283" lon="1.38399">
        <ele>144</ele>
        <time>2023-04-04T16:46:19Z</time>
      </trkpt>
      <trkpt lat="43.65282" lon="1.384">
        <ele>144</ele>
        <time>2023-04-04T16:46:20Z</time>
      </trkpt>
      <trkpt lat="43.65279" lon="1.38401">
        <ele>144</ele>
        <time>2023-04-04T16:46:21Z</time>
      </trkpt>
      <trkpt lat="43.65277" lon="1.38403">
        <ele>144</ele>
        <time>2023-04-04T16:46:22Z</time>
      </trkpt>
      <trkpt lat="43.65273" lon="1.38405">
        <ele>144</ele>
        <time>2023-04-04T16:46:23Z</time>
      </trkpt>
      <trkpt lat="43.65271" lon="1.38406">
        <ele>144</ele>
        <time>2023-04-04T16:46:24Z</time>
      </trkpt>
      <trkpt lat="43.65268" lon="1.38408">
        <ele>143</ele>
        <time>2023-04-04T16:46:25Z</time>
      </trkpt>
      <trkpt lat="43.65265" lon="1.38409">
        <ele>143</ele>
        <time>2023-04-04T16:46:26Z</time>
      </trkpt>
      <trkpt lat="43.65263" lon="1.38411">
        <ele>143</ele>
        <time>2023-04-04T16:46:27Z</time>
      </trkpt>
      <trkpt lat="43.6526" lon="1.38412">
        <ele>143</ele>
        <time>2023-04-04T16:46:28Z</time>
      </trkpt>
      <trkpt lat="43.65257" lon="1.38413">
        <ele>143</ele>
        <time>2023-04-04T16:46:29Z</time>
      </trkpt>
      <trkpt lat="43.65254" lon="1.38414">
        <ele>143</ele>
        <time>2023-04-04T16:46:30Z</time>
      </trkpt>
      <trkpt lat="43.65252" lon="1.38414">
        <ele>143</ele>
        <time>2023-04-04T16:46:31Z</time>
      </trkpt>
      <trkpt lat="43.65249" lon="1.38415">
        <ele>142</ele>
        <time>2023-04-04T16:46:32Z</time>
      </trkpt>
      <trkpt lat="43.65246" lon="1.38416">
        <ele>142</ele>
        <time>2023-04-04T16:46:33Z</time>
      </trkpt>
      <trkpt lat="43.65244" lon="1.38417">
        <ele>141</ele>
        <time>2023-04-04T16:46:34Z</time>
      </trkpt>
      <trkpt lat="43.65241" lon="1.38419">
        <ele>141</ele>
        <time>2023-04-04T16:46:35Z</time>
      </trkpt>
      <trkpt lat="43.65239" lon="1.3842">
        <ele>141</ele>
        <time>2023-04-04T16:46:36Z</time>
      </trkpt>
      <trkpt lat="43.65237" lon="1.38421">
        <ele>141</ele>
        <time>2023-04-04T16:46:37Z</time>
      </trkpt>
      <trkpt lat="43.65235" lon="1.38422">
        <ele>141</ele>
        <time>2023-04-04T16:46:38Z</time>
      </trkpt>
      <trkpt lat="43.65232" lon="1.38422">
        <ele>141</ele>
        <time>2023-04-04T16:46:39Z</time>
      </trkpt>
      <trkpt lat="43.6523" lon="1.38424">
        <ele>141</ele>
        <time>2023-04-04T16:46:40Z</time>
      </trkpt>
      <trkpt lat="43.65226" lon="1.38427">
        <ele>141</ele>
        <time>2023-04-04T16:46:41Z</time>
      </trkpt>
      <trkpt lat="43.65225" lon="1.38428">
        <ele>141</ele>
        <time>2023-04-04T16:46:42Z</time>
      </trkpt>
      <trkpt lat="43.65223" lon="1.3843">
        <ele>141</ele>
        <time>2023-04-04T16:46:43Z</time>
      </trkpt>
      <trkpt lat="43.6522" lon="1.38432">
        <ele>141</ele>
        <time>2023-04-04T16:46:44Z</time>
      </trkpt>
      <trkpt lat="43.65218" lon="1.38434">
        <ele>141</ele>
        <time>2023-04-04T16:46:45Z</time>
      </trkpt>
      <trkpt lat="43.65215" lon="1.38436">
        <ele>141</ele>
        <time>2023-04-04T16:46:46Z</time>
      </trkpt>
      <trkpt lat="43.65212" lon="1.38438">
        <ele>141</ele>
        <time>2023-04-04T16:46:47Z</time>
      </trkpt>
      <trkpt lat="43.6521" lon="1.3844">
        <ele>141</ele>
        <time>2023-04-04T16:46:48Z</time>
      </trkpt>
      <trkpt lat="43.65207" lon="1.38442">
        <ele>141</ele>
        <time>2023-04-04T16:46:49Z</time>
      </trkpt>
      <trkpt lat="43.65205" lon="1.38445">
        <ele>141</ele>
        <time>2023-04-04T16:46:50Z</time>
      </trkpt>
      <trkpt lat="43.65203" lon="1.38447">
        <ele>141</ele>
        <time>2023-04-04T16:46:51Z</time>
      </trkpt>
      <trkpt lat="43.652" lon="1.3845">
        <ele>141</ele>
        <time>2023-04-04T16:46:52Z</time>
      </trkpt>
      <trkpt lat="43.65198" lon="1.38453">
        <ele>141</ele>
        <time>2023-04-04T16:46:53Z</time>
      </trkpt>
      <trkpt lat="43.65194" lon="1.38456">
        <ele>141</ele>
        <time>2023-04-04T16:46:54Z</time>
      </trkpt>
      <trkpt lat="43.65193" lon="1.38457">
        <ele>141</ele>
        <time>2023-04-04T16:46:55Z</time>
      </trkpt>
      <trkpt lat="43.6519" lon="1.38459">
        <ele>141</ele>
        <time>2023-04-04T16:46:56Z</time>
      </trkpt>
      <trkpt lat="43.65187" lon="1.3846">
        <ele>141</ele>
        <time>2023-04-04T16:46:57Z</time>
      </trkpt>
      <trkpt lat="43.65184" lon="1.38463">
        <ele>141</ele>
        <time>2023-04-04T16:46:58Z</time>
      </trkpt>
      <trkpt lat="43.65183" lon="1.38464">
        <ele>141</ele>
        <time>2023-04-04T16:46:59Z</time>
      </trkpt>
      <trkpt lat="43.6518" lon="1.38466">
        <ele>141</ele>
        <time>2023-04-04T16:47:00Z</time>
      </trkpt>
      <trkpt lat="43.65178" lon="1.38468">
        <ele>141</ele>
        <time>2023-04-04T16:47:01Z</time>
      </trkpt>
      <trkpt lat="43.65175" lon="1.3847">
        <ele>142</ele>
        <time>2023-04-04T16:47:02Z</time>
      </trkpt>
      <trkpt lat="43.65173" lon="1.38472">
        <ele>142</ele>
        <time>2023-04-04T16:47:03Z</time>
      </trkpt>
      <trkpt lat="43.65171" lon="1.38474">
        <ele>141</ele>
        <time>2023-04-04T16:47:04Z</time>
      </trkpt>
      <trkpt lat="43.65169" lon="1.38476">
        <ele>141</ele>
        <time>2023-04-04T16:47:05Z</time>
      </trkpt>
      <trkpt lat="43.65167" lon="1.38478">
        <ele>141</ele>
        <time>2023-04-04T16:47:06Z</time>
      </trkpt>
      <trkpt lat="43.65165" lon="1.3848">
        <ele>142</ele>
        <time>2023-04-04T16:47:07Z</time>
      </trkpt>
      <trkpt lat="43.65162" lon="1.38483">
        <ele>142</ele>
        <time>2023-04-04T16:47:08Z</time>
      </trkpt>
      <trkpt lat="43.6516" lon="1.38485">
        <ele>142</ele>
        <time>2023-04-04T16:47:09Z</time>
      </trkpt>
      <trkpt lat="43.65158" lon="1.38487">
        <ele>142</ele>
        <time>2023-04-04T16:47:10Z</time>
      </trkpt>
      <trkpt lat="43.65157" lon="1.38489">
        <ele>142</ele>
        <time>2023-04-04T16:47:11Z</time>
      </trkpt>
      <trkpt lat="43.65154" lon="1.38491">
        <ele>142</ele>
        <time>2023-04-04T16:47:12Z</time>
      </trkpt>
      <trkpt lat="43.65151" lon="1.38493">
        <ele>142</ele>
        <time>2023-04-04T16:47:13Z</time>
      </trkpt>
      <trkpt lat="43.65149" lon="1.38494">
        <ele>142</ele>
        <time>2023-04-04T16:47:14Z</time>
      </trkpt>
      <trkpt lat="43.65147" lon="1.38495">
        <ele>142</ele>
        <time>2023-04-04T16:47:15Z</time>
      </trkpt>
      <trkpt lat="43.65145" lon="1.38497">
        <ele>143</ele>
        <time>2023-04-04T16:47:16Z</time>
      </trkpt>
      <trkpt lat="43.65141" lon="1.385">
        <ele>143</ele>
        <time>2023-04-04T16:47:17Z</time>
      </trkpt>
      <trkpt lat="43.6514" lon="1.38501">
        <ele>144</ele>
        <time>2023-04-04T16:47:18Z</time>
      </trkpt>
      <trkpt lat="43.65138" lon="1.38503">
        <ele>144</ele>
        <time>2023-04-04T16:47:19Z</time>
      </trkpt>
      <trkpt lat="43.65136" lon="1.38505">
        <ele>144</ele>
        <time>2023-04-04T16:47:20Z</time>
      </trkpt>
      <trkpt lat="43.65133" lon="1.38508">
        <ele>144</ele>
        <time>2023-04-04T16:47:21Z</time>
      </trkpt>
      <trkpt lat="43.65131" lon="1.3851">
        <ele>144</ele>
        <time>2023-04-04T16:47:22Z</time>
      </trkpt>
      <trkpt lat="43.65129" lon="1.38511">
        <ele>144</ele>
        <time>2023-04-04T16:47:23Z</time>
      </trkpt>
      <trkpt lat="43.65126" lon="1.38513">
        <ele>144</ele>
        <time>2023-04-04T16:47:24Z</time>
      </trkpt>
      <trkpt lat="43.65123" lon="1.38513">
        <ele>145</ele>
        <time>2023-04-04T16:47:25Z</time>
      </trkpt>
      <trkpt lat="43.6512" lon="1.38511">
        <ele>145</ele>
        <time>2023-04-04T16:47:26Z</time>
      </trkpt>
      <trkpt lat="43.65117" lon="1.3851">
        <ele>145</ele>
        <time>2023-04-04T16:47:27Z</time>
      </trkpt>
      <trkpt lat="43.65113" lon="1.38508">
        <ele>145</ele>
        <time>2023-04-04T16:47:28Z</time>
      </trkpt>
      <trkpt lat="43.6511" lon="1.38507">
        <ele>145</ele>
        <time>2023-04-04T16:47:29Z</time>
      </trkpt>
      <trkpt lat="43.65107" lon="1.38507">
        <ele>146</ele>
        <time>2023-04-04T16:47:30Z</time>
      </trkpt>
      <trkpt lat="43.65104" lon="1.38506">
        <ele>146</ele>
        <time>2023-04-04T16:47:31Z</time>
      </trkpt>
      <trkpt lat="43.651" lon="1.38502">
        <ele>146</ele>
        <time>2023-04-04T16:47:32Z</time>
      </trkpt>
      <trkpt lat="43.65099" lon="1.385">
        <ele>147</ele>
        <time>2023-04-04T16:47:33Z</time>
      </trkpt>
      <trkpt lat="43.65097" lon="1.38495">
        <ele>147</ele>
        <time>2023-04-04T16:47:34Z</time>
      </trkpt>
      <trkpt lat="43.65096" lon="1.38494">
        <ele>146</ele>
        <time>2023-04-04T16:47:35Z</time>
      </trkpt>
      <trkpt lat="43.65095" lon="1.38491">
        <ele>145</ele>
        <time>2023-04-04T16:47:36Z</time>
      </trkpt>
      <trkpt lat="43.65093" lon="1.38488">
        <ele>145</ele>
        <time>2023-04-04T16:47:37Z</time>
      </trkpt>
      <trkpt lat="43.65092" lon="1.38484">
        <ele>145</ele>
        <time>2023-04-04T16:47:38Z</time>
      </trkpt>
      <trkpt lat="43.65091" lon="1.38481">
        <ele>145</ele>
        <time>2023-04-04T16:47:39Z</time>
      </trkpt>
      <trkpt lat="43.65091" lon="1.38477">
        <ele>145</ele>
        <time>2023-04-04T16:47:40Z</time>
      </trkpt>
      <trkpt lat="43.6509" lon="1.38474">
        <ele>145</ele>
        <time>2023-04-04T16:47:41Z</time>
      </trkpt>
      <trkpt lat="43.65089" lon="1.3847">
        <ele>145</ele>
        <time>2023-04-04T16:47:42Z</time>
      </trkpt>
      <trkpt lat="43.65088" lon="1.38467">
        <ele>145</ele>
        <time>2023-04-04T16:47:43Z</time>
      </trkpt>
      <trkpt lat="43.65088" lon="1.38463">
        <ele>145</ele>
        <time>2023-04-04T16:47:44Z</time>
      </trkpt>
      <trkpt lat="43.65086" lon="1.38459">
        <ele>145</ele>
        <time>2023-04-04T16:47:45Z</time>
      </trkpt>
      <trkpt lat="43.65085" lon="1.38456">
        <ele>145</ele>
        <time>2023-04-04T16:47:46Z</time>
      </trkpt>
      <trkpt lat="43.65084" lon="1.38452">
        <ele>145</ele>
        <time>2023-04-04T16:47:47Z</time>
      </trkpt>
      <trkpt lat="43.65082" lon="1.38449">
        <ele>145</ele>
        <time>2023-04-04T16:47:48Z</time>
      </trkpt>
      <trkpt lat="43.65081" lon="1.38445">
        <ele>145</ele>
        <time>2023-04-04T16:47:49Z</time>
      </trkpt>
      <trkpt lat="43.65079" lon="1.38442">
        <ele>145</ele>
        <time>2023-04-04T16:47:50Z</time>
      </trkpt>
      <trkpt lat="43.65077" lon="1.38437">
        <ele>145</ele>
        <time>2023-04-04T16:47:51Z</time>
      </trkpt>
      <trkpt lat="43.65076" lon="1.38436">
        <ele>145</ele>
        <time>2023-04-04T16:47:52Z</time>
      </trkpt>
      <trkpt lat="43.65075" lon="1.38432">
        <ele>145</ele>
        <time>2023-04-04T16:47:53Z</time>
      </trkpt>
      <trkpt lat="43.65074" lon="1.38429">
        <ele>145</ele>
        <time>2023-04-04T16:47:54Z</time>
      </trkpt>
      <trkpt lat="43.65073" lon="1.38425">
        <ele>146</ele>
        <time>2023-04-04T16:47:55Z</time>
      </trkpt>
      <trkpt lat="43.65072" lon="1.38421">
        <ele>146</ele>
        <time>2023-04-04T16:47:56Z</time>
      </trkpt>
      <trkpt lat="43.65071" lon="1.38417">
        <ele>146</ele>
        <time>2023-04-04T16:47:57Z</time>
      </trkpt>
      <trkpt lat="43.6507" lon="1.38413">
        <ele>146</ele>
        <time>2023-04-04T16:47:58Z</time>
      </trkpt>
      <trkpt lat="43.65069" lon="1.38409">
        <ele>146</ele>
        <time>2023-04-04T16:47:59Z</time>
      </trkpt>
      <trkpt lat="43.65067" lon="1.38405">
        <ele>146</ele>
        <time>2023-04-04T16:48:00Z</time>
      </trkpt>
      <trkpt lat="43.65066" lon="1.38401">
        <ele>146</ele>
        <time>2023-04-04T16:48:01Z</time>
      </trkpt>
      <trkpt lat="43.65065" lon="1.38398">
        <ele>146</ele>
        <time>2023-04-04T16:48:02Z</time>
      </trkpt>
      <trkpt lat="43.65064" lon="1.38394">
        <ele>146</ele>
        <time>2023-04-04T16:48:03Z</time>
      </trkpt>
      <trkpt lat="43.65063" lon="1.38391">
        <ele>146</ele>
        <time>2023-04-04T16:48:04Z</time>
      </trkpt>
      <trkpt lat="43.65062" lon="1.38387">
        <ele>146</ele>
        <time>2023-04-04T16:48:05Z</time>
      </trkpt>
      <trkpt lat="43.65061" lon="1.38384">
        <ele>146</ele>
        <time>2023-04-04T16:48:06Z</time>
      </trkpt>
      <trkpt lat="43.6506" lon="1.3838">
        <ele>146</ele>
        <time>2023-04-04T16:48:07Z</time>
      </trkpt>
      <trkpt lat="43.65059" lon="1.38376">
        <ele>145</ele>
        <time>2023-04-04T16:48:08Z</time>
      </trkpt>
      <trkpt lat="43.65057" lon="1.38372">
        <ele>145</ele>
        <time>2023-04-04T16:48:09Z</time>
      </trkpt>
      <trkpt lat="43.65056" lon="1.38368">
        <ele>145</ele>
        <time>2023-04-04T16:48:10Z</time>
      </trkpt>
      <trkpt lat="43.65055" lon="1.38364">
        <ele>145</ele>
        <time>2023-04-04T16:48:11Z</time>
      </trkpt>
      <trkpt lat="43.65054" lon="1.38361">
        <ele>146</ele>
        <time>2023-04-04T16:48:12Z</time>
      </trkpt>
      <trkpt lat="43.65053" lon="1.38358">
        <ele>146</ele>
        <time>2023-04-04T16:48:13Z</time>
      </trkpt>
      <trkpt lat="43.65052" lon="1.38354">
        <ele>146</ele>
        <time>2023-04-04T16:48:14Z</time>
      </trkpt>
      <trkpt lat="43.65051" lon="1.3835">
        <ele>146</ele>
        <time>2023-04-04T16:48:15Z</time>
      </trkpt>
      <trkpt lat="43.6505" lon="1.38346">
        <ele>146</ele>
        <time>2023-04-04T16:48:16Z</time>
      </trkpt>
      <trkpt lat="43.6505" lon="1.38343">
        <ele>146</ele>
        <time>2023-04-04T16:48:17Z</time>
      </trkpt>
      <trkpt lat="43.65048" lon="1.38339">
        <ele>146</ele>
        <time>2023-04-04T16:48:18Z</time>
      </trkpt>
      <trkpt lat="43.65047" lon="1.38336">
        <ele>146</ele>
        <time>2023-04-04T16:48:19Z</time>
      </trkpt>
      <trkpt lat="43.65046" lon="1.38332">
        <ele>146</ele>
        <time>2023-04-04T16:48:20Z</time>
      </trkpt>
      <trkpt lat="43.65045" lon="1.38329">
        <ele>146</ele>
        <time>2023-04-04T16:48:21Z</time>
      </trkpt>
      <trkpt lat="43.65044" lon="1.38326">
        <ele>146</ele>
        <time>2023-04-04T16:48:22Z</time>
      </trkpt>
      <trkpt lat="43.65043" lon="1.38322">
        <ele>146</ele>
        <time>2023-04-04T16:48:23Z</time>
      </trkpt>
      <trkpt lat="43.65041" lon="1.38318">
        <ele>146</ele>
        <time>2023-04-04T16:48:24Z</time>
      </trkpt>
      <trkpt lat="43.6504" lon="1.38315">
        <ele>146</ele>
        <time>2023-04-04T16:48:25Z</time>
      </trkpt>
      <trkpt lat="43.65038" lon="1.38309">
        <ele>146</ele>
        <time>2023-04-04T16:48:26Z</time>
      </trkpt>
      <trkpt lat="43.65038" lon="1.38308">
        <ele>146</ele>
        <time>2023-04-04T16:48:27Z</time>
      </trkpt>
      <trkpt lat="43.65036" lon="1.38304">
        <ele>146</ele>
        <time>2023-04-04T16:48:28Z</time>
      </trkpt>
      <trkpt lat="43.65035" lon="1.38298">
        <ele>146</ele>
        <time>2023-04-04T16:48:29Z</time>
      </trkpt>
      <trkpt lat="43.65034" lon="1.38296">
        <ele>145</ele>
        <time>2023-04-04T16:48:30Z</time>
      </trkpt>
      <trkpt lat="43.65033" lon="1.38293">
        <ele>145</ele>
        <time>2023-04-04T16:48:31Z</time>
      </trkpt>
      <trkpt lat="43.65032" lon="1.38289">
        <ele>145</ele>
        <time>2023-04-04T16:48:32Z</time>
      </trkpt>
      <trkpt lat="43.65031" lon="1.38285">
        <ele>146</ele>
        <time>2023-04-04T16:48:33Z</time>
      </trkpt>
      <trkpt lat="43.6503" lon="1.38282">
        <ele>146</ele>
        <time>2023-04-04T16:48:34Z</time>
      </trkpt>
      <trkpt lat="43.65029" lon="1.38279">
        <ele>146</ele>
        <time>2023-04-04T16:48:35Z</time>
      </trkpt>
      <trkpt lat="43.65028" lon="1.38275">
        <ele>146</ele>
        <time>2023-04-04T16:48:36Z</time>
      </trkpt>
      <trkpt lat="43.65027" lon="1.38271">
        <ele>147</ele>
        <time>2023-04-04T16:48:37Z</time>
      </trkpt>
      <trkpt lat="43.65026" lon="1.38268">
        <ele>147</ele>
        <time>2023-04-04T16:48:38Z</time>
      </trkpt>
      <trkpt lat="43.65024" lon="1.38265">
        <ele>147</ele>
        <time>2023-04-04T16:48:39Z</time>
      </trkpt>
      <trkpt lat="43.65023" lon="1.38262">
        <ele>147</ele>
        <time>2023-04-04T16:48:40Z</time>
      </trkpt>
      <trkpt lat="43.65022" lon="1.38259">
        <ele>146</ele>
        <time>2023-04-04T16:48:41Z</time>
      </trkpt>
      <trkpt lat="43.65021" lon="1.38255">
        <ele>146</ele>
        <time>2023-04-04T16:48:42Z</time>
      </trkpt>
      <trkpt lat="43.65019" lon="1.38252">
        <ele>146</ele>
        <time>2023-04-04T16:48:43Z</time>
      </trkpt>
      <trkpt lat="43.65018" lon="1.38246">
        <ele>146</ele>
        <time>2023-04-04T16:48:44Z</time>
      </trkpt>
      <trkpt lat="43.65017" lon="1.38245">
        <ele>145</ele>
        <time>2023-04-04T16:48:45Z</time>
      </trkpt>
      <trkpt lat="43.65017" lon="1.38241">
        <ele>145</ele>
        <time>2023-04-04T16:48:46Z</time>
      </trkpt>
      <trkpt lat="43.65016" lon="1.38237">
        <ele>145</ele>
        <time>2023-04-04T16:48:47Z</time>
      </trkpt>
      <trkpt lat="43.65015" lon="1.38232">
        <ele>145</ele>
        <time>2023-04-04T16:48:48Z</time>
      </trkpt>
      <trkpt lat="43.65014" lon="1.3823">
        <ele>145</ele>
        <time>2023-04-04T16:48:49Z</time>
      </trkpt>
      <trkpt lat="43.65013" lon="1.38226">
        <ele>145</ele>
        <time>2023-04-04T16:48:50Z</time>
      </trkpt>
      <trkpt lat="43.65012" lon="1.38222">
        <ele>145</ele>
        <time>2023-04-04T16:48:51Z</time>
      </trkpt>
      <trkpt lat="43.65011" lon="1.38219">
        <ele>145</ele>
        <time>2023-04-04T16:48:52Z</time>
      </trkpt>
      <trkpt lat="43.6501" lon="1.38215">
        <ele>145</ele>
        <time>2023-04-04T16:48:53Z</time>
      </trkpt>
      <trkpt lat="43.65009" lon="1.38211">
        <ele>145</ele>
        <time>2023-04-04T16:48:54Z</time>
      </trkpt>
      <trkpt lat="43.65008" lon="1.38207">
        <ele>145</ele>
        <time>2023-04-04T16:48:55Z</time>
      </trkpt>
      <trkpt lat="43.65007" lon="1.38203">
        <ele>145</ele>
        <time>2023-04-04T16:48:56Z</time>
      </trkpt>
      <trkpt lat="43.65005" lon="1.38199">
        <ele>145</ele>
        <time>2023-04-04T16:48:57Z</time>
      </trkpt>
      <trkpt lat="43.65004" lon="1.38196">
        <ele>145</ele>
        <time>2023-04-04T16:48:58Z</time>
      </trkpt>
      <trkpt lat="43.65002" lon="1.38193">
        <ele>145</ele>
        <time>2023-04-04T16:48:59Z</time>
      </trkpt>
      <trkpt lat="43.65" lon="1.38191">
        <ele>145</ele>
        <time>2023-04-04T16:49:00Z</time>
      </trkpt>
      <trkpt lat="43.64996" lon="1.38187">
        <ele>145</ele>
        <time>2023-04-04T16:49:01Z</time>
      </trkpt>
      <trkpt lat="43.64995" lon="1.38185">
        <ele>145</ele>
        <time>2023-04-04T16:49:02Z</time>
      </trkpt>
      <trkpt lat="43.64993" lon="1.38181">
        <ele>145</ele>
        <time>2023-04-04T16:49:03Z</time>
      </trkpt>
      <trkpt lat="43.64992" lon="1.38178">
        <ele>146</ele>
        <time>2023-04-04T16:49:04Z</time>
      </trkpt>
      <trkpt lat="43.64992" lon="1.38174">
        <ele>146</ele>
        <time>2023-04-04T16:49:05Z</time>
      </trkpt>
      <trkpt lat="43.64993" lon="1.3817">
        <ele>146</ele>
        <time>2023-04-04T16:49:06Z</time>
      </trkpt>
      <trkpt lat="43.64994" lon="1.38166">
        <ele>146</ele>
        <time>2023-04-04T16:49:07Z</time>
      </trkpt>
      <trkpt lat="43.64995" lon="1.38163">
        <ele>146</ele>
        <time>2023-04-04T16:49:08Z</time>
      </trkpt>
      <trkpt lat="43.64997" lon="1.3816">
        <ele>145</ele>
        <time>2023-04-04T16:49:09Z</time>
      </trkpt>
      <trkpt lat="43.64998" lon="1.38157">
        <ele>145</ele>
        <time>2023-04-04T16:49:10Z</time>
      </trkpt>
      <trkpt lat="43.64998" lon="1.38154">
        <ele>145</ele>
        <time>2023-04-04T16:49:11Z</time>
      </trkpt>
      <trkpt lat="43.64999" lon="1.38152">
        <ele>145</ele>
        <time>2023-04-04T16:49:12Z</time>
      </trkpt>
      <trkpt lat="43.65" lon="1.38149">
        <ele>145</ele>
        <time>2023-04-04T16:49:13Z</time>
      </trkpt>
      <trkpt lat="43.65" lon="1.38145">
        <ele>146</ele>
        <time>2023-04-04T16:49:14Z</time>
      </trkpt>
      <trkpt lat="43.65" lon="1.3814">
        <ele>146</ele>
        <time>2023-04-04T16:49:15Z</time>
      </trkpt>
      <trkpt lat="43.64999" lon="1.38136">
        <ele>146</ele>
        <time>2023-04-04T16:49:16Z</time>
      </trkpt>
      <trkpt lat="43.64999" lon="1.38132">
        <ele>146</ele>
        <time>2023-04-04T16:49:17Z</time>
      </trkpt>
      <trkpt lat="43.64998" lon="1.38128">
        <ele>146</ele>
        <time>2023-04-04T16:49:18Z</time>
      </trkpt>
      <trkpt lat="43.64997" lon="1.38124">
        <ele>146</ele>
        <time>2023-04-04T16:49:19Z</time>
      </trkpt>
      <trkpt lat="43.64996" lon="1.3812">
        <ele>145</ele>
        <time>2023-04-04T16:49:20Z</time>
      </trkpt>
      <trkpt lat="43.64995" lon="1.38115">
        <ele>145</ele>
        <time>2023-04-04T16:49:21Z</time>
      </trkpt>
      <trkpt lat="43.64994" lon="1.38111">
        <ele>144</ele>
        <time>2023-04-04T16:49:22Z</time>
      </trkpt>
      <trkpt lat="43.64992" lon="1.38107">
        <ele>145</ele>
        <time>2023-04-04T16:49:23Z</time>
      </trkpt>
      <trkpt lat="43.64991" lon="1.38104">
        <ele>145</ele>
        <time>2023-04-04T16:49:24Z</time>
      </trkpt>
      <trkpt lat="43.64989" lon="1.381">
        <ele>145</ele>
        <time>2023-04-04T16:49:25Z</time>
      </trkpt>
      <trkpt lat="43.64987" lon="1.38094">
        <ele>145</ele>
        <time>2023-04-04T16:49:26Z</time>
      </trkpt>
      <trkpt lat="43.64987" lon="1.38092">
        <ele>144</ele>
        <time>2023-04-04T16:49:27Z</time>
      </trkpt>
      <trkpt lat="43.64985" lon="1.38089">
        <ele>144</ele>
        <time>2023-04-04T16:49:28Z</time>
      </trkpt>
      <trkpt lat="43.64983" lon="1.38085">
        <ele>144</ele>
        <time>2023-04-04T16:49:29Z</time>
      </trkpt>
      <trkpt lat="43.64981" lon="1.38082">
        <ele>144</ele>
        <time>2023-04-04T16:49:30Z</time>
      </trkpt>
      <trkpt lat="43.6498" lon="1.38078">
        <ele>144</ele>
        <time>2023-04-04T16:49:31Z</time>
      </trkpt>
      <trkpt lat="43.64979" lon="1.38075">
        <ele>144</ele>
        <time>2023-04-04T16:49:32Z</time>
      </trkpt>
      <trkpt lat="43.64978" lon="1.38072">
        <ele>144</ele>
        <time>2023-04-04T16:49:33Z</time>
      </trkpt>
      <trkpt lat="43.64977" lon="1.38069">
        <ele>144</ele>
        <time>2023-04-04T16:49:34Z</time>
      </trkpt>
      <trkpt lat="43.64976" lon="1.38065">
        <ele>144</ele>
        <time>2023-04-04T16:49:35Z</time>
      </trkpt>
      <trkpt lat="43.64974" lon="1.3806">
        <ele>144</ele>
        <time>2023-04-04T16:49:36Z</time>
      </trkpt>
      <trkpt lat="43.64974" lon="1.38058">
        <ele>144</ele>
        <time>2023-04-04T16:49:37Z</time>
      </trkpt>
      <trkpt lat="43.64973" lon="1.38054">
        <ele>144</ele>
        <time>2023-04-04T16:49:38Z</time>
      </trkpt>
      <trkpt lat="43.64971" lon="1.3805">
        <ele>144</ele>
        <time>2023-04-04T16:49:39Z</time>
      </trkpt>
      <trkpt lat="43.6497" lon="1.38047">
        <ele>144</ele>
        <time>2023-04-04T16:49:40Z</time>
      </trkpt>
      <trkpt lat="43.64969" lon="1.38043">
        <ele>144</ele>
        <time>2023-04-04T16:49:41Z</time>
      </trkpt>
      <trkpt lat="43.64968" lon="1.38039">
        <ele>144</ele>
        <time>2023-04-04T16:49:42Z</time>
      </trkpt>
      <trkpt lat="43.64967" lon="1.38035">
        <ele>144</ele>
        <time>2023-04-04T16:49:43Z</time>
      </trkpt>
      <trkpt lat="43.64966" lon="1.38032">
        <ele>144</ele>
        <time>2023-04-04T16:49:44Z</time>
      </trkpt>
      <trkpt lat="43.64965" lon="1.38026">
        <ele>144</ele>
        <time>2023-04-04T16:49:45Z</time>
      </trkpt>
      <trkpt lat="43.64964" lon="1.38024">
        <ele>144</ele>
        <time>2023-04-04T16:49:46Z</time>
      </trkpt>
      <trkpt lat="43.64963" lon="1.3802">
        <ele>144</ele>
        <time>2023-04-04T16:49:47Z</time>
      </trkpt>
      <trkpt lat="43.64962" lon="1.38017">
        <ele>143</ele>
        <time>2023-04-04T16:49:48Z</time>
      </trkpt>
      <trkpt lat="43.64961" lon="1.38013">
        <ele>143</ele>
        <time>2023-04-04T16:49:49Z</time>
      </trkpt>
      <trkpt lat="43.6496" lon="1.3801">
        <ele>143</ele>
        <time>2023-04-04T16:49:50Z</time>
      </trkpt>
      <trkpt lat="43.64959" lon="1.38007">
        <ele>144</ele>
        <time>2023-04-04T16:49:51Z</time>
      </trkpt>
      <trkpt lat="43.64957" lon="1.38004">
        <ele>144</ele>
        <time>2023-04-04T16:49:52Z</time>
      </trkpt>
      <trkpt lat="43.64955" lon="1.38001">
        <ele>144</ele>
        <time>2023-04-04T16:49:53Z</time>
      </trkpt>
      <trkpt lat="43.64952" lon="1.37996">
        <ele>144</ele>
        <time>2023-04-04T16:49:54Z</time>
      </trkpt>
      <trkpt lat="43.64951" lon="1.37994">
        <ele>144</ele>
        <time>2023-04-04T16:49:55Z</time>
      </trkpt>
      <trkpt lat="43.64949" lon="1.3799">
        <ele>144</ele>
        <time>2023-04-04T16:49:56Z</time>
      </trkpt>
      <trkpt lat="43.64948" lon="1.37986">
        <ele>143</ele>
        <time>2023-04-04T16:49:57Z</time>
      </trkpt>
      <trkpt lat="43.64946" lon="1.37982">
        <ele>143</ele>
        <time>2023-04-04T16:49:58Z</time>
      </trkpt>
      <trkpt lat="43.64946" lon="1.37977">
        <ele>143</ele>
        <time>2023-04-04T16:49:59Z</time>
      </trkpt>
      <trkpt lat="43.64945" lon="1.37973">
        <ele>143</ele>
        <time>2023-04-04T16:50:00Z</time>
      </trkpt>
      <trkpt lat="43.64946" lon="1.37969">
        <ele>144</ele>
        <time>2023-04-04T16:50:01Z</time>
      </trkpt>
      <trkpt lat="43.64945" lon="1.37965">
        <ele>144</ele>
        <time>2023-04-04T16:50:02Z</time>
      </trkpt>
      <trkpt lat="43.64945" lon="1.37961">
        <ele>144</ele>
        <time>2023-04-04T16:50:03Z</time>
      </trkpt>
      <trkpt lat="43.64944" lon="1.37956">
        <ele>144</ele>
        <time>2023-04-04T16:50:04Z</time>
      </trkpt>
      <trkpt lat="43.64944" lon="1.37954">
        <ele>145</ele>
        <time>2023-04-04T16:50:05Z</time>
      </trkpt>
      <trkpt lat="43.64943" lon="1.3795">
        <ele>145</ele>
        <time>2023-04-04T16:50:06Z</time>
      </trkpt>
      <trkpt lat="43.64942" lon="1.37946">
        <ele>145</ele>
        <time>2023-04-04T16:50:07Z</time>
      </trkpt>
      <trkpt lat="43.64942" lon="1.37942">
        <ele>145</ele>
        <time>2023-04-04T16:50:08Z</time>
      </trkpt>
      <trkpt lat="43.64941" lon="1.37938">
        <ele>145</ele>
        <time>2023-04-04T16:50:09Z</time>
      </trkpt>
      <trkpt lat="43.64939" lon="1.37932">
        <ele>145</ele>
        <time>2023-04-04T16:50:10Z</time>
      </trkpt>
      <trkpt lat="43.64939" lon="1.3793">
        <ele>145</ele>
        <time>2023-04-04T16:50:11Z</time>
      </trkpt>
      <trkpt lat="43.64938" lon="1.37925">
        <ele>145</ele>
        <time>2023-04-04T16:50:12Z</time>
      </trkpt>
      <trkpt lat="43.64937" lon="1.37922">
        <ele>145</ele>
        <time>2023-04-04T16:50:13Z</time>
      </trkpt>
      <trkpt lat="43.64936" lon="1.37918">
        <ele>145</ele>
        <time>2023-04-04T16:50:14Z</time>
      </trkpt>
      <trkpt lat="43.64935" lon="1.37914">
        <ele>145</ele>
        <time>2023-04-04T16:50:15Z</time>
      </trkpt>
      <trkpt lat="43.64934" lon="1.3791">
        <ele>144</ele>
        <time>2023-04-04T16:50:16Z</time>
      </trkpt>
      <trkpt lat="43.64933" lon="1.37906">
        <ele>145</ele>
        <time>2023-04-04T16:50:17Z</time>
      </trkpt>
      <trkpt lat="43.64932" lon="1.37902">
        <ele>145</ele>
        <time>2023-04-04T16:50:18Z</time>
      </trkpt>
      <trkpt lat="43.64931" lon="1.37899">
        <ele>145</ele>
        <time>2023-04-04T16:50:19Z</time>
      </trkpt>
      <trkpt lat="43.6493" lon="1.37895">
        <ele>145</ele>
        <time>2023-04-04T16:50:20Z</time>
      </trkpt>
      <trkpt lat="43.6493" lon="1.37892">
        <ele>145</ele>
        <time>2023-04-04T16:50:21Z</time>
      </trkpt>
      <trkpt lat="43.64929" lon="1.37888">
        <ele>145</ele>
        <time>2023-04-04T16:50:22Z</time>
      </trkpt>
      <trkpt lat="43.64928" lon="1.37883">
        <ele>145</ele>
        <time>2023-04-04T16:50:23Z</time>
      </trkpt>
      <trkpt lat="43.64927" lon="1.37881">
        <ele>145</ele>
        <time>2023-04-04T16:50:24Z</time>
      </trkpt>
      <trkpt lat="43.64926" lon="1.37877">
        <ele>145</ele>
        <time>2023-04-04T16:50:25Z</time>
      </trkpt>
      <trkpt lat="43.64925" lon="1.37873">
        <ele>144</ele>
        <time>2023-04-04T16:50:26Z</time>
      </trkpt>
      <trkpt lat="43.64924" lon="1.37868">
        <ele>144</ele>
        <time>2023-04-04T16:50:27Z</time>
      </trkpt>
      <trkpt lat="43.64923" lon="1.37866">
        <ele>144</ele>
        <time>2023-04-04T16:50:28Z</time>
      </trkpt>
      <trkpt lat="43.64923" lon="1.37862">
        <ele>144</ele>
        <time>2023-04-04T16:50:29Z</time>
      </trkpt>
      <trkpt lat="43.64922" lon="1.37859">
        <ele>145</ele>
        <time>2023-04-04T16:50:30Z</time>
      </trkpt>
      <trkpt lat="43.64921" lon="1.37855">
        <ele>145</ele>
        <time>2023-04-04T16:50:31Z</time>
      </trkpt>
      <trkpt lat="43.6492" lon="1.37852">
        <ele>146</ele>
        <time>2023-04-04T16:50:32Z</time>
      </trkpt>
      <trkpt lat="43.6492" lon="1.37848">
        <ele>146</ele>
        <time>2023-04-04T16:50:33Z</time>
      </trkpt>
      <trkpt lat="43.64919" lon="1.37845">
        <ele>146</ele>
        <time>2023-04-04T16:50:34Z</time>
      </trkpt>
      <trkpt lat="43.64918" lon="1.37841">
        <ele>146</ele>
        <time>2023-04-04T16:50:35Z</time>
      </trkpt>
      <trkpt lat="43.64917" lon="1.37838">
        <ele>146</ele>
        <time>2023-04-04T16:50:36Z</time>
      </trkpt>
      <trkpt lat="43.64916" lon="1.37835">
        <ele>146</ele>
        <time>2023-04-04T16:50:37Z</time>
      </trkpt>
      <trkpt lat="43.64916" lon="1.37831">
        <ele>146</ele>
        <time>2023-04-04T16:50:38Z</time>
      </trkpt>
      <trkpt lat="43.64915" lon="1.37828">
        <ele>146</ele>
        <time>2023-04-04T16:50:39Z</time>
      </trkpt>
      <trkpt lat="43.64914" lon="1.37824">
        <ele>146</ele>
        <time>2023-04-04T16:50:40Z</time>
      </trkpt>
      <trkpt lat="43.64913" lon="1.37821">
        <ele>146</ele>
        <time>2023-04-04T16:50:41Z</time>
      </trkpt>
      <trkpt lat="43.64912" lon="1.37815">
        <ele>146</ele>
        <time>2023-04-04T16:50:42Z</time>
      </trkpt>
      <trkpt lat="43.64912" lon="1.37813">
        <ele>146</ele>
        <time>2023-04-04T16:50:43Z</time>
      </trkpt>
      <trkpt lat="43.64911" lon="1.3781">
        <ele>146</ele>
        <time>2023-04-04T16:50:44Z</time>
      </trkpt>
      <trkpt lat="43.64911" lon="1.37806">
        <ele>146</ele>
        <time>2023-04-04T16:50:45Z</time>
      </trkpt>
      <trkpt lat="43.64909" lon="1.378">
        <ele>146</ele>
        <time>2023-04-04T16:50:46Z</time>
      </trkpt>
      <trkpt lat="43.64909" lon="1.37799">
        <ele>146</ele>
        <time>2023-04-04T16:50:47Z</time>
      </trkpt>
      <trkpt lat="43.64908" lon="1.37795">
        <ele>146</ele>
        <time>2023-04-04T16:50:48Z</time>
      </trkpt>
      <trkpt lat="43.64907" lon="1.37791">
        <ele>146</ele>
        <time>2023-04-04T16:50:49Z</time>
      </trkpt>
      <trkpt lat="43.64906" lon="1.37787">
        <ele>146</ele>
        <time>2023-04-04T16:50:50Z</time>
      </trkpt>
      <trkpt lat="43.64905" lon="1.37783">
        <ele>146</ele>
        <time>2023-04-04T16:50:51Z</time>
      </trkpt>
      <trkpt lat="43.64905" lon="1.37779">
        <ele>146</ele>
        <time>2023-04-04T16:50:52Z</time>
      </trkpt>
      <trkpt lat="43.64904" lon="1.37775">
        <ele>146</ele>
        <time>2023-04-04T16:50:53Z</time>
      </trkpt>
      <trkpt lat="43.64904" lon="1.37772">
        <ele>146</ele>
        <time>2023-04-04T16:50:54Z</time>
      </trkpt>
      <trkpt lat="43.64903" lon="1.37768">
        <ele>146</ele>
        <time>2023-04-04T16:50:55Z</time>
      </trkpt>
      <trkpt lat="43.64902" lon="1.37764">
        <ele>146</ele>
        <time>2023-04-04T16:50:56Z</time>
      </trkpt>
      <trkpt lat="43.64902" lon="1.3776">
        <ele>146</ele>
        <time>2023-04-04T16:50:57Z</time>
      </trkpt>
      <trkpt lat="43.64901" lon="1.37756">
        <ele>146</ele>
        <time>2023-04-04T16:50:58Z</time>
      </trkpt>
      <trkpt lat="43.649" lon="1.37753">
        <ele>146</ele>
        <time>2023-04-04T16:50:59Z</time>
      </trkpt>
      <trkpt lat="43.64899" lon="1.37749">
        <ele>146</ele>
        <time>2023-04-04T16:51:00Z</time>
      </trkpt>
      <trkpt lat="43.64898" lon="1.37743">
        <ele>146</ele>
        <time>2023-04-04T16:51:01Z</time>
      </trkpt>
      <trkpt lat="43.64898" lon="1.37741">
        <ele>146</ele>
        <time>2023-04-04T16:51:02Z</time>
      </trkpt>
      <trkpt lat="43.64897" lon="1.37735">
        <ele>146</ele>
        <time>2023-04-04T16:51:03Z</time>
      </trkpt>
      <trkpt lat="43.64897" lon="1.37733">
        <ele>146</ele>
        <time>2023-04-04T16:51:04Z</time>
      </trkpt>
      <trkpt lat="43.64896" lon="1.37729">
        <ele>146</ele>
        <time>2023-04-04T16:51:05Z</time>
      </trkpt>
      <trkpt lat="43.64895" lon="1.37726">
        <ele>146</ele>
        <time>2023-04-04T16:51:06Z</time>
      </trkpt>
      <trkpt lat="43.64893" lon="1.37722">
        <ele>146</ele>
        <time>2023-04-04T16:51:07Z</time>
      </trkpt>
      <trkpt lat="43.64892" lon="1.37718">
        <ele>146</ele>
        <time>2023-04-04T16:51:08Z</time>
      </trkpt>
      <trkpt lat="43.64891" lon="1.37715">
        <ele>146</ele>
        <time>2023-04-04T16:51:09Z</time>
      </trkpt>
      <trkpt lat="43.6489" lon="1.37712">
        <ele>146</ele>
        <time>2023-04-04T16:51:10Z</time>
      </trkpt>
      <trkpt lat="43.64889" lon="1.37708">
        <ele>146</ele>
        <time>2023-04-04T16:51:11Z</time>
      </trkpt>
      <trkpt lat="43.64887" lon="1.37704">
        <ele>146</ele>
        <time>2023-04-04T16:51:12Z</time>
      </trkpt>
      <trkpt lat="43.64885" lon="1.377">
        <ele>146</ele>
        <time>2023-04-04T16:51:13Z</time>
      </trkpt>
      <trkpt lat="43.64884" lon="1.37696">
        <ele>145</ele>
        <time>2023-04-04T16:51:14Z</time>
      </trkpt>
      <trkpt lat="43.64884" lon="1.37692">
        <ele>145</ele>
        <time>2023-04-04T16:51:15Z</time>
      </trkpt>
      <trkpt lat="43.64883" lon="1.37688">
        <ele>145</ele>
        <time>2023-04-04T16:51:16Z</time>
      </trkpt>
      <trkpt lat="43.64882" lon="1.37685">
        <ele>145</ele>
        <time>2023-04-04T16:51:17Z</time>
      </trkpt>
      <trkpt lat="43.64881" lon="1.37681">
        <ele>145</ele>
        <time>2023-04-04T16:51:18Z</time>
      </trkpt>
      <trkpt lat="43.6488" lon="1.37678">
        <ele>145</ele>
        <time>2023-04-04T16:51:19Z</time>
      </trkpt>
      <trkpt lat="43.64879" lon="1.37672">
        <ele>145</ele>
        <time>2023-04-04T16:51:20Z</time>
      </trkpt>
      <trkpt lat="43.64878" lon="1.3767">
        <ele>145</ele>
        <time>2023-04-04T16:51:21Z</time>
      </trkpt>
      <trkpt lat="43.64877" lon="1.37666">
        <ele>145</ele>
        <time>2023-04-04T16:51:22Z</time>
      </trkpt>
      <trkpt lat="43.64875" lon="1.37662">
        <ele>145</ele>
        <time>2023-04-04T16:51:23Z</time>
      </trkpt>
      <trkpt lat="43.64872" lon="1.37659">
        <ele>145</ele>
        <time>2023-04-04T16:51:24Z</time>
      </trkpt>
      <trkpt lat="43.6487" lon="1.37656">
        <ele>146</ele>
        <time>2023-04-04T16:51:25Z</time>
      </trkpt>
      <trkpt lat="43.64867" lon="1.37654">
        <ele>146</ele>
        <time>2023-04-04T16:51:26Z</time>
      </trkpt>
      <trkpt lat="43.64865" lon="1.37652">
        <ele>146</ele>
        <time>2023-04-04T16:51:27Z</time>
      </trkpt>
      <trkpt lat="43.64862" lon="1.3765">
        <ele>146</ele>
        <time>2023-04-04T16:51:28Z</time>
      </trkpt>
      <trkpt lat="43.6486" lon="1.37649">
        <ele>146</ele>
        <time>2023-04-04T16:51:29Z</time>
      </trkpt>
      <trkpt lat="43.64857" lon="1.37647">
        <ele>146</ele>
        <time>2023-04-04T16:51:30Z</time>
      </trkpt>
      <trkpt lat="43.64855" lon="1.37644">
        <ele>145</ele>
        <time>2023-04-04T16:51:31Z</time>
      </trkpt>
      <trkpt lat="43.64852" lon="1.37642">
        <ele>145</ele>
        <time>2023-04-04T16:51:32Z</time>
      </trkpt>
      <trkpt lat="43.64849" lon="1.3764">
        <ele>145</ele>
        <time>2023-04-04T16:51:33Z</time>
      </trkpt>
      <trkpt lat="43.64847" lon="1.37639">
        <ele>145</ele>
        <time>2023-04-04T16:51:34Z</time>
      </trkpt>
      <trkpt lat="43.64844" lon="1.37637">
        <ele>145</ele>
        <time>2023-04-04T16:51:35Z</time>
      </trkpt>
      <trkpt lat="43.64841" lon="1.37636">
        <ele>145</ele>
        <time>2023-04-04T16:51:36Z</time>
      </trkpt>
      <trkpt lat="43.64838" lon="1.37634">
        <ele>145</ele>
        <time>2023-04-04T16:51:37Z</time>
      </trkpt>
      <trkpt lat="43.64837" lon="1.37633">
        <ele>145</ele>
        <time>2023-04-04T16:51:38Z</time>
      </trkpt>
      <trkpt lat="43.64835" lon="1.37631">
        <ele>145</ele>
        <time>2023-04-04T16:51:40Z</time>
      </trkpt>
      <trkpt lat="43.64833" lon="1.37629">
        <ele>145</ele>
        <time>2023-04-04T16:51:41Z</time>
      </trkpt>
      <trkpt lat="43.64831" lon="1.37627">
        <ele>145</ele>
        <time>2023-04-04T16:51:42Z</time>
      </trkpt>
      <trkpt lat="43.6483" lon="1.37625">
        <ele>145</ele>
        <time>2023-04-04T16:51:43Z</time>
      </trkpt>
      <trkpt lat="43.64828" lon="1.37624">
        <ele>145</ele>
        <time>2023-04-04T16:51:44Z</time>
      </trkpt>
      <trkpt lat="43.64826" lon="1.37623">
        <ele>145</ele>
        <time>2023-04-04T16:51:45Z</time>
      </trkpt>
      <trkpt lat="43.64824" lon="1.37623">
        <ele>145</ele>
        <time>2023-04-04T16:51:46Z</time>
      </trkpt>
      <trkpt lat="43.64817" lon="1.3762">
        <ele>145</ele>
        <time>2023-04-04T16:51:47Z</time>
      </trkpt>
      <trkpt lat="43.64815" lon="1.37619">
        <ele>145</ele>
        <time>2023-04-04T16:51:48Z</time>
      </trkpt>
      <trkpt lat="43.64814" lon="1.37618">
        <ele>145</ele>
        <time>2023-04-04T16:51:49Z</time>
      </trkpt>
      <trkpt lat="43.64805" lon="1.37615">
        <ele>145</ele>
        <time>2023-04-04T16:51:50Z</time>
      </trkpt>
      <trkpt lat="43.64802" lon="1.37614">
        <ele>145</ele>
        <time>2023-04-04T16:51:51Z</time>
      </trkpt>
      <trkpt lat="43.648" lon="1.37614">
        <ele>145</ele>
        <time>2023-04-04T16:51:52Z</time>
      </trkpt>
      <trkpt lat="43.64797" lon="1.37615">
        <ele>145</ele>
        <time>2023-04-04T16:51:53Z</time>
      </trkpt>
      <trkpt lat="43.64794" lon="1.37615">
        <ele>145</ele>
        <time>2023-04-04T16:51:54Z</time>
      </trkpt>
      <trkpt lat="43.64791" lon="1.37616">
        <ele>145</ele>
        <time>2023-04-04T16:51:55Z</time>
      </trkpt>
      <trkpt lat="43.64788" lon="1.37617">
        <ele>145</ele>
        <time>2023-04-04T16:51:56Z</time>
      </trkpt>
      <trkpt lat="43.64786" lon="1.37618">
        <ele>145</ele>
        <time>2023-04-04T16:51:57Z</time>
      </trkpt>
      <trkpt lat="43.64781" lon="1.37619">
        <ele>145</ele>
        <time>2023-04-04T16:51:58Z</time>
      </trkpt>
      <trkpt lat="43.64779" lon="1.3762">
        <ele>145</ele>
        <time>2023-04-04T16:51:59Z</time>
      </trkpt>
      <trkpt lat="43.64776" lon="1.37621">
        <ele>145</ele>
        <time>2023-04-04T16:52:00Z</time>
      </trkpt>
      <trkpt lat="43.64773" lon="1.37622">
        <ele>145</ele>
        <time>2023-04-04T16:52:01Z</time>
      </trkpt>
      <trkpt lat="43.6477" lon="1.37623">
        <ele>145</ele>
        <time>2023-04-04T16:52:02Z</time>
      </trkpt>
      <trkpt lat="43.64767" lon="1.37624">
        <ele>145</ele>
        <time>2023-04-04T16:52:03Z</time>
      </trkpt>
      <trkpt lat="43.64763" lon="1.37625">
        <ele>145</ele>
        <time>2023-04-04T16:52:04Z</time>
      </trkpt>
      <trkpt lat="43.6476" lon="1.37626">
        <ele>145</ele>
        <time>2023-04-04T16:52:05Z</time>
      </trkpt>
      <trkpt lat="43.64757" lon="1.37627">
        <ele>145</ele>
        <time>2023-04-04T16:52:06Z</time>
      </trkpt>
      <trkpt lat="43.64754" lon="1.37628">
        <ele>145</ele>
        <time>2023-04-04T16:52:07Z</time>
      </trkpt>
      <trkpt lat="43.64752" lon="1.3763">
        <ele>145</ele>
        <time>2023-04-04T16:52:08Z</time>
      </trkpt>
      <trkpt lat="43.64749" lon="1.37631">
        <ele>145</ele>
        <time>2023-04-04T16:52:09Z</time>
      </trkpt>
      <trkpt lat="43.64746" lon="1.37632">
        <ele>145</ele>
        <time>2023-04-04T16:52:10Z</time>
      </trkpt>
      <trkpt lat="43.64742" lon="1.37634">
        <ele>145</ele>
        <time>2023-04-04T16:52:11Z</time>
      </trkpt>
      <trkpt lat="43.64741" lon="1.37635">
        <ele>145</ele>
        <time>2023-04-04T16:52:12Z</time>
      </trkpt>
      <trkpt lat="43.64738" lon="1.37636">
        <ele>145</ele>
        <time>2023-04-04T16:52:13Z</time>
      </trkpt>
      <trkpt lat="43.64735" lon="1.37638">
        <ele>145</ele>
        <time>2023-04-04T16:52:14Z</time>
      </trkpt>
      <trkpt lat="43.64733" lon="1.37639">
        <ele>145</ele>
        <time>2023-04-04T16:52:15Z</time>
      </trkpt>
      <trkpt lat="43.6473" lon="1.37641">
        <ele>145</ele>
        <time>2023-04-04T16:52:16Z</time>
      </trkpt>
      <trkpt lat="43.64726" lon="1.37643">
        <ele>145</ele>
        <time>2023-04-04T16:52:17Z</time>
      </trkpt>
      <trkpt lat="43.64725" lon="1.37643">
        <ele>145</ele>
        <time>2023-04-04T16:52:18Z</time>
      </trkpt>
      <trkpt lat="43.64722" lon="1.37645">
        <ele>145</ele>
        <time>2023-04-04T16:52:19Z</time>
      </trkpt>
      <trkpt lat="43.64719" lon="1.37646">
        <ele>145</ele>
        <time>2023-04-04T16:52:20Z</time>
      </trkpt>
      <trkpt lat="43.64716" lon="1.37647">
        <ele>145</ele>
        <time>2023-04-04T16:52:21Z</time>
      </trkpt>
      <trkpt lat="43.64713" lon="1.37648">
        <ele>145</ele>
        <time>2023-04-04T16:52:22Z</time>
      </trkpt>
    </trkseg>
  </trk>
</gpx>